[[{"header":{"parameterUnit":"m.s-1","parameterCategory":1,"la1":31.0,"la2":29.5877,"lo1":-88.7671,"lo2":-86.6584,"dy":0.0162,"dx":0.0185,"nx":115,"ny":88,"refTime":"2023-07-22T18:00:00:Z","depth":0,"parameterNumber":2,"parameterNumberName":"U-component_of_WINDS"},"data":[0.0,0.0,0.0,0.0,0.0,0.0,0.0,0.0,0.0,0.0,0.0,0.0,0.0,0.0,0.0,0.0,0.0,0.0,0.0,0.0,0.0,0.0,0.0,0.0,0.0,0.0,0.0,0.0,0.0,0.0,0.0,0.0,0.0,0.0,0.0,0.0,0.0,0.0,0.0,0.0,0.0,0.0,0.0,0.0,0.0,0.0,0.0,0.0,0.0,0.0,0.0,0.0,0.0,0.0,0.0,0.0,0.0,0.0,0.0,0.0,0.0,0.0,0.0,0.0,0.0,0.0,0.0,0.0,0.0,0.0,0.0,0.0,0.0,0.0,0.0,0.0,0.0,0.0,0.0,0.0,0.0,0.0,0.0,0.0,0.0,0.0,0.0,0.0,0.0,0.0,0.0,0.0,0.0,0.0,0.0,0.0,0.0,0.0,0.0,0.0,0.0,0.0,0.0,0.0,0.0,0.0,0.0,0.0,0.0,0.0,0.0,0.0,0.0,0.0,0.0,0.0,0.0,0.0,0.0,0.0,0.0,0.0,0.0,0.0,0.0,0.0,0.0,0.0,0.0,0.0,0.0,0.0,0.0,0.0,0.0,0.0,0.0,0.0,0.0,0.0,0.0,0.0,0.0,0.0,0.0,0.0,0.0,0.0,0.0,0.0,0.0,0.0,0.0,0.0,0.0,0.0,0.0,0.0,0.0,0.0,0.0,0.0,0.0,0.0,0.0,0.0,0.0,0.0,0.0,0.0,0.0,0.0,0.0,0.0,0.0,0.0,0.0,0.0,0.0,0.0,0.0,0.0,0.0,0.0,0.0,0.0,0.0,0.0,0.0,0.0,0.0,0.0,0.0,0.0,0.0,0.0,0.0,0.0,0.0,0.0,0.0,0.0,0.0,0.0,0.0,0.0,0.0,0.0,0.0,0.0,0.0,0.0,0.0,0.0,0.0,0.0,0.0,0.0,0.0,0.0,0.0,0.0,0.0,0.0,0.0,0.0,0.0,0.0,0.0,0.0,0.0,0.0,0.0,0.0,0.0,0.0,0.0,0.0,0.0,0.0,0.0,0.0,0.0,0.0,0.0,0.0,0.0,0.0,0.0,0.0,0.0,0.0,0.0,0.0,0.0,0.0,0.0,0.0,0.0,0.0,0.0,0.0,0.0,0.0,0.0,0.0,0.0,0.0,0.0,0.0,0.0,0.0,0.0,0.0,0.0,0.0,0.0,0.0,0.0,0.0,0.0,0.0,0.0,0.0,0.0,0.0,0.0,0.0,0.0,0.0,0.0,0.0,0.0,0.0,0.0,0.0,0.0,0.0,0.0,0.0,0.0,0.0,0.0,0.0,0.0,0.0,0.0,0.0,0.0,0.0,0.0,0.0,0.0,0.0,0.0,0.0,0.0,0.0,0.0,0.0,0.0,0.0,0.0,0.0,0.0,0.0,0.0,0.0,0.0,0.0,0.0,0.0,0.0,0.0,0.0,0.0,0.0,0.0,0.0,0.0,0.0,0.0,0.0,0.0,0.0,0.0,0.0,0.0,0.0,0.0,0.0,0.0,0.0,0.0,0.0,0.0,0.0,0.0,0.0,0.0,0.0,0.0,0.0,0.0,0.0,0.0,0.0,0.0,0.0,0.0,0.0,0.0,0.0,0.0,0.0,0.0,0.0,0.0,0.0,0.0,0.0,0.0,0.0,0.0,0.0,0.0,0.0,0.0,0.0,0.0,0.0,0.0,0.0,0.0,0.0,0.0,0.0,0.0,0.0,0.0,0.0,0.0,0.0,0.0,0.0,0.0,0.0,0.0,0.0,0.0,0.0,0.0,0.0,0.0,0.0,0.0,0.0,0.0,0.0,0.0,0.0,0.0,0.0,0.0,0.0,0.0,0.0,0.0,0.0,0.0,0.0,0.0,0.0,0.0,0.0,0.0,0.0,0.0,0.0,0.0,0.0,0.0,0.0,0.0,0.0,0.0,0.0,0.0,0.0,0.0,0.0,0.0,0.0,0.0,0.0,0.0,0.0,0.0,0.0,0.0,0.0,0.0,0.0,0.0,0.0,0.0,0.0,0.0,0.0,0.0,0.0,0.0,0.0,0.0,0.0,0.0,0.0,0.0,0.0,0.0,0.0,0.0,0.0,0.0,0.0,0.0,0.0,0.0,0.0,0.0,0.0,0.0,0.0,0.0,0.0,0.0,0.0,0.0,0.0,0.0,0.0,0.0,0.0,0.0,0.0,0.0,0.0,0.0,0.0,0.0,0.0,0.0,0.0,0.0,0.0,0.0,0.0,0.0,0.0,0.0,0.0,0.0,0.0,0.0,0.0,0.0,0.0,0.0,0.0,0.0,0.0,0.0,0.0,0.0,0.0,0.0,0.0,0.0,0.0,0.0,0.0,0.0,0.0,0.0,0.0,0.0,0.0,0.0,0.0,0.0,0.0,0.0,0.0,0.0,0.0,0.0,0.0,0.0,0.0,0.0,0.0,0.0,0.0,0.0,0.0,0.0,0.0,0.0,0.0,0.0,0.0,0.0,0.0,0.0,0.0,0.0,0.0,0.0,0.0,0.0,0.0,0.0,0.0,0.0,0.0,0.0,0.0,0.0,0.0,0.0,0.0,0.0,0.0,0.0,0.0,0.0,0.0,0.0,0.0,0.0,0.0,0.0,0.0,0.0,0.0,0.0,0.0,0.0,0.0,0.0,0.0,0.0,0.0,0.0,0.0,0.0,0.0,0.0,0.0,0.0,0.0,0.0,0.0,0.0,0.0,0.0,0.0,0.0,0.0,0.0,0.0,0.0,0.0,0.0,0.0,0.0,0.0,0.0,0.0,0.0,0.0,0.0,0.0,0.0,0.0,0.0,0.0,0.0,0.0,0.0,0.0,0.0,0.0,0.0,0.0,0.0,0.0,0.0,0.0,0.0,0.0,0.0,0.0,0.0,0.0,0.0,0.0,0.0,0.0,0.0,0.0,0.0,0.0,0.0,0.0,0.0,0.0,0.0,0.0,0.0,0.0,0.0,0.0,0.0,0.0,0.0,0.0,0.0,0.0,0.0,0.0,0.0,0.0,0.0,0.0,0.0,0.0,0.0,0.0,0.0,0.0,0.0,0.0,0.0,0.0,0.0,0.0,0.0,0.0,0.0,0.0,0.0,0.0,0.0,0.0,0.0,0.0,0.0,0.0,0.0,0.0,0.0,0.0,0.0,0.0,0.0,0.0,0.0,0.0,0.0,0.0,0.0,0.0,0.0,0.0,0.0,0.0,0.0,0.0,0.0,0.0,0.0,0.0,0.0,0.0,0.0,0.0,0.0,0.0,0.0,0.0,0.0,0.0,0.0,0.0,0.0,0.0,0.0,0.0,0.0,0.0,0.0,0.0,0.0,0.0,0.0,0.0,0.0,0.0,0.0,0.0,0.0,0.0,0.0,0.0,0.0,0.0,0.0,0.0,0.0,0.0,0.0,0.0,0.0,0.0,0.0,0.0,0.0,0.0,0.0,0.0,0.0,0.0,0.0,0.0,0.0,0.0,0.0,0.0,0.0,0.0,0.0,0.0,0.0,0.0,0.0,0.0,0.0,0.0,0.0,0.0,0.0,0.0,0.0,0.0,0.0,0.0,0.0,0.0,0.0,0.0,0.0,0.0,0.0,0.0,0.0,0.0,0.0,0.0,0.0,0.0,0.0,0.0,0.0,0.0,0.0,0.0,0.0,0.0,0.0,0.0,0.0,0.0,0.0,0.0,0.0,0.0,0.0,0.0,0.0,0.0,0.0,0.0,0.0,0.0,0.0,0.0,0.0,0.0,0.0,0.0,0.0,0.0,0.0,0.0,0.0,0.0,0.0,0.0,0.0,0.0,0.0,0.0,0.0,0.0,0.0,0.0,0.0,0.0,0.0,0.0,0.0,0.0,0.0,0.0,0.0,0.0,0.0,0.0,0.0,0.0,0.0,0.0,0.0,0.0,0.0,0.0,0.0,0.0,0.0,0.0,0.0,0.0,0.0,0.0,0.0,0.0,0.0,0.0,0.0,0.0,0.0,0.0,0.0,0.0,0.0,0.0,0.0,0.0,0.0,0.0,0.0,0.0,0.0,0.0,0.0,0.0,0.0,0.0,0.0,0.0,0.0,0.0,0.0,0.0,0.0,0.0,0.0,0.0,0.0,0.0,0.0,0.0,0.0,0.0,0.0,0.0,0.0,0.0,0.0,0.0,0.0,0.0,0.0,0.0,0.0,0.0,0.0,0.0,0.0,0.0,0.0,0.0,0.0,0.0,0.0,-2.8491,0.0,0.0,0.0,0.0,0.0,0.0,0.0,0.0,0.0,0.0,0.0,0.0,0.0,0.0,0.0,0.0,0.0,0.0,0.0,0.0,0.0,0.0,0.0,0.0,0.0,0.0,0.0,0.0,0.0,0.0,0.0,0.0,0.0,0.0,0.0,0.0,0.0,0.0,0.0,0.0,0.0,0.0,0.0,0.0,0.0,0.0,0.0,0.0,0.0,0.0,0.0,0.0,0.0,0.0,0.0,0.0,0.0,0.0,0.0,0.0,0.0,0.0,0.0,0.0,0.0,0.0,0.0,0.0,0.0,0.0,0.0,0.0,0.0,0.0,0.0,0.0,0.0,0.0,0.0,0.0,0.0,0.0,0.0,0.0,0.0,0.0,0.0,0.0,0.0,0.0,0.0,0.0,0.0,0.0,0.0,0.0,0.0,0.0,0.0,0.0,0.0,0.0,0.0,0.0,0.0,0.0,0.0,0.0,0.0,0.0,-2.6102,-2.8541,-2.9432,-3.0009,-3.0292,0.0,0.0,0.0,0.0,0.0,0.0,0.0,0.0,0.0,0.0,0.0,0.0,0.0,0.0,0.0,0.0,0.0,0.0,0.0,0.0,0.0,0.0,0.0,0.0,0.0,0.0,0.0,0.0,0.0,0.0,0.0,0.0,0.0,0.0,0.0,0.0,0.0,0.0,0.0,0.0,0.0,0.0,0.0,0.0,0.0,0.0,0.0,0.0,0.0,0.0,0.0,0.0,0.0,0.0,0.0,0.0,0.0,0.0,0.0,0.0,0.0,0.0,0.0,0.0,0.0,0.0,0.0,0.0,0.0,0.0,0.0,0.0,0.0,0.0,0.0,0.0,0.0,0.0,0.0,0.0,0.0,0.0,0.0,0.0,0.0,0.0,0.0,0.0,0.0,0.0,0.0,0.0,0.0,0.0,0.0,0.0,0.0,0.0,0.0,0.0,0.0,0.0,0.0,0.0,0.0,0.0,0.0,0.0,0.0,0.0,0.0,0.0,-3.1669,-3.2047,-3.2065,0.0,0.0,0.0,0.0,0.0,0.0,0.0,0.0,0.0,0.0,0.0,0.0,0.0,0.0,0.0,0.0,0.0,0.0,0.0,0.0,0.0,0.0,0.0,0.0,0.0,0.0,0.0,0.0,0.0,0.0,0.0,0.0,0.0,0.0,0.0,0.0,0.0,0.0,0.0,0.0,0.0,0.0,0.0,0.0,0.0,0.0,0.0,0.0,0.0,0.0,0.0,0.0,0.0,0.0,0.0,0.0,0.0,0.0,0.0,0.0,0.0,0.0,0.0,0.0,0.0,0.0,0.0,0.0,0.0,0.0,0.0,0.0,0.0,0.0,0.0,0.0,0.0,0.0,0.0,0.0,0.0,0.0,0.0,0.0,0.0,0.0,0.0,0.0,0.0,0.0,0.0,0.0,0.0,0.0,0.0,0.0,0.0,0.0,0.0,0.0,0.0,0.0,0.0,0.0,0.0,0.0,0.0,0.0,0.0,0.0,-2.9537,-3.343,-3.4697,0.0,-3.3652,0.0,0.0,0.0,0.0,0.0,0.0,0.0,0.0,0.0,0.0,0.0,0.0,0.0,0.0,0.0,0.0,0.0,0.0,0.0,0.0,0.0,0.0,0.0,0.0,0.0,0.0,0.0,0.0,0.0,0.0,0.0,0.0,0.0,0.0,0.0,0.0,0.0,0.0,0.0,0.0,0.0,0.0,0.0,0.0,0.0,0.0,0.0,0.0,0.0,0.0,0.0,0.0,0.0,0.0,0.0,0.0,0.0,0.0,0.0,0.0,0.0,0.0,0.0,0.0,0.0,0.0,0.0,0.0,0.0,0.0,0.0,0.0,0.0,0.0,0.0,0.0,0.0,0.0,0.0,0.0,0.0,0.0,0.0,0.0,0.0,0.0,0.0,0.0,0.0,0.0,0.0,0.0,0.0,0.0,0.0,0.0,0.0,0.0,0.0,0.0,0.0,0.0,0.0,0.0,0.0,0.0,0.0,0.0,0.0,0.0,-3.2211,-3.5828,-3.5781,-3.4873,0.0,0.0,0.0,0.0,0.0,0.0,0.0,0.0,0.0,0.0,0.0,0.0,0.0,0.0,0.0,0.0,0.0,0.0,0.0,0.0,0.0,0.0,0.0,0.0,0.0,0.0,0.0,0.0,0.0,0.0,0.0,0.0,0.0,0.0,0.0,0.0,0.0,0.0,0.0,0.0,0.0,0.0,0.0,0.0,0.0,0.0,0.0,0.0,0.0,0.0,0.0,0.0,0.0,0.0,0.0,0.0,0.0,0.0,0.0,0.0,0.0,0.0,0.0,0.0,0.0,0.0,0.0,0.0,0.0,0.0,0.0,0.0,0.0,0.0,0.0,0.0,0.0,0.0,0.0,0.0,0.0,0.0,0.0,0.0,0.0,0.0,0.0,0.0,0.0,0.0,0.0,0.0,0.0,0.0,0.0,0.0,0.0,0.0,0.0,0.0,0.0,0.0,0.0,0.0,0.0,0.0,0.0,0.0,0.0,0.0,-3.1755,-3.4263,-3.7234,-3.6179,-3.4779,-3.3381,0.0,0.0,0.0,0.0,0.0,0.0,0.0,0.0,0.0,0.0,0.0,0.0,0.0,0.0,0.0,0.0,0.0,0.0,0.0,0.0,0.0,0.0,0.0,0.0,0.0,0.0,0.0,0.0,0.0,0.0,0.0,0.0,0.0,0.0,0.0,0.0,0.0,0.0,0.0,0.0,0.0,0.0,0.0,0.0,0.0,0.0,0.0,0.0,0.0,0.0,0.0,0.0,0.0,0.0,0.0,0.0,0.0,0.0,0.0,0.0,0.0,0.0,0.0,0.0,0.0,0.0,0.0,0.0,0.0,0.0,0.0,0.0,0.0,0.0,0.0,0.0,0.0,0.0,0.0,0.0,0.0,0.0,0.0,0.0,0.0,0.0,0.0,0.0,0.0,0.0,0.0,0.0,0.0,0.0,0.0,0.0,0.0,0.0,0.0,0.0,0.0,0.0,0.0,0.0,0.0,0.0,0.0,0.0,-3.4325,-3.4171,-3.5206,-3.7951,-3.617,-3.5056,0.0,0.0,0.0,0.0,0.0,0.0,0.0,0.0,0.0,0.0,0.0,0.0,0.0,0.0,0.0,0.0,0.0,0.0,0.0,0.0,0.0,0.0,0.0,0.0,0.0,0.0,0.0,0.0,0.0,0.0,0.0,0.0,0.0,0.0,0.0,0.0,0.0,0.0,0.0,0.0,0.0,0.0,0.0,0.0,0.0,0.0,0.0,0.0,0.0,0.0,0.0,0.0,0.0,0.0,0.0,0.0,0.0,0.0,0.0,0.0,0.0,0.0,0.0,0.0,0.0,0.0,0.0,0.0,0.0,0.0,0.0,0.0,0.0,0.0,0.0,0.0,0.0,0.0,0.0,0.0,0.0,0.0,0.0,0.0,0.0,0.0,0.0,0.0,0.0,0.0,0.0,0.0,0.0,0.0,0.0,0.0,0.0,0.0,0.0,0.0,0.0,0.0,0.0,0.0,0.0,0.0,0.0,0.0,0.0,-3.3856,-3.58,-3.7685,-3.9503,-3.6768,-3.5102,0.0,0.0,0.0,0.0,0.0,0.0,0.0,0.0,0.0,0.0,0.0,0.0,0.0,0.0,0.0,0.0,0.0,0.0,0.0,0.0,0.0,0.0,0.0,0.0,0.0,0.0,0.0,0.0,0.0,0.0,0.0,0.0,0.0,0.0,0.0,0.0,0.0,0.0,0.0,0.0,0.0,0.0,0.0,0.0,0.0,0.0,0.0,0.0,0.0,0.0,0.0,0.0,0.0,0.0,0.0,0.0,0.0,0.0,0.0,0.0,0.0,0.0,0.0,0.0,0.0,0.0,0.0,0.0,0.0,0.0,0.0,0.0,0.0,0.0,0.0,0.0,0.0,0.0,0.0,0.0,0.0,0.0,0.0,0.0,0.0,0.0,0.0,0.0,0.0,0.0,0.0,0.0,0.0,0.0,0.0,0.0,0.0,0.0,0.0,0.0,0.0,0.0,0.0,0.0,0.0,0.0,0.0,0.0,0.0,-3.5415,0.0,-3.9548,-3.9352,-3.7276,-3.5477,0.0,0.0,0.0,0.0,0.0,0.0,0.0,0.0,0.0,0.0,0.0,0.0,0.0,0.0,0.0,0.0,0.0,0.0,0.0,0.0,0.0,0.0,0.0,0.0,0.0,0.0,0.0,0.0,0.0,0.0,0.0,0.0,0.0,0.0,0.0,0.0,0.0,0.0,0.0,0.0,0.0,0.0,0.0,0.0,0.0,0.0,0.0,0.0,0.0,0.0,0.0,0.0,0.0,0.0,0.0,0.0,0.0,0.0,0.0,0.0,0.0,0.0,0.0,0.0,0.0,0.0,0.0,0.0,0.0,0.0,0.0,0.0,0.0,0.0,0.0,0.0,0.0,0.0,0.0,0.0,0.0,0.0,0.0,0.0,0.0,0.0,0.0,0.0,0.0,0.0,0.0,0.0,0.0,0.0,0.0,0.0,0.0,0.0,0.0,0.0,0.0,0.0,0.0,0.0,0.0,0.0,0.0,0.0,-3.3219,-3.9455,-4.1306,-4.0646,-3.7273,-3.7617,-3.6163,0.0,0.0,0.0,0.0,0.0,0.0,0.0,0.0,0.0,0.0,0.0,0.0,0.0,0.0,0.0,0.0,0.0,0.0,0.0,0.0,0.0,0.0,0.0,0.0,0.0,0.0,0.0,0.0,0.0,0.0,0.0,0.0,0.0,0.0,0.0,0.0,0.0,0.0,0.0,0.0,0.0,0.0,0.0,0.0,0.0,0.0,0.0,0.0,0.0,0.0,0.0,0.0,0.0,0.0,0.0,0.0,0.0,0.0,0.0,0.0,0.0,0.0,0.0,0.0,0.0,0.0,0.0,0.0,0.0,0.0,0.0,0.0,0.0,0.0,0.0,0.0,0.0,0.0,0.0,0.0,0.0,0.0,0.0,0.0,0.0,0.0,0.0,0.0,0.0,0.0,0.0,0.0,0.0,0.0,0.0,0.0,0.0,0.0,0.0,0.0,0.0,0.0,0.0,0.0,0.0,0.0,0.0,0.0,0.0,-3.9793,-4.1383,-4.1974,-4.1347,-3.8497,-3.6956,0.0,0.0,0.0,0.0,0.0,0.0,0.0,0.0,0.0,0.0,0.0,0.0,0.0,0.0,0.0,0.0,0.0,0.0,0.0,0.0,0.0,0.0,0.0,0.0,0.0,0.0,0.0,0.0,0.0,0.0,0.0,0.0,0.0,0.0,0.0,0.0,0.0,0.0,0.0,0.0,0.0,0.0,0.0,0.0,0.0,0.0,0.0,0.0,0.0,0.0,0.0,0.0,0.0,0.0,0.0,0.0,0.0,0.0,0.0,0.0,0.0,0.0,0.0,0.0,0.0,0.0,0.0,0.0,0.0,0.0,0.0,0.0,0.0,0.0,0.0,0.0,0.0,0.0,0.0,0.0,0.0,0.0,0.0,0.0,0.0,0.0,0.0,0.0,0.0,0.0,0.0,0.0,0.0,0.0,0.0,0.0,0.0,0.0,0.0,0.0,0.0,0.0,0.0,0.0,0.0,0.0,0.0,0.0,0.0,-4.1808,-4.3583,-4.4379,-4.3857,-4.094,-3.8931,-3.7952,0.0,0.0,0.0,0.0,0.0,0.0,0.0,0.0,0.0,0.0,0.0,0.0,0.0,0.0,0.0,0.0,0.0,0.0,0.0,0.0,0.0,0.0,0.0,0.0,0.0,0.0,0.0,0.0,0.0,0.0,0.0,0.0,0.0,0.0,0.0,0.0,0.0,0.0,0.0,0.0,0.0,0.0,0.0,0.0,0.0,0.0,0.0,0.0,0.0,0.0,0.0,0.0,0.0,0.0,0.0,0.0,0.0,0.0,0.0,0.0,0.0,0.0,0.0,0.0,0.0,0.0,0.0,0.0,0.0,0.0,0.0,0.0,0.0,0.0,0.0,0.0,0.0,0.0,0.0,0.0,0.0,0.0,0.0,0.0,0.0,0.0,0.0,0.0,0.0,0.0,0.0,0.0,0.0,0.0,0.0,0.0,0.0,0.0,0.0,0.0,0.0,0.0,0.0,0.0,0.0,0.0,0.0,0.0,-4.4835,-4.7392,-4.7435,-4.4918,-4.4353,-4.1797,0.0,0.0,0.0,0.0,0.0,0.0,0.0,0.0,0.0,0.0,0.0,0.0,0.0,0.0,0.0,0.0,0.0,0.0,0.0,0.0,0.0,0.0,0.0,0.0,0.0,0.0,0.0,0.0,0.0,0.0,0.0,0.0,0.0,0.0,0.0,0.0,0.0,0.0,0.0,0.0,0.0,0.0,0.0,0.0,0.0,0.0,0.0,0.0,0.0,0.0,0.0,0.0,0.0,0.0,0.0,0.0,0.0,0.0,0.0,0.0,0.0,0.0,0.0,0.0,0.0,0.0,0.0,0.0,0.0,0.0,0.0,0.0,0.0,0.0,0.0,0.0,0.0,0.0,0.0,0.0,0.0,0.0,0.0,0.0,0.0,0.0,0.0,0.0,0.0,0.0,0.0,0.0,0.0,0.0,0.0,0.0,0.0,0.0,0.0,0.0,0.0,0.0,0.0,0.0,0.0,0.0,0.0,0.0,0.0,-4.6343,-4.8193,-4.8518,-4.7198,-4.5164,-4.3053,0.0,0.0,0.0,0.0,0.0,0.0,0.0,0.0,0.0,0.0,0.0,0.0,0.0,0.0,0.0,0.0,0.0,0.0,0.0,0.0,0.0,0.0,0.0,0.0,0.0,0.0,0.0,0.0,0.0,0.0,0.0,0.0,0.0,0.0,0.0,0.0,0.0,0.0,0.0,0.0,0.0,0.0,0.0,0.0,0.0,0.0,0.0,0.0,0.0,0.0,0.0,0.0,0.0,0.0,0.0,0.0,0.0,0.0,0.0,0.0,0.0,0.0,0.0,0.0,0.0,0.0,0.0,0.0,0.0,0.0,0.0,0.0,0.0,0.0,0.0,0.0,0.0,0.0,0.0,0.0,0.0,0.0,0.0,0.0,0.0,0.0,0.0,0.0,0.0,0.0,0.0,0.0,0.0,0.0,0.0,0.0,0.0,0.0,0.0,0.0,0.0,0.0,0.0,0.0,0.0,0.0,0.0,0.0,-4.4819,-4.6302,-4.856,-4.9324,-4.845,-4.6177,-4.4032,0.0,0.0,0.0,0.0,0.0,0.0,0.0,0.0,0.0,0.0,0.0,0.0,0.0,0.0,0.0,0.0,0.0,0.0,0.0,0.0,0.0,0.0,0.0,0.0,0.0,0.0,0.0,0.0,0.0,0.0,0.0,0.0,0.0,0.0,0.0,0.0,0.0,0.0,0.0,0.0,0.0,0.0,0.0,0.0,0.0,0.0,0.0,0.0,0.0,0.0,0.0,0.0,0.0,0.0,0.0,0.0,0.0,0.0,0.0,0.0,0.0,0.0,0.0,0.0,0.0,0.0,0.0,0.0,0.0,0.0,0.0,0.0,0.0,0.0,0.0,0.0,0.0,0.0,0.0,0.0,0.0,0.0,0.0,0.0,0.0,0.0,0.0,0.0,0.0,0.0,0.0,0.0,0.0,0.0,0.0,0.0,0.0,0.0,0.0,0.0,0.0,0.0,0.0,0.0,0.0,0.0,0.0,0.0,-4.4455,-4.557,-4.851,-4.9733,-4.8958,-4.7142,-4.4659,0.0,0.0,0.0,0.0,0.0,0.0,0.0,0.0,0.0,0.0,0.0,0.0,0.0,0.0,0.0,0.0,0.0,0.0,0.0,0.0,0.0,0.0,0.0,0.0,0.0,0.0,0.0,0.0,0.0,0.0,0.0,0.0,0.0,0.0,0.0,0.0,0.0,0.0,0.0,0.0,0.0,0.0,0.0,0.0,0.0,0.0,0.0,0.0,0.0,0.0,0.0,0.0,0.0,0.0,0.0,0.0,0.0,0.0,0.0,0.0,0.0,0.0,0.0,0.0,0.0,0.0,0.0,0.0,0.0,0.0,0.0,0.0,0.0,0.0,0.0,0.0,0.0,0.0,0.0,0.0,0.0,0.0,0.0,0.0,0.0,0.0,0.0,0.0,0.0,0.0,0.0,0.0,0.0,0.0,0.0,0.0,0.0,0.0,0.0,0.0,0.0,0.0,0.0,0.0,0.0,0.0,0.0,0.0,-4.3822,-4.5927,-4.7281,-4.8429,-4.9419,-4.6677,-4.4291,0.0,0.0,0.0,0.0,0.0,0.0,0.0,0.0,0.0,0.0,0.0,0.0,0.0,0.0,0.0,0.0,0.0,0.0,0.0,0.0,0.0,0.0,0.0,0.0,0.0,0.0,0.0,0.0,0.0,0.0,0.0,0.0,0.0,0.0,0.0,0.0,0.0,0.0,0.0,0.0,0.0,0.0,0.0,0.0,0.0,0.0,0.0,0.0,-3.3561,0.0,0.0,0.0,0.0,0.0,0.0,0.0,0.0,0.0,0.0,0.0,0.0,0.0,0.0,0.0,0.0,0.0,0.0,0.0,0.0,0.0,0.0,0.0,0.0,0.0,0.0,0.0,0.0,0.0,0.0,0.0,0.0,0.0,0.0,0.0,0.0,0.0,0.0,0.0,0.0,0.0,0.0,0.0,0.0,0.0,0.0,0.0,0.0,0.0,0.0,0.0,0.0,0.0,0.0,0.0,0.0,0.0,0.0,0.0,-4.322,-4.5425,-4.7009,-4.8224,-4.8893,-4.6213,-4.4078,0.0,0.0,0.0,0.0,0.0,0.0,0.0,0.0,0.0,0.0,0.0,0.0,0.0,0.0,0.0,0.0,0.0,0.0,0.0,0.0,0.0,0.0,0.0,0.0,0.0,0.0,0.0,0.0,0.0,0.0,0.0,0.0,0.0,0.0,0.0,0.0,0.0,0.0,0.0,0.0,0.0,0.0,0.0,0.0,0.0,0.0,0.0,0.0,0.0,0.0,0.0,0.0,0.0,0.0,0.0,0.0,0.0,0.0,0.0,0.0,0.0,0.0,0.0,0.0,0.0,0.0,0.0,0.0,0.0,0.0,0.0,0.0,0.0,0.0,0.0,0.0,0.0,0.0,0.0,0.0,0.0,0.0,0.0,0.0,0.0,0.0,0.0,0.0,0.0,0.0,0.0,0.0,0.0,0.0,0.0,0.0,0.0,0.0,0.0,0.0,0.0,0.0,0.0,0.0,0.0,0.0,0.0,-4.1082,-4.2957,-4.5099,-4.713,-4.8297,-4.8455,-4.6024,-4.4136,-4.2987,0.0,0.0,0.0,0.0,0.0,0.0,0.0,0.0,0.0,0.0,0.0,0.0,0.0,0.0,0.0,0.0,0.0,0.0,0.0,0.0,0.0,0.0,0.0,0.0,0.0,0.0,0.0,0.0,0.0,0.0,0.0,0.0,0.0,0.0,0.0,0.0,0.0,0.0,-2.5008,-2.7751,0.0,0.0,0.0,0.0,0.0,0.0,0.0,0.0,-3.3162,0.0,0.0,0.0,0.0,0.0,0.0,0.0,0.0,0.0,0.0,0.0,0.0,0.0,0.0,0.0,0.0,0.0,0.0,0.0,0.0,0.0,0.0,0.0,0.0,0.0,0.0,0.0,0.0,0.0,0.0,0.0,0.0,0.0,0.0,0.0,0.0,0.0,0.0,0.0,0.0,0.0,0.0,0.0,0.0,0.0,0.0,0.0,0.0,0.0,0.0,0.0,0.0,0.0,0.0,0.0,0.0,-4.0402,-4.1427,-4.3446,-4.6561,-4.7014,-4.7755,-4.8775,-4.6915,-4.4843,-4.2742,0.0,0.0,0.0,0.0,0.0,0.0,0.0,0.0,0.0,0.0,0.0,0.0,0.0,0.0,0.0,0.0,0.0,0.0,0.0,0.0,0.0,0.0,0.0,0.0,0.0,0.0,0.0,0.0,0.0,0.0,0.0,0.0,0.0,0.0,0.0,0.0,0.0,0.0,0.0,-2.8062,-2.9526,0.0,0.0,0.0,0.0,0.0,0.0,0.0,0.0,-3.4177,0.0,0.0,0.0,0.0,0.0,0.0,0.0,0.0,0.0,0.0,0.0,0.0,0.0,0.0,0.0,0.0,0.0,0.0,0.0,0.0,0.0,0.0,0.0,0.0,0.0,0.0,0.0,0.0,0.0,0.0,0.0,0.0,0.0,0.0,0.0,0.0,0.0,0.0,0.0,0.0,0.0,0.0,0.0,0.0,0.0,0.0,0.0,0.0,0.0,0.0,0.0,0.0,0.0,0.0,0.0,-4.0792,-4.2179,-4.4245,-4.708,-4.7565,-4.7888,-4.8037,-4.6184,-4.4154,0.0,0.0,0.0,0.0,0.0,0.0,0.0,0.0,0.0,0.0,0.0,0.0,0.0,0.0,0.0,0.0,0.0,0.0,0.0,0.0,0.0,0.0,0.0,0.0,0.0,0.0,0.0,0.0,0.0,0.0,0.0,0.0,0.0,0.0,0.0,0.0,0.0,0.0,0.0,0.0,-2.8922,-3.0408,-3.1379,0.0,0.0,0.0,0.0,0.0,0.0,-3.3893,-3.4289,0.0,0.0,0.0,0.0,0.0,0.0,0.0,0.0,0.0,0.0,0.0,0.0,0.0,0.0,0.0,0.0,0.0,0.0,0.0,0.0,0.0,0.0,0.0,0.0,0.0,0.0,0.0,0.0,0.0,0.0,0.0,0.0,0.0,0.0,0.0,0.0,0.0,0.0,0.0,0.0,0.0,0.0,0.0,0.0,0.0,0.0,0.0,0.0,0.0,0.0,0.0,0.0,0.0,0.0,0.0,-4.0847,-4.2589,-4.467,-4.7172,-4.7838,-4.7743,-4.6922,-4.5141,-4.3119,0.0,0.0,0.0,0.0,0.0,0.0,0.0,0.0,0.0,0.0,0.0,0.0,0.0,0.0,0.0,0.0,0.0,0.0,0.0,0.0,0.0,0.0,0.0,0.0,0.0,0.0,0.0,0.0,0.0,0.0,0.0,0.0,0.0,0.0,0.0,0.0,0.0,0.0,0.0,0.0,0.0,-3.1668,-3.2175,-3.3056,0.0,0.0,0.0,0.0,-3.4057,-3.4785,0.0,0.0,0.0,0.0,0.0,0.0,0.0,0.0,0.0,0.0,0.0,0.0,0.0,0.0,0.0,0.0,0.0,0.0,0.0,0.0,0.0,0.0,0.0,0.0,0.0,0.0,0.0,0.0,0.0,0.0,0.0,0.0,0.0,0.0,0.0,0.0,0.0,0.0,0.0,0.0,0.0,0.0,0.0,0.0,0.0,0.0,0.0,0.0,0.0,0.0,0.0,0.0,0.0,0.0,0.0,0.0,-4.013,-4.1758,-4.3943,-4.6725,-4.6844,-4.6552,-4.5944,-4.4633,-4.2473,0.0,0.0,0.0,0.0,0.0,0.0,0.0,0.0,0.0,0.0,0.0,0.0,0.0,0.0,0.0,0.0,0.0,0.0,0.0,0.0,0.0,0.0,0.0,0.0,0.0,0.0,0.0,0.0,0.0,0.0,0.0,0.0,0.0,0.0,0.0,0.0,0.0,0.0,0.0,0.0,0.0,-3.275,-3.2715,-3.4684,-3.5544,0.0,0.0,-3.7307,-3.6606,-3.7754,0.0,0.0,0.0,0.0,0.0,0.0,0.0,0.0,0.0,0.0,0.0,0.0,0.0,0.0,0.0,0.0,0.0,0.0,0.0,0.0,0.0,0.0,0.0,0.0,0.0,0.0,0.0,0.0,0.0,0.0,0.0,0.0,0.0,0.0,0.0,0.0,0.0,0.0,0.0,0.0,0.0,0.0,0.0,0.0,0.0,0.0,0.0,0.0,0.0,0.0,0.0,0.0,0.0,0.0,0.0,-3.734,-3.9519,-4.1225,-4.3285,-4.5662,-4.5153,-4.4623,-4.4265,-4.2244,-4.0093,0.0,0.0,0.0,0.0,0.0,0.0,0.0,0.0,0.0,0.0,0.0,0.0,0.0,0.0,0.0,0.0,0.0,0.0,0.0,0.0,0.0,0.0,0.0,0.0,0.0,0.0,0.0,0.0,0.0,0.0,0.0,0.0,0.0,0.0,0.0,0.0,0.0,0.0,0.0,0.0,0.0,0.0,-3.4529,-3.654,0.0,0.0,0.0,-3.8127,-3.7077,0.0,0.0,0.0,0.0,0.0,0.0,0.0,0.0,0.0,0.0,0.0,0.0,0.0,0.0,0.0,0.0,0.0,0.0,0.0,0.0,0.0,0.0,0.0,0.0,0.0,0.0,0.0,0.0,0.0,0.0,0.0,0.0,0.0,0.0,0.0,0.0,0.0,0.0,0.0,0.0,0.0,0.0,0.0,0.0,0.0,0.0,0.0,0.0,0.0,0.0,0.0,0.0,0.0,0.0,0.0,0.0,0.0,-3.9074,-4.0805,-4.2564,-4.4373,-4.3757,-4.3172,-4.2715,-4.0583,0.0,0.0,0.0,0.0,0.0,0.0,0.0,0.0,0.0,0.0,0.0,0.0,0.0,0.0,0.0,0.0,0.0,0.0,0.0,0.0,0.0,0.0,0.0,0.0,0.0,0.0,0.0,-2.5708,0.0,0.0,0.0,0.0,0.0,0.0,0.0,0.0,0.0,0.0,0.0,0.0,0.0,0.0,-3.4432,-3.5895,-3.7796,-3.8625,0.0,0.0,-3.8806,-3.7625,-3.7679,-3.7137,0.0,0.0,0.0,0.0,0.0,0.0,0.0,0.0,0.0,0.0,0.0,0.0,0.0,0.0,0.0,0.0,0.0,0.0,0.0,0.0,0.0,0.0,0.0,0.0,0.0,0.0,0.0,0.0,0.0,0.0,0.0,0.0,0.0,0.0,0.0,0.0,0.0,0.0,0.0,0.0,0.0,0.0,0.0,0.0,0.0,0.0,0.0,0.0,0.0,0.0,0.0,0.0,0.0,0.0,0.0,-3.9082,-4.0587,-4.1848,-4.3003,-4.3146,-4.2755,-4.182,-4.1076,-3.9736,0.0,0.0,0.0,0.0,0.0,0.0,0.0,0.0,0.0,0.0,0.0,0.0,0.0,0.0,0.0,0.0,0.0,0.0,0.0,0.0,0.0,0.0,0.0,0.0,0.0,0.0,0.0,0.0,0.0,0.0,0.0,0.0,0.0,0.0,0.0,0.0,0.0,0.0,0.0,0.0,0.0,-3.5648,-3.606,-3.7952,-3.9075,0.0,0.0,-3.9955,-3.9003,-4.0335,-4.0083,-3.5742,0.0,0.0,0.0,0.0,0.0,0.0,0.0,0.0,0.0,0.0,0.0,0.0,0.0,0.0,0.0,0.0,0.0,0.0,0.0,0.0,0.0,0.0,0.0,0.0,0.0,0.0,0.0,0.0,0.0,0.0,0.0,0.0,0.0,0.0,0.0,0.0,0.0,0.0,0.0,0.0,0.0,0.0,0.0,0.0,0.0,0.0,0.0,0.0,0.0,0.0,0.0,0.0,0.0,-3.6201,-3.7381,-3.8829,-4.0151,-4.1317,-4.1205,-4.1101,-4.1096,-3.9382,-3.8106,0.0,0.0,0.0,0.0,0.0,0.0,0.0,0.0,0.0,0.0,0.0,0.0,0.0,0.0,0.0,0.0,0.0,0.0,0.0,0.0,0.0,0.0,0.0,0.0,0.0,0.0,0.0,0.0,-2.9667,-3.0398,-3.0631,0.0,0.0,0.0,0.0,0.0,0.0,0.0,0.0,0.0,0.0,-3.4513,-3.6573,-3.7732,0.0,0.0,-3.8847,-3.879,-3.8689,-3.8122,-3.693,-3.4667,-3.2959,0.0,0.0,0.0,0.0,0.0,0.0,0.0,0.0,0.0,0.0,0.0,0.0,0.0,0.0,0.0,0.0,0.0,0.0,0.0,0.0,0.0,0.0,0.0,0.0,0.0,0.0,0.0,0.0,0.0,0.0,0.0,0.0,0.0,0.0,0.0,0.0,0.0,0.0,0.0,0.0,0.0,0.0,0.0,0.0,0.0,0.0,0.0,0.0,0.0,0.0,0.0,0.0,-3.5654,-3.6583,-3.7839,-3.903,-4.0104,-3.9909,-3.9941,-4.0244,-3.8394,-3.7342,0.0,0.0,0.0,0.0,0.0,0.0,0.0,0.0,0.0,0.0,0.0,0.0,0.0,0.0,0.0,0.0,0.0,0.0,0.0,0.0,0.0,0.0,0.0,0.0,0.0,0.0,0.0,0.0,-3.0411,-3.0624,-3.0378,0.0,0.0,0.0,0.0,0.0,0.0,0.0,0.0,0.0,0.0,-3.442,-3.6729,-3.7557,-3.8154,-3.8906,-3.8254,-3.792,-3.8476,-3.6979,-3.5298,-3.379,0.0,0.0,0.0,0.0,0.0,0.0,0.0,0.0,0.0,0.0,0.0,0.0,0.0,0.0,0.0,0.0,0.0,0.0,0.0,0.0,0.0,0.0,0.0,0.0,0.0,0.0,0.0,0.0,0.0,0.0,-3.6722,0.0,0.0,0.0,0.0,0.0,0.0,0.0,0.0,0.0,0.0,0.0,0.0,0.0,0.0,0.0,0.0,0.0,0.0,0.0,0.0,0.0,0.0,-3.6011,-3.7157,-3.8021,-3.8785,-3.9401,-3.9616,-3.9606,-3.9395,-3.8574,-3.8007,-3.7729,0.0,0.0,0.0,0.0,0.0,0.0,0.0,0.0,0.0,0.0,0.0,0.0,0.0,0.0,0.0,0.0,0.0,0.0,0.0,0.0,0.0,0.0,0.0,0.0,0.0,0.0,-3.2711,-3.2081,-3.1006,0.0,0.0,0.0,0.0,0.0,0.0,0.0,0.0,0.0,0.0,-3.4952,-3.5996,-3.6461,-3.7484,-3.8174,-3.8308,-3.7816,-3.7681,-3.852,-3.786,-3.6332,0.0,0.0,0.0,0.0,0.0,0.0,0.0,0.0,0.0,0.0,0.0,0.0,0.0,0.0,0.0,0.0,0.0,0.0,0.0,0.0,0.0,0.0,0.0,0.0,0.0,0.0,0.0,-4.0029,-3.9832,0.0,0.0,0.0,0.0,0.0,0.0,0.0,0.0,0.0,0.0,0.0,-3.6715,-3.6265,0.0,0.0,0.0,0.0,0.0,0.0,0.0,0.0,0.0,0.0,0.0,0.0,-3.5148,-3.692,-3.7391,-3.7991,-3.864,-3.9002,-3.8996,-3.8585,-3.796,-3.706,-3.5891,0.0,0.0,0.0,0.0,0.0,0.0,0.0,0.0,0.0,0.0,0.0,0.0,0.0,0.0,0.0,0.0,0.0,0.0,0.0,0.0,0.0,0.0,0.0,0.0,0.0,-3.2398,0.0,0.0,0.0,0.0,0.0,0.0,0.0,0.0,0.0,0.0,0.0,-3.1974,-3.3262,-3.4114,-3.4954,-3.5787,-3.639,-3.6899,0.0,0.0,0.0,0.0,0.0,0.0,0.0,0.0,0.0,0.0,0.0,0.0,0.0,0.0,-3.6786,-3.477,-3.4192,-3.3851,-3.3442,0.0,0.0,0.0,0.0,0.0,0.0,0.0,0.0,0.0,0.0,0.0,0.0,0.0,0.0,-4.0578,0.0,-3.9563,0.0,0.0,0.0,0.0,0.0,0.0,0.0,0.0,-3.6854,-3.759,-3.8225,-3.776,-3.7578,0.0,-3.6898,-3.5394,0.0,0.0,0.0,0.0,0.0,0.0,0.0,0.0,-3.4879,-3.6415,-3.703,-3.7691,-3.8347,-3.8407,-3.8219,-3.7795,-3.7001,-3.5801,-3.4348,-3.4014,-3.3553,0.0,0.0,0.0,0.0,0.0,0.0,0.0,0.0,0.0,0.0,0.0,0.0,0.0,0.0,0.0,0.0,0.0,0.0,0.0,0.0,0.0,0.0,0.0,-3.3357,0.0,0.0,0.0,0.0,0.0,0.0,0.0,0.0,0.0,-3.214,-3.2131,-3.2565,-3.3777,-3.4384,-3.4945,-3.5601,0.0,0.0,0.0,0.0,0.0,0.0,0.0,-3.5758,-3.4786,-3.409,-3.3382,-3.2532,-3.3851,-3.5404,-3.6486,0.0,0.0,-3.6677,-3.6106,-3.5583,-3.4367,-3.2936,-3.1769,-3.117,-2.9681,-2.8574,0.0,0.0,0.0,0.0,0.0,0.0,0.0,0.0,-4.0082,-4.0463,0.0,-4.0267,0.0,0.0,0.0,0.0,0.0,-3.9985,0.0,0.0,-4.0307,-4.0822,-3.9607,-3.9257,-3.8616,-3.7715,-3.7562,-3.6669,-3.5041,-3.3359,0.0,0.0,0.0,0.0,0.0,0.0,-3.5223,-3.5805,-3.6903,-3.7843,-3.8498,-3.7848,-3.7294,-3.7041,-3.58,-3.4542,-3.3326,-3.3888,-3.3776,-3.2816,-3.3665,0.0,0.0,0.0,0.0,0.0,0.0,0.0,0.0,0.0,0.0,0.0,0.0,0.0,0.0,0.0,0.0,0.0,0.0,0.0,0.0,-3.3698,0.0,0.0,0.0,0.0,0.0,0.0,0.0,0.0,0.0,0.0,-3.1989,-3.3067,-3.429,-3.4964,0.0,0.0,0.0,0.0,-3.673,-3.7488,-3.7,-3.7047,-3.8567,-3.8146,-3.7211,-3.5964,0.0,0.0,-3.3303,-3.3959,-3.5313,-3.7039,-3.8078,-3.8514,-3.7978,-3.7155,-3.6288,-3.5341,-3.395,-3.25,-3.1121,-3.0719,-3.0303,-4.4949,0.0,0.0,0.0,0.0,-4.1219,-4.1106,-4.1214,-4.163,-4.1758,-4.1601,-4.1754,0.0,0.0,0.0,0.0,0.0,0.0,-3.979,-3.9797,-3.9671,-4.0124,-4.0975,-3.9986,-3.9463,-3.9313,-3.8528,-3.7718,-3.6885,-3.522,-3.4397,-3.4417,0.0,0.0,0.0,0.0,-3.5239,-3.6481,-3.6603,-3.6895,-3.7505,-3.6616,-3.6092,-3.6015,-3.5667,-3.5264,-3.4836,-3.4727,-3.4373,-3.3832,-3.3655,0.0,0.0,0.0,0.0,0.0,0.0,0.0,0.0,0.0,0.0,0.0,0.0,0.0,0.0,0.0,0.0,0.0,0.0,0.0,-3.2971,-3.463,-3.5518,0.0,0.0,0.0,0.0,0.0,0.0,0.0,0.0,0.0,-3.5569,-3.4975,-3.4711,0.0,0.0,-3.6233,-3.621,-3.6825,-3.7358,-3.7769,-3.816,0.0,0.0,-3.8126,-3.8035,-3.7528,-3.6514,-3.5434,-3.4467,-3.4543,-3.5286,-3.6752,-3.7711,-3.8207,-3.8028,-3.7805,-3.7105,-3.5883,-3.4571,-3.3568,-3.2969,-3.1765,-3.0834,-4.7369,-4.6082,-4.3868,-4.3039,-4.3114,-4.2754,-4.2491,-4.2318,-4.2508,-4.2576,-4.2447,-4.2455,-4.2195,-4.1741,-4.1687,0.0,0.0,0.0,-4.0412,-4.0683,-4.0086,-4.0376,-4.1239,-4.0407,-3.9728,-3.9376,-3.8959,-3.8296,-3.7253,-3.6616,-3.5994,-3.5486,0.0,0.0,-3.5016,-3.4791,-3.5212,-3.6257,-3.6282,-3.6621,-3.728,-3.6383,-3.5791,-3.5604,-3.529,-3.52,-3.5387,-3.4849,-3.4485,-3.4342,-3.4231,-3.4103,0.0,0.0,0.0,0.0,0.0,0.0,0.0,0.0,0.0,0.0,0.0,-2.4911,-2.5708,0.0,0.0,0.0,-3.0729,-3.2253,-3.402,-3.5187,0.0,0.0,0.0,0.0,0.0,0.0,0.0,-3.6088,-3.7237,-3.7977,-3.7887,-3.7207,-3.6613,-3.6338,-3.6836,-3.7234,-3.7134,0.0,-3.8066,-3.8524,-3.8871,-3.8931,-3.8528,-3.8766,-3.8722,-3.7986,-3.7011,-3.5893,-3.4748,-3.4479,-3.4838,-3.5783,-3.6439,-3.6826,-3.7114,-3.693,-3.6714,-3.6251,-3.5114,-3.4101,-3.3668,-3.2385,-3.1446,-4.9299,-4.897,-4.6288,-4.4778,-4.4302,-4.4694,-4.4024,-4.2769,-4.2953,-4.3034,-4.2975,-4.2613,-4.2747,-4.3107,-4.2493,0.0,-4.143,-4.1725,-4.1565,-4.0972,-4.1338,-4.1312,-4.1014,-4.0541,-3.9672,-3.8526,-3.9079,-3.8477,-3.689,-3.7514,-3.7382,-3.6404,-3.5048,-3.4369,-3.4338,-3.4898,-3.5264,-3.5469,-3.6047,-3.6665,-3.7357,-3.679,-3.6204,-3.562,-3.4902,-3.4697,-3.5155,-3.4462,-3.4172,-3.4394,-3.5102,-3.5011,-3.3973,0.0,0.0,0.0,0.0,0.0,0.0,0.0,0.0,0.0,0.0,0.0,0.0,0.0,0.0,0.0,-3.2426,0.0,-3.4886,-3.5463,0.0,0.0,0.0,-3.695,-3.7283,-3.7852,-3.8366,-3.8622,0.0,0.0,-3.9141,-3.9442,-3.9307,-3.8201,-3.8398,-3.8603,-3.8392,-3.834,-3.8689,-3.9484,-3.9238,-3.9102,-3.9481,-3.9583,-3.8978,-3.7486,-3.696,-3.5911,-3.4358,-3.379,-3.391,-3.4314,-3.4536,-3.4869,-3.5597,-3.5259,-3.5126,-3.631,-3.5332,-3.4044,-3.3333,-3.2687,-3.1982,-4.9015,-4.8431,-4.7019,-4.6367,-4.6116,-4.4945,-4.4203,-4.3895,-4.3412,-4.3233,-4.3231,-4.3125,-4.3626,-4.4519,-4.4479,-4.4321,-4.405,-4.3575,-4.3012,-4.2422,-4.2287,-4.1812,-4.1005,-4.0686,-4.0079,-3.9288,-3.9194,-3.8886,-3.8258,-3.7648,-3.7349,-3.726,-3.6353,-3.5659,-3.5211,-3.5554,-3.5769,-3.5868,-3.583,-3.5783,-3.5809,-3.6359,-3.6315,-3.5592,-3.5393,-3.5271,-3.5213,-3.4444,-3.4124,-3.4365,-3.4412,-3.4326,-3.3967,-3.3444,0.0,0.0,0.0,0.0,0.0,0.0,0.0,0.0,0.0,-2.7013,-2.7854,0.0,-3.0242,0.0,-3.3281,-3.4462,-3.5284,-3.5689,0.0,0.0,-3.7608,-3.812,-3.8206,-3.9019,-3.975,-4.0052,-4.0244,-4.0414,-4.0691,-4.0826,-4.047,-3.9366,-3.8548,-3.8147,-3.829,-3.8365,-3.8708,-3.9464,-3.971,-3.9775,-3.9633,-3.9322,-3.8298,-3.6114,-3.5486,-3.467,-3.2834,-3.2303,-3.2171,-3.2407,-3.3234,-3.3863,-3.4139,-3.4311,-3.4543,-3.4811,-3.4162,-3.3385,-3.291,-3.2331,-3.1784,-4.9105,-4.8641,-4.7625,-4.7385,-4.7492,-4.5844,-4.5157,-4.5098,-4.434,-4.4063,-4.4147,-4.4251,-4.4665,-4.5284,-4.5372,-4.5248,-4.4944,-4.4007,-4.3312,-4.284,-4.2168,-4.1484,-4.0796,-4.0469,-3.9831,-3.8969,-3.8962,-3.8579,-3.7878,-3.7404,-3.7157,-3.7061,-3.6616,-3.616,-3.5744,-3.5859,-3.616,-3.6503,-3.6516,-3.6498,-3.6446,-3.6673,-3.6512,-3.5956,-3.5626,-3.5335,-3.5213,-3.434,-3.4078,-3.4528,-3.4384,-3.4188,-3.4176,-3.3957,-3.3553,0.0,0.0,0.0,0.0,0.0,0.0,0.0,0.0,0.0,0.0,0.0,-3.1649,-3.3386,-3.4265,-3.5009,-3.5834,-3.6058,-3.6519,-3.7394,-3.8287,-3.8943,-3.9343,-4.0335,-4.1125,-4.143,-4.1234,-4.1095,-4.125,-4.1151,-4.0635,-3.9424,-3.8926,-3.8728,-3.887,-3.905,-3.9348,-4.0056,-4.0023,-3.9788,-3.9374,-3.8893,-3.8057,-3.6467,-3.5799,-3.5115,-3.359,-3.3078,-3.2853,-3.2698,-3.3209,-3.3627,-3.3589,-3.3737,-3.3952,-3.385,-3.3401,-3.2771,-3.2099,-3.1732,-3.1333,-4.9254,-4.9015,-4.8125,-4.8015,-4.8394,-4.7066,-4.6432,-4.6285,-4.5376,-4.5011,-4.5142,-4.5481,-4.5646,-4.5661,-4.5706,-4.557,-4.5181,-4.3979,-4.3233,-4.2879,-4.1796,-4.0992,-4.0448,-4.0161,-3.9473,-3.8518,-3.8764,-3.8237,-3.7029,-3.7134,-3.7036,-3.6619,-3.6468,-3.6313,-3.615,-3.6185,-3.6501,-3.7158,-3.7407,-3.7624,-3.781,-3.7151,-3.6588,-3.6284,-3.5525,-3.5154,-3.5147,-3.4206,-3.4015,-3.4713,-3.4523,-3.4384,-3.4323,-3.4402,-3.4126,0.0,-3.2663,0.0,0.0,0.0,0.0,0.0,0.0,0.0,0.0,-3.1694,-3.2796,-3.4541,-3.4969,-3.5489,-3.6268,-3.6471,-3.6935,-3.7996,-3.8901,-3.976,-4.0516,-4.162,-4.2332,-4.2509,-4.2003,-4.1508,-4.1232,-4.0886,-4.0084,-3.9231,-3.9242,-3.9442,-3.9572,-3.9595,-3.9814,-4.0532,-3.9998,-3.9258,-3.8724,-3.8356,-3.7832,-3.7037,-3.6437,-3.6042,-3.4813,-3.4373,-3.402,-3.3639,-3.3551,-3.3583,-3.3351,-3.3358,-3.3411,-3.342,-3.2994,-3.2372,-3.1648,-3.1361,-3.0849,-4.8963,-4.8209,-4.8353,-4.8283,-4.8089,-4.7952,-4.7578,-4.6958,-4.5929,-4.5196,-4.4798,-4.5552,-4.5886,-4.59,-4.6394,-4.6574,-4.6473,-4.5086,-4.3878,-4.2974,-4.2481,-4.136,-3.9887,-4.0439,-4.027,-3.9487,-3.9486,-3.9196,-3.8491,-3.7817,-3.7592,-3.7676,-3.6857,-3.6584,-3.6962,0.0,0.0,0.0,-3.6945,-3.6972,-3.7006,-3.6666,-3.6249,-3.574,-3.5168,0.0,-3.4853,-3.4047,-3.3889,-3.4428,-3.4432,0.0,0.0,0.0,0.0,0.0,0.0,0.0,0.0,0.0,0.0,0.0,-3.3198,-3.3152,-3.1555,-3.2552,-3.3517,-3.3956,-3.4519,-3.5199,-3.6027,-3.6685,-3.7503,-3.8536,-3.9803,-4.0726,-4.1149,-4.2346,-4.2935,-4.2321,-4.1575,-4.095,-4.0648,-3.9946,-3.945,-3.9398,-3.9287,-3.9218,-3.9284,-3.8965,-3.8843,-3.9093,-3.8955,-3.8449,-3.7844,-3.7548,-3.699,-3.5795,-3.5239,-3.4803,-3.4038,-3.3442,-3.2954,-3.2673,-3.2868,-3.3095,-3.2825,-3.3113,-3.334,-3.3391,-3.2943,-3.2556,-3.2351,-3.1934,-3.1482,-4.9415,0.0,-4.986,-4.9852,0.0,-4.9634,-4.922,-4.8126,-4.6946,-4.6089,-4.5607,-4.6076,-4.6253,-4.6253,-4.6608,-4.6668,-4.6476,-4.5264,-4.4204,-4.3258,-4.2469,-4.139,-4.0018,-4.035,-4.0084,-3.9321,-3.8994,-3.8718,-3.8417,-3.7766,-3.7441,-3.7588,-3.7048,-3.6958,-3.7186,-3.7608,-3.7689,-3.7394,-3.745,-3.728,-3.6988,-3.6594,-3.6095,-3.543,0.0,0.0,0.0,0.0,0.0,0.0,0.0,0.0,0.0,0.0,0.0,-3.538,-3.527,-3.5086,-3.4863,-3.4678,-3.4314,-3.3646,-3.406,-3.3973,-3.3062,-3.3777,-3.4316,-3.448,-3.506,-3.5722,-3.6517,-3.7242,-3.8121,-3.9282,-4.0083,-4.0722,-4.1263,-4.2047,-4.2252,-4.1679,-4.1021,-4.0587,-4.0275,-3.9625,-3.9315,-3.9537,-3.9438,-3.9235,-3.8864,-3.8708,-3.8631,-3.8579,-3.8368,-3.7986,-3.7441,-3.7066,-3.663,-3.5663,-3.5249,-3.4778,-3.412,-3.3518,-3.3078,-3.2791,-3.2825,-3.2704,-3.2326,-3.2548,-3.2715,-3.2427,-3.217,-3.1977,-3.2043,-3.1636,-3.1055,-5.0048,-4.9929,-5.1364,-5.1406,-5.0564,-5.121,-5.07,-4.9284,0.0,0.0,0.0,-4.6594,-4.6565,-4.6462,-4.6476,-4.6358,-4.6121,-4.5064,-4.4284,-4.3704,-4.236,-4.1341,-4.0594,-4.0338,-3.9841,-3.9045,-3.853,-3.8253,-3.814,-3.7701,-3.7475,-3.7475,-3.7387,-3.7374,-3.75,-3.7878,-3.8078,-3.8152,-3.8103,-3.7785,-3.7284,-3.6668,-3.6036,-3.536,-3.5449,-3.5196,-3.4631,-3.4657,-3.4657,-3.4657,-3.4756,-3.4915,-3.5173,-3.6003,-3.6591,-3.681,-3.7146,-3.7097,-3.6648,-3.6517,-3.5971,-3.4804,-3.4403,-3.4283,-3.4535,-3.4702,-3.4917,-3.5118,-3.5582,-3.6199,-3.6992,-3.775,-3.865,-3.9878,-4.0182,-4.0603,-4.1222,-4.1605,-4.1595,-4.0962,-4.066,-4.0349,-3.995,-3.9581,-3.9358,-3.9503,-3.9542,-3.9244,-3.8494,-3.828,-3.8121,-3.7964,-3.7676,-3.7405,-3.6937,-3.6762,-3.6417,-3.5838,-3.5543,-3.5191,-3.4513,-3.3963,-3.3512,-3.2954,-3.2799,-3.254,-3.2055,-3.2119,-3.1988,-3.1526,-3.1373,-3.1286,-3.1344,-3.1037,-3.0472,-5.0256,-5.0502,-5.1103,-5.132,-5.1278,-5.1706,-5.1049,-4.9577,-4.8419,-4.7394,-4.6594,-4.6594,-4.6373,-4.597,-4.603,-4.6105,-4.6076,-4.4727,-4.4149,0.0,-4.2735,-4.1595,-4.0845,-4.0793,-4.0346,-3.9597,-3.9496,-3.9207,-3.8781,-3.8668,-3.8693,-3.8567,-3.814,-3.8128,-3.8592,-3.8479,-3.8472,-3.8706,-3.8224,-3.7876,-3.7555,-3.6756,-3.6211,-3.5919,-3.5423,-3.5245,-3.5329,-3.5612,-3.5765,-3.5702,-3.617,-3.6484,-3.6535,-3.669,-3.6774,-3.6798,-3.6414,-3.6095,-3.583,-3.6355,-3.6538,-3.6064,-3.5527,-3.4851,-3.4117,-3.4497,-3.4816,-3.4905,-3.5256,-3.5624,-3.6468,-3.7713,-3.8823,-3.9644,-4.0532,-4.1169,-4.1274,-4.1731,-4.1645,-4.0671,-4.0732,-4.0404,-3.9625,-3.9717,-3.9697,-3.9401,-3.9347,-3.9128,-3.8166,-3.7257,-3.6767,-3.6655,-3.6444,-3.6114,-3.5929,-3.6121,-3.6177,-3.5895,-3.5577,-3.5124,-3.4267,-3.3829,-3.3332,-3.2514,-3.2571,-3.2504,-3.217,-3.2248,-3.1957,-3.1592,-3.1293,-3.1111,-3.0878,-3.0374,-2.9986,-5.1035,-5.1637,-5.2709,-5.2875,-5.2439,-5.2009,-5.1121,-5.0055,-4.9724,-4.8574,-4.7049,-4.7229,-4.711,-4.678,-4.704,-4.7095,-4.7034,-4.5936,-4.5252,-4.4883,-4.3755,-4.2671,-4.164,-4.1271,-4.0769,-4.0124,-3.9521,-3.937,-3.953,-3.9119,-3.8956,-3.9053,-3.8693,-3.8555,-3.8641,-3.8775,-3.8778,-3.8566,-3.8334,-3.7806,-3.6904,-3.6525,-3.6068,-3.55,-3.5333,-3.5397,-3.5564,-3.6117,-3.6348,-3.6195,-3.6854,-3.7256,-3.7244,-3.7668,-3.7779,-3.748,-3.7344,-3.7258,-3.711,-3.7178,-3.7195,-3.6965,-3.632,-3.5822,-3.5676,-3.5622,-3.5622,-3.5649,-3.6149,-3.6843,-3.7624,-3.8683,-3.9627,-4.0443,-4.1017,-4.1211,-4.1174,-4.147,-4.1231,-4.0159,-4.0247,-4.0113,-3.9124,-3.935,-3.9619,-3.9364,-3.9054,-3.8488,-3.8119,-3.6888,-3.5968,-3.6127,-3.5915,-3.5638,-3.5382,-3.589,-3.597,-3.5478,-3.5356,-3.5024,-3.4222,-3.3717,-3.314,-3.2571,-3.2399,-3.1954,-3.1563,-3.1368,-3.1117,-3.049,-3.0351,-3.0151,-2.9872,-2.939,-2.9085,-5.212,-5.2854,-5.4217,-5.447,-5.3844,-5.278,-5.1921,-5.1267,-5.1359,-5.0194,-4.8444,-4.8298,-4.8042,-4.7696,-4.7758,-4.7646,-4.7329,-4.6709,-4.6103,-4.5564,-4.4835,-4.3809,-4.26,-4.1948,-4.1336,-4.0664,-3.9823,-3.9769,-4.0249,-3.9667,-3.9314,-3.9265,-3.9013,-3.8739,-3.851,-3.8879,-3.8841,-3.8409,-3.8356,-3.7793,-3.6714,-3.6479,-3.6121,-3.5614,-3.5527,-3.5695,-3.5864,-3.6578,-3.6925,-3.6811,-3.7473,-3.7865,-3.7878,-3.8466,-3.8554,-3.8166,-3.8216,-3.8289,-3.826,-3.7641,-3.7351,-3.7601,-3.6904,-3.6646,-3.7007,-3.6744,-3.6492,-3.6659,-3.7246,-3.7891,-3.8492,-3.9237,-4.0074,-4.08,-4.1045,-4.111,-4.1047,-4.1211,-4.0846,-3.9775,-3.9865,-3.9808,-3.9104,-3.9043,-3.9267,-3.9283,-3.8635,-3.8162,-3.8001,-3.6661,-3.5802,-3.5721,-3.5546,-3.5352,-3.523,-3.5466,-3.5608,-3.5089,-3.5,-3.4692,-3.4129,-3.3658,-3.3226,-3.2897,-3.2458,-3.2066,-3.1354,-3.1033,-3.0704,-3.0119,-2.9853,-2.9336,-2.8829,-2.8551,-2.8172,-5.3571,-5.4001,-5.4585,-5.511,-5.5426,-5.4749,-5.4237,-5.3871,-5.3204,-5.2242,-5.0999,-4.9902,-4.8951,-4.8053,-4.7227,-4.6686,-4.6299,-4.5909,-4.5986,-4.6126,-4.5627,-4.4806,-4.3741,-4.31,-4.2268,-4.1358,-4.1037,-4.1,-4.1134,-4.0782,-4.0306,-3.9566,-3.909,-3.8807,-3.8755,-3.8594,-3.8473,-3.8409,-3.8145,-3.795,-3.7808,-3.7061,-3.6727,-3.6895,-3.6171,-3.6031,-3.6575,-3.7174,-3.7642,-3.7894,-3.8395,-3.8669,-3.8684,-3.8559,-3.8451,-3.8364,-3.8179,-3.8042,-3.7995,-3.6847,-3.6637,-3.7429,-3.7292,-3.7078,-3.7162,-3.7142,-3.7224,-3.7448,-3.7741,-3.7952,-3.8077,-3.8654,-3.9271,-3.995,-4.0386,-4.0757,-4.1161,-4.1261,-4.0959,-4.0134,-4.0032,-3.9788,-3.8936,-3.8948,-3.9165,-3.9184,-3.8649,-3.8055,-3.768,-3.6796,-3.589,-3.5603,-3.5198,-3.5129,-3.5276,-3.4918,-3.5028,-3.5244,-3.4434,-3.4016,-3.3923,-3.3704,-3.3283,-3.3176,-3.3077,-3.2712,-3.2543,-3.2154,-3.1282,-3.0878,-3.0204,-2.9246,-2.8266,-2.8253,-2.8184,-5.4592,-5.5133,-5.5332,-5.5607,-5.5839,-5.4971,-5.4192,-5.3593,-5.3315,-5.2577,-5.1632,-5.1066,-5.0629,-5.0283,-4.9699,-4.9278,-4.8935,-4.8182,-4.772,-4.7525,-4.7159,-4.6335,-4.5143,-4.4194,-4.3262,-4.2306,-4.1667,-4.1409,-4.138,-4.095,-4.0141,-3.9234,-3.8887,-3.8736,-3.8579,-3.8473,-3.8315,-3.8145,-3.821,-3.825,-3.8108,-3.7251,-3.6685,-3.6596,-3.6115,-3.6221,-3.6967,-3.7529,-3.804,-3.8477,-3.8998,-3.9335,-3.9322,-3.8953,-3.8692,-3.8667,-3.8104,-3.7892,-3.8223,-3.7616,-3.7618,-3.8518,-3.7986,-3.7773,-3.8039,-3.7834,-3.7754,-3.7983,-3.7887,-3.7879,-3.8254,-3.8856,-3.9498,-4.0081,-4.0628,-4.101,-4.1047,-4.1198,-4.0896,-3.9878,-3.9775,-3.9465,-3.8591,-3.8432,-3.8688,-3.8912,-3.8521,-3.788,-3.7515,-3.6881,-3.6456,-3.6167,-3.5649,-3.523,-3.5283,-3.5335,-3.5247,-3.5126,-3.4688,-3.4211,-3.3601,-3.3709,-3.3539,-3.3323,-3.328,-3.303,-3.2609,-3.2223,-3.1625,-3.1252,-3.0993,-3.0232,-3.0042,-3.0184,-2.9968,-5.5734,-5.6181,-5.6251,-5.6395,-5.649,-5.5215,-5.4484,-5.4121,-5.3824,-5.3217,-5.2486,-5.2324,-5.2293,-5.217,-5.1324,-5.0646,-5.0218,-4.947,-4.8835,-4.8333,-4.8238,-4.7504,-4.6179,-4.5235,-4.4338,-4.337,-4.2319,-4.1769,-4.1618,-4.0953,-4.0178,-3.9357,-3.8883,-3.8631,-3.8526,-3.8473,-3.8356,-3.825,-3.8409,-3.8579,-3.8505,-3.773,-3.72,-3.6982,-3.6777,-3.7063,-3.784,-3.8091,-3.8545,-3.9221,-3.9443,-3.9637,-3.9762,-3.9359,-3.9133,-3.9146,-3.8454,-3.8166,-3.8701,-3.8499,-3.866,-3.9248,-3.8788,-3.8631,-3.8788,-3.8473,-3.825,-3.8178,-3.7788,-3.7724,-3.8384,-3.8993,-3.9614,-4.0185,-4.0707,-4.0946,-4.1047,-4.1198,-4.0808,-3.9685,-3.9633,-3.9322,-3.8433,-3.8355,-3.8728,-3.88,-3.8448,-3.7822,-3.7631,-3.7209,-3.6916,-3.6688,-3.6214,-3.5761,-3.5458,-3.5225,-3.5307,-3.508,-3.4603,-3.4031,-3.3498,-3.3802,-3.4118,-3.409,-3.3749,-3.3443,-3.3157,-3.2611,-3.1693,-3.1104,-3.0925,-3.0973,-3.0797,-3.1207,-3.0993,-5.7292,-5.7177,-5.742,-5.7576,-5.7655,-5.6042,-5.5956,-5.6461,-5.5241,-5.4521,-5.422,-5.3683,-5.3468,-5.3161,-5.0629,-4.8978,-4.855,-4.8763,-4.8533,-4.8089,-4.8347,-4.7852,-4.6794,-4.6165,-4.5462,-4.4578,-4.345,-4.2502,-4.1723,-4.1159,-4.0723,-4.0328,-3.9145,-3.8591,-3.8684,-3.8566,-3.8526,-3.8736,-3.8788,-3.8945,-3.9196,-3.8928,-3.8686,-3.8656,-3.8629,-3.8803,-3.9317,-3.9031,-3.9247,-4.0389,-3.9652,-3.9487,-3.9994,-3.9789,-3.9763,-3.988,-3.9259,-3.9057,-3.9471,-3.9157,-3.912,-3.9584,-3.953,-3.9478,-3.9258,-3.8893,-3.8473,-3.808,-3.7601,-3.7636,-3.8206,-3.8625,-3.9098,-3.9648,-3.9994,-4.0503,-4.1211,-4.1211,-4.0795,-3.9942,-3.9581,-3.927,-3.8538,-3.9083,-3.8981,-3.8766,-3.8793,-3.8688,-3.7851,-3.7596,-3.7262,-3.6862,-3.6611,-3.6491,-3.6194,-3.5549,-3.4956,-3.4932,-3.4852,-3.4033,-3.421,-3.4442,-3.468,-3.4682,-3.4274,-3.3925,-3.3708,-3.3005,-3.1969,-3.1381,-3.1306,-3.1335,-3.127,-3.0377,-3.0261,-5.8181,-5.8121,-5.8184,-5.8037,-5.7552,-5.6506,-5.6014,-5.5706,-5.4873,-5.3994,-5.3239,-5.2855,-5.2498,-5.1997,-5.0745,-5.0271,-5.0434,-4.9871,-4.9238,-4.8616,-4.8696,-4.8243,-4.7377,-4.678,-4.6165,-4.5489,-4.4567,-4.3361,-4.2053,-4.1418,-4.0765,-4.0079,-3.9685,-3.9303,-3.8902,-3.8893,-3.905,-3.9166,-3.9258,-3.9517,-3.9826,-4.002,-4.0121,-4.0084,-3.9247,-3.9057,-3.9676,-3.9498,-3.9714,-4.0478,-3.9853,-3.9751,-4.0262,-4.0249,-4.0071,-3.9841,-3.941,-3.9449,-3.9994,-3.9576,-3.9449,-4.0071,-3.9736,-3.9478,-3.9413,-3.8933,-3.8461,-3.8206,-3.7922,-3.7816,-3.77,-3.8005,-3.8554,-3.9158,-3.984,-4.0495,-4.1019,-4.101,-4.0504,-3.98,-3.927,-3.8841,-3.8982,-3.9065,-3.8944,-3.8745,-3.8697,-3.8432,-3.7964,-3.7518,-3.7197,-3.697,-3.6646,-3.6429,-3.632,-3.5777,-3.5392,-3.5698,-3.5666,-3.5376,-3.5413,-3.509,-3.5145,-3.4848,-3.4482,-3.4148,-3.3877,-3.322,-3.2217,-3.1844,-3.1799,-3.1784,-3.1643,-3.1109,-3.1021,-5.8879,-5.8912,-5.8513,-5.8121,-5.7617,-5.6678,-5.5945,-5.5295,-5.4607,-5.3711,-5.2815,-5.2427,-5.2079,-5.168,-5.1339,-5.1471,-5.1783,-5.0681,-4.9698,-4.9058,-4.9058,-4.871,-4.8106,-4.7568,-4.6981,-4.622,-4.5181,-4.3884,-4.2693,-4.2083,-4.1537,-4.1025,-4.0608,-4.0255,-4.003,-3.9919,-3.9946,-4.0293,-4.0296,-4.0362,-4.0645,-4.0835,-4.0933,-4.0893,-4.0169,-3.9899,-4.0301,-4.0158,-4.0327,-4.0715,-4.0072,-3.9691,-3.9914,-3.9966,-3.9939,-3.9796,-3.9658,-3.9889,-4.0565,-4.0233,-4.0131,-4.0541,-4.0083,-3.9736,-3.9581,-3.8945,-3.8514,-3.8259,-3.7934,-3.7555,-3.7394,-3.7538,-3.7967,-3.8542,-3.9301,-4.0039,-4.0633,-4.0411,-4.0045,-3.9583,-3.8998,-3.8828,-3.9154,-3.9154,-3.901,-3.8853,-3.8631,-3.8409,-3.788,-3.7572,-3.7131,-3.697,-3.67,-3.6429,-3.6266,-3.5879,-3.5563,-3.5764,-3.6162,-3.6186,-3.6112,-3.5749,-3.5458,-3.5067,-3.4669,-3.431,-3.3845,-3.3229,-3.278,-3.2303,-3.2358,-3.2412,-3.2245,-3.2096,-3.1609,-5.9448,-5.9453,-5.8434,-5.8041,-5.7847,-5.6564,-5.5968,-5.5806,-5.4723,-5.3985,-5.3418,-5.2726,-5.2503,-5.2488,-5.2109,-5.2078,-5.2002,-5.0899,-4.9975,-4.9404,-4.9305,-4.9157,-4.8795,-4.8495,-4.7869,-4.6949,-4.5395,-4.4197,-4.3426,-4.314,-4.3049,-4.2978,-4.1707,-4.1451,-4.2475,-4.1426,-4.1477,-4.2073,-4.1763,-4.1544,-4.1711,-4.1347,-4.1239,-4.1413,-4.1432,-4.1515,-4.1644,-4.112,-4.1057,-4.14,-4.0389,-3.9423,-3.9141,-3.9143,-3.9282,-3.9992,-4.0005,-4.0426,-4.1119,-4.1182,-4.0965,-4.0896,-4.0605,-4.0096,-3.9517,-3.905,-3.8619,-3.823,-3.7726,-3.7296,-3.7275,-3.7234,-3.7468,-3.7953,-3.8513,-3.8989,-3.9507,-3.9647,-3.9525,-3.9289,-3.8998,-3.8945,-3.927,-3.9426,-3.9322,-3.8945,-3.8736,-3.8421,-3.7797,-3.7542,-3.7304,-3.6916,-3.6592,-3.6429,-3.6277,-3.6025,-3.5805,-3.5726,-3.6172,-3.6373,-3.6493,-3.6248,-3.6004,-3.5652,-3.4816,-3.4445,-3.3723,-3.3151,-3.273,-3.2433,-3.2696,-3.2653,-3.2319,-3.1853,-3.1278,-5.9409,-5.9214,-5.8818,-5.8172,-5.7438,-5.6727,-5.6263,-5.579,-5.5056,-5.437,-5.3711,-5.3406,-5.3069,-5.2728,-5.2548,-5.2397,-5.2261,-5.1757,-5.1011,-4.999,-4.9683,-4.9488,-4.9207,-4.8895,-4.8169,-4.7171,-4.6456,-4.5509,-4.4577,-4.4219,-4.3884,-4.3258,-4.2841,-4.2532,-4.2718,-4.2443,-4.2678,-4.3113,-4.2982,-4.3007,-4.3186,-4.2658,-4.2404,-4.2428,-4.217,-4.2079,-4.219,-4.1919,-4.1807,-4.1967,-4.0984,-4.0271,-4.0018,-4.0307,-4.0605,-4.0822,-4.0707,-4.0844,-4.139,-4.134,-4.1202,-4.1106,-4.0757,-4.0351,-3.9878,-3.9362,-3.905,-3.8844,-3.8337,-3.7902,-3.7533,-3.7144,-3.7326,-3.7925,-3.8429,-3.8844,-3.9411,-3.9473,-3.9278,-3.9052,-3.905,-3.9258,-3.949,-3.9542,-3.927,-3.8893,-3.8631,-3.8262,-3.7744,-3.7423,-3.7143,-3.6754,-3.6592,-3.6429,-3.6266,-3.6168,-3.6019,-3.6021,-3.6351,-3.6797,-3.6842,-3.6968,-3.6648,-3.603,-3.518,-3.4375,-3.37,-3.3164,-3.2771,-3.236,-3.2261,-3.2127,-3.1849,-3.1457,-3.0926,-5.9485,-5.9333,-5.87,-5.8137,-5.7397,-5.6678,-5.6059,-5.5629,-5.5014,-5.4386,-5.3899,-5.364,-5.3437,-5.3129,-5.3024,-5.2951,-5.2862,-5.2667,-5.2018,-5.109,-5.065,-5.0331,-4.9965,-4.9373,-4.8744,-4.7952,-4.7486,-4.696,-4.6174,-4.5605,-4.5225,-4.4989,-4.4203,-4.395,-4.397,-4.3687,-4.3708,-4.4356,-4.4135,-4.4135,-4.4318,-4.3865,-4.3413,-4.3272,-4.291,-4.2762,-4.2782,-4.2728,-4.2506,-4.2181,-4.1435,-4.0795,-4.0478,-4.0812,-4.1142,-4.1199,-4.1029,-4.113,-4.1794,-4.1621,-4.1307,-4.1254,-4.0896,-4.0389,-3.9878,-3.9362,-3.9114,-3.904,-3.8741,-3.8428,-3.8081,-3.7694,-3.7685,-3.8096,-3.8111,-3.8515,-3.9014,-3.9107,-3.9037,-3.8998,-3.9166,-3.9374,-3.9426,-3.9426,-3.9102,-3.8736,-3.8514,-3.8092,-3.7625,-3.7239,-3.697,-3.67,-3.6429,-3.632,-3.632,-3.6266,-3.6223,-3.6394,-3.6673,-3.7079,-3.7322,-3.7589,-3.756,-3.6402,-3.5488,-3.4548,-3.3765,-3.3373,-3.2975,-3.2532,-3.1902,-3.1615,-3.1398,-3.114,-3.0657,-5.9592,-5.9773,-5.8215,-5.7709,-5.7683,-5.6197,-5.558,-5.5475,-5.4665,-5.4189,-5.4044,-5.3699,-5.3627,-5.3687,-5.3524,-5.3524,-5.3687,-5.3305,-5.298,-5.2592,-5.217,-5.1619,-5.0922,-5.0065,-4.9391,-4.8971,-4.8559,-4.8297,-4.7918,-4.7199,-4.7115,-4.7228,-4.5616,-4.5205,-4.5732,-4.4897,-4.4867,-4.5692,-4.5157,-4.5033,-4.5455,-4.4726,-4.4161,-4.3845,-4.3732,-4.3544,-4.3341,-4.3375,-4.3184,-4.2563,-4.1842,-4.1277,-4.0769,-4.077,-4.1159,-4.1359,-4.0984,-4.1394,-4.2108,-4.1933,-4.1501,-4.128,-4.1021,-4.0478,-3.962,-3.9218,-3.9062,-3.8998,-3.8896,-3.8844,-3.8727,-3.8509,-3.8416,-3.8327,-3.7988,-3.7947,-3.8296,-3.8479,-3.8792,-3.9154,-3.931,-3.9322,-3.9362,-3.9258,-3.8945,-3.8631,-3.8356,-3.7933,-3.7453,-3.7078,-3.6808,-3.6569,-3.6251,-3.6251,-3.6174,-3.5959,-3.5994,-3.6386,-3.6592,-3.6916,-3.7352,-3.7635,-3.7863,-3.6776,-3.5545,-3.4647,-3.3783,-3.3286,-3.2671,-3.1982,-3.1543,-3.1234,-3.0927,-3.0665,-3.018,-5.9172,-5.8395,-5.7751,-5.7089,-5.6426,-5.584,-5.5604,-5.5409,-5.4864,-5.4486,-5.4285,-5.4028,-5.3974,-5.4017,-5.3974,-5.3958,-5.3958,-5.3872,-5.3785,-5.3655,-5.3246,-5.2306,-5.1356,-5.0723,-5.0053,-4.9525,-4.9687,-4.9416,-4.8617,-4.8432,-4.8141,-4.738,-4.6547,-4.6007,-4.603,-4.5574,-4.5635,-4.6119,-4.602,-4.5754,-4.5688,-4.5188,-4.4635,-4.4309,-4.396,-4.3691,-4.3533,-4.3566,-4.3471,-4.3115,-4.2896,-4.2588,-4.2166,-4.2043,-4.2014,-4.2019,-4.167,-4.1664,-4.2237,-4.2139,-4.1713,-4.133,-4.1209,-4.0732,-3.9685,-3.9542,-3.949,-3.9426,-3.9322,-3.9166,-3.9102,-3.8893,-3.8736,-3.8659,-3.8277,-3.8167,-3.8402,-3.8795,-3.9154,-3.931,-3.9478,-3.9478,-3.927,-3.9062,-3.8801,-3.8473,-3.8198,-3.7921,-3.74,-3.7131,-3.697,-3.6376,-3.6102,-3.6059,-3.6013,-3.5776,-3.581,-3.6197,-3.6429,-3.6538,-3.6841,-3.708,-3.7171,-3.6869,-3.5422,-3.4328,-3.3404,-3.2683,-3.2027,-3.1477,-3.1035,-3.0655,-3.0421,-3.0169,-2.9632,-5.8818,-5.7882,-5.7437,-5.6805,-5.6075,-5.5653,-5.5483,-5.5328,-5.4948,-5.4713,-5.4571,-5.4428,-5.4417,-5.4375,-5.4417,-5.4301,-5.4242,-5.42,-5.4173,-5.4017,-5.3568,-5.2697,-5.1742,-5.1324,-5.0881,-5.0315,-5.0612,-5.0374,-4.9764,-4.9562,-4.9098,-4.8652,-4.7524,-4.7001,-4.7091,-4.6267,-4.6135,-4.6491,-4.6661,-4.6724,-4.6791,-4.6595,-4.6301,-4.5874,-4.5286,-4.4701,-4.4227,-4.4007,-4.3757,-4.3485,-4.3355,-4.3211,-4.308,-4.2922,-4.2803,-4.2666,-4.2221,-4.2127,-4.245,-4.2248,-4.1785,-4.1386,-4.1287,-4.0715,-3.9944,-3.9675,-3.9697,-3.9645,-3.9542,-3.949,-3.9426,-3.9218,-3.8945,-3.8828,-3.8788,-3.8788,-3.8776,-3.9089,-3.9322,-3.9478,-3.9594,-3.953,-3.9166,-3.8945,-3.8631,-3.8356,-3.8092,-3.7773,-3.7411,-3.7292,-3.7061,-3.651,-3.611,-3.6128,-3.6056,-3.5864,-3.5583,-3.5945,-3.5598,-3.5806,-3.5856,-3.6041,-3.591,-3.5672,-3.4851,-3.3997,-3.293,-3.2065,-3.1635,-3.1087,-3.0548,-3.01,-2.9865,-2.957,-2.8991,-5.8508,-5.7724,-5.7165,-5.6659,-5.6217,-5.5511,-5.5303,-5.5344,-5.5047,-5.4838,-5.4838,-5.4813,-5.4729,-5.4813,-5.4729,-5.4655,-5.4454,-5.4454,-5.4285,-5.4087,-5.3699,-5.3069,-5.2185,-5.1849,-5.1527,-5.1218,-5.1199,-5.1137,-5.079,-5.0292,-5.0275,-4.9929,-4.8604,-4.8084,-4.7873,-4.7002,-4.6722,-4.6945,-4.7145,-4.7415,-4.7697,-4.7749,-4.7622,-4.7253,-4.6758,-4.5836,-4.5082,-4.4645,-4.4321,-4.3695,-4.3499,-4.3403,-4.3369,-4.3355,-4.3211,-4.3026,-4.2719,-4.2637,-4.2759,-4.2391,-4.1902,-4.1506,-4.1344,-4.0772,-3.9926,-3.9639,-3.9638,-3.9496,-3.9673,-3.9686,-3.9645,-3.9478,-3.927,-3.905,-3.9218,-3.931,-3.9248,-3.9235,-3.9364,-3.962,-3.9672,-3.9351,-3.8998,-3.8736,-3.8631,-3.8198,-3.8027,-3.7826,-3.7501,-3.7287,-3.7045,-3.6702,-3.6408,-3.6156,-3.6097,-3.5973,-3.5714,-3.5563,-3.4736,-3.4525,-3.438,-3.4394,-3.4252,-3.3911,-3.3315,-3.2773,-3.206,-3.1462,-3.106,-3.0606,-2.9955,-2.9514,-2.9133,-2.889,-2.8432,-5.8252,-5.7085,-5.6973,-5.6301,-5.5461,-5.5368,-5.5466,-5.5661,-5.5253,-5.5113,-5.5155,-5.4964,-5.4813,-5.4813,-5.4854,-5.4771,-5.4713,-5.4655,-5.4486,-5.413,-5.42,-5.3624,-5.2786,-5.2246,-5.1895,-5.168,-5.1354,-5.1214,-5.1092,-5.0941,-5.0702,-5.0238,-4.9725,-4.895,-4.8073,-4.7687,-4.7195,-4.7219,-4.7257,-4.7433,-4.7643,-4.777,-4.7711,-4.7434,-4.7166,-4.6552,-4.5766,-4.5473,-4.5044,-4.4396,-4.4001,-4.3867,-4.3812,-4.3628,-4.3471,-4.3362,-4.3211,-4.3026,-4.2881,-4.2751,-4.2477,-4.1919,-4.144,-4.0798,-3.9833,-3.9704,-3.9459,-3.926,-3.9462,-3.9689,-3.9711,-3.9633,-3.953,-3.9478,-3.9492,-3.9393,-3.9131,-3.9031,-3.9257,-3.9471,-3.9358,-3.9003,-3.8832,-3.8776,-3.8566,-3.8133,-3.7921,-3.788,-3.7601,-3.734,-3.702,-3.672,-3.6291,-3.6074,-3.6092,-3.5955,-3.574,-3.5288,-3.4447,-3.3346,-3.3201,-3.284,-3.2638,-3.2365,-3.196,-3.1451,-3.1065,-3.0683,-3.0295,-2.9857,-2.9432,-2.9086,-2.8686,-2.8325,-2.8039,-5.7476,-5.6397,-5.6467,-5.5969,-5.521,-5.5303,-5.5466,-5.5564,-5.5344,-5.5303,-5.5328,-5.5155,-5.5072,-5.5072,-5.5072,-5.5031,-5.4922,-5.4797,-5.4671,-5.4486,-5.4528,-5.4242,-5.3624,-5.2831,-5.2306,-5.1941,-5.1448,-5.1214,-5.1229,-5.1199,-5.0988,-5.0644,-5.0282,-4.9729,-4.8894,-4.8313,-4.7792,-4.7641,-4.7709,-4.7773,-4.7785,-4.8249,-4.8211,-4.7909,-4.7726,-4.7325,-4.6581,-4.6239,-4.5708,-4.5001,-4.4595,-4.4313,-4.4029,-4.377,-4.3566,-4.3437,-4.3403,-4.3163,-4.2984,-4.2873,-4.2641,-4.2108,-4.1745,-4.1051,-4.0344,-4.0041,-3.9792,-3.9447,-3.9487,-3.969,-3.9698,-3.9697,-3.9697,-3.9647,-3.9471,-3.9295,-3.9258,-3.9258,-3.9207,-3.9358,-3.9295,-3.91,-3.8963,-3.8828,-3.8489,-3.8043,-3.7938,-3.7897,-3.7789,-3.7479,-3.7008,-3.6613,-3.6161,-3.593,-3.6016,-3.5906,-3.5722,-3.5146,-3.4368,-3.3063,-3.2187,-3.1602,-3.1062,-3.0781,-3.049,-3.0626,-3.0286,-2.9903,-2.9651,-2.9299,-2.8995,-2.8654,-2.8403,-2.8116,-2.7837,-5.6649,-5.5821,-5.6001,-5.5741,-5.5203,-5.5303,-5.5409,-5.545,-5.5409,-5.5426,-5.5466,-5.5409,-5.5328,-5.5352,-5.5207,-5.5109,-5.4784,-5.4604,-5.4351,-5.4633,-5.4441,-5.4353,-5.3992,-5.3274,-5.2472,-5.1926,-5.1433,-5.1214,-5.1229,-5.1229,-5.1184,-5.1094,-5.0705,-5.0255,-4.9912,-4.9164,-4.8387,-4.8088,-4.8332,-4.8395,-4.8351,-4.902,-4.917,-4.8876,-4.8678,-4.8245,-4.7597,-4.7124,-4.6531,-4.5588,-4.5335,-4.4925,-4.4439,-4.3846,-4.3566,-4.3389,-4.3403,-4.3211,-4.2984,-4.2873,-4.2683,-4.212,-4.2062,-4.1563,-4.0803,-4.0285,-3.9904,-3.9631,-3.9472,-3.9588,-3.9686,-3.9697,-3.9697,-3.9634,-3.9258,-3.922,-3.9446,-3.9622,-3.9459,-3.9233,-3.9233,-3.9077,-3.8926,-3.8788,-3.8372,-3.806,-3.7954,-3.7805,-3.7673,-3.7421,-3.6812,-3.6542,-3.6161,-3.6154,-3.622,-3.5926,-3.5727,-3.5068,-3.4278,-3.2949,-3.1574,-3.0645,-3.006,-2.9353,-2.9126,-2.9313,-2.949,-2.9322,-2.9096,-2.883,-2.8734,-2.8547,-2.8229,-2.7921,-2.7725,-5.6649,-5.5805,-5.6001,-5.5725,-5.5203,-5.5287,-5.5507,-5.5702,-5.5466,-5.5507,-5.5653,-5.5491,-5.5345,-5.5215,-5.4762,-5.4236,-5.3833,-5.3737,-5.4003,-5.4285,-5.407,-5.3881,-5.4009,-5.3046,-5.235,-5.2079,-5.1527,-5.1139,-5.1214,-5.1229,-5.1229,-5.1184,-5.1079,-5.0749,-5.0284,-4.9713,-4.9009,-4.8468,-4.8605,-4.8591,-4.8694,-4.9136,-4.9596,-4.9393,-4.9359,-4.8987,-4.8451,-4.8134,-4.762,-4.6617,-4.6435,-4.622,-4.5599,-4.4618,-4.3943,-4.3697,-4.3677,-4.3499,-4.2997,-4.2935,-4.2846,-4.267,-4.2336,-4.1847,-4.105,-4.0232,-3.9803,-3.9287,-3.9155,-3.9285,-3.9686,-3.9775,-3.9749,-3.9647,-3.9534,-3.9358,-3.9245,-3.9358,-3.9622,-3.9459,-3.9269,-3.9016,-3.8864,-3.8675,-3.8279,-3.7932,-3.7726,-3.7296,-3.6872,-3.6672,-3.6261,-3.6198,-3.618,-3.6308,-3.6528,-3.6039,-3.5664,-3.4991,-3.411,-3.3016,-3.1574,-3.002,-2.9153,-2.8897,-2.8421,-2.8241,-2.8361,-2.8618,-2.8759,-2.8651,-2.8575,-2.8512,-2.832,-2.8105,-2.8096,-5.6002,-5.5596,-5.5705,-5.5569,-5.531,-5.5328,-5.5466,-5.5548,-5.545,-5.5256,-5.5069,-5.4932,-5.4665,-5.4341,-5.4033,-5.3612,-5.333,-5.3281,-5.3702,-5.41,-5.388,-5.3589,-5.3714,-5.2554,-5.1995,-5.1606,-5.1075,-5.0883,-5.1199,-5.1229,-5.1214,-5.1229,-5.1229,-5.0956,-5.043,-4.9666,-4.924,-4.8784,-4.8451,-4.8249,-4.829,-4.887,-4.9262,-4.963,-4.9703,-4.946,-4.9189,-4.8893,-4.8258,-4.7272,-4.6899,-4.6599,-4.6067,-4.5447,-4.4651,-4.4289,-4.4241,-4.3863,-4.3162,-4.2984,-4.3067,-4.2908,-4.2575,-4.2032,-4.1396,-4.077,-3.9987,-3.9416,-3.953,-3.9648,-3.9664,-3.9893,-3.9981,-3.9698,-3.9496,-3.9384,-3.9346,-3.9308,-3.9433,-3.9622,-3.9495,-3.9226,-3.8834,-3.8573,-3.8169,-3.7827,-3.7533,-3.6984,-3.633,-3.6159,-3.5989,-3.5916,-3.6062,-3.6215,-3.6372,-3.6045,-3.5522,-3.4902,-3.4121,-3.3027,-3.193,-3.0606,-2.9608,-2.9066,-2.8412,-2.7882,-2.7891,-2.831,-2.8423,-2.8607,-2.8766,-2.8866,-2.8565,-2.8374,-2.8364,-5.5466,-5.5409,-5.5409,-5.5409,-5.5409,-5.5409,-5.5312,-5.5272,-5.5264,-5.4875,-5.4283,-5.4186,-5.3911,-5.3418,-5.3175,-5.3013,-5.2893,-5.278,-5.3191,-5.3558,-5.3189,-5.3,-5.2833,-5.2016,-5.1203,-5.0951,-5.0622,-5.0524,-5.1109,-5.1229,-5.1167,-5.1105,-5.112,-5.1026,-5.0538,-4.9789,-4.9275,-4.8632,-4.8313,-4.7911,-4.8061,-4.8348,-4.874,-4.9219,-4.9291,-4.9267,-4.9025,-4.8866,-4.8331,-4.7602,-4.7157,-4.6857,-4.6362,-4.6045,-4.565,-4.517,-4.5149,-4.4484,-4.3918,-4.3457,-4.3533,-4.3353,-4.2929,-4.2229,-4.1517,-4.1025,-4.0562,-3.9779,-3.9555,-3.9777,-3.9627,-4.0016,-4.0032,-3.9816,-3.9411,-3.9272,-3.946,-3.9446,-3.9308,-3.9459,-3.9597,-3.9337,-3.8856,-3.8558,-3.8178,-3.7601,-3.7244,-3.6853,-3.6296,-3.6201,-3.6062,-3.5874,-3.5888,-3.6084,-3.609,-3.5959,-3.5412,-3.4847,-3.4177,-3.3264,-3.2342,-3.1353,-3.047,-2.9589,-2.8829,-2.8352,-2.8191,-2.8206,-2.8772,-2.9144,-2.9258,-2.928,-2.9085,-2.8862,-2.8761,-5.5604,-5.5409,-5.5409,-5.5409,-5.5377,-5.532,-5.5118,-5.4798,-5.4782,-5.4375,-5.3708,-5.3652,-5.3509,-5.3133,-5.256,-5.2025,-5.1685,-5.1669,-5.2074,-5.2556,-5.1917,-5.1871,-5.193,-5.0774,-5.0401,-5.0241,-5.014,-5.0586,-5.0915,-5.105,-5.0984,-5.0783,-5.0632,-5.0668,-5.0194,-4.9713,-4.9391,-4.8653,-4.8931,-4.8962,-4.8478,-4.8072,-4.7999,-4.8072,-4.813,-4.8174,-4.8246,-4.8151,-4.7829,-4.7477,-4.7328,-4.7172,-4.6938,-4.689,-4.6718,-4.6367,-4.6041,-4.5587,-4.5064,-4.4428,-4.4028,-4.3567,-4.2958,-4.2344,-4.1557,-4.0501,-3.978,-3.9541,-3.9087,-3.9081,-3.9466,-3.9687,-3.9671,-3.9777,-3.9817,-3.9702,-3.9737,-3.9584,-3.9433,-3.9054,-3.9128,-3.8968,-3.8678,-3.8457,-3.8186,-3.7545,-3.6972,-3.6617,-3.6102,-3.5836,-3.5741,-3.5492,-3.5602,-3.5783,-3.5554,-3.5425,-3.5177,-3.4615,-3.4058,-3.3427,-3.2638,-3.1825,-3.1189,-3.0304,-2.954,-2.9126,-2.9135,-2.9288,-2.9521,-2.9633,-2.9726,-2.9753,-2.9723,-2.947,-2.9237,-5.5385,-5.5081,-5.5287,-5.5101,-5.464,-5.4762,-5.4598,-5.4264,-5.4111,-5.3742,-5.3231,-5.315,-5.284,-5.2308,-5.181,-5.1507,-5.1253,-5.1221,-5.1556,-5.1888,-5.1399,-5.1322,-5.1434,-5.0355,-4.9587,-4.9819,-4.9494,-4.9419,-4.9987,-5.0375,-5.0387,-4.9829,-4.9738,-4.9478,-4.9387,-4.908,-4.8635,-4.8158,-4.8003,-4.7898,-4.7651,-4.7419,-4.7404,-4.7724,-4.7738,-4.7724,-4.7709,-4.7782,-4.7517,-4.7203,-4.7073,-4.7026,-4.6872,-4.6821,-4.679,-4.7572,-4.7233,-4.6588,-4.5579,-4.4706,-4.4132,-4.3348,-4.244,-4.1515,-4.0995,-4.0016,-3.9138,-3.9061,-3.9064,-3.9181,-3.9481,-3.9826,-4.0033,-4.0118,-4.0121,-3.9982,-3.9879,-3.9711,-3.9495,-3.9027,-3.8561,-3.8315,-3.8167,-3.808,-3.7911,-3.7593,-3.7039,-3.6628,-3.5761,-3.4913,-3.4872,-3.4946,-3.5175,-3.5474,-3.5066,-3.4812,-3.4677,-3.4252,-3.3878,-3.3253,-3.2804,-3.217,-3.1612,-3.1285,-3.085,-3.049,-3.0255,-2.987,-2.9689,-2.9916,-3.0171,-3.0287,-3.0345,-3.0093,-2.9774,-5.4922,-5.4576,-5.4947,-5.4721,-5.4132,-5.4131,-5.3906,-5.3618,-5.3455,-5.3122,-5.2712,-5.2511,-5.2083,-5.1613,-5.1377,-5.1269,-5.1221,-5.1221,-5.1475,-5.153,-5.1326,-5.1255,-5.1096,-5.0069,-4.9316,-4.9916,-4.8995,-4.8625,-4.8746,-4.9178,-4.9281,-4.88,-4.9092,-4.873,-4.829,-4.8194,-4.8027,-4.7843,-4.7071,-4.6838,-4.6853,-4.6722,-4.6882,-4.7129,-4.7364,-4.7317,-4.7288,-4.7013,-4.6664,-4.6372,-4.6009,-4.5848,-4.5817,-4.5727,-4.6198,-4.6929,-4.6995,-4.6787,-4.6112,-4.5456,-4.4277,-4.3136,-4.1726,-4.0703,-4.0182,-3.9352,-3.889,-3.8889,-3.887,-3.9144,-3.9523,-3.9931,-4.0135,-4.0253,-4.0401,-4.0198,-3.9905,-3.96,-3.893,-3.8116,-3.7666,-3.7409,-3.7375,-3.7548,-3.7525,-3.7493,-3.7135,-3.6642,-3.5688,-3.453,-3.4452,-3.468,-3.4777,-3.5047,-3.4876,-3.4463,-3.4244,-3.3932,-3.3563,-3.3187,-3.2748,-3.2556,-3.2148,-3.198,-3.1883,-3.172,-3.1353,-3.0556,-2.989,-3.0618,-3.1168,-3.1011,-3.0926,-3.0622,-3.0256,-5.4196,-5.3814,-5.4293,-5.4389,-5.422,-5.3637,-5.3197,-5.2908,-5.2854,-5.2606,-5.2207,-5.1835,-5.165,-5.1462,-5.1312,-5.1221,-5.1221,-5.1221,-5.1302,-5.1129,-5.0839,-5.1055,-5.0858,-5.0163,-4.9288,-4.9646,-4.9012,-4.8129,-4.7613,-4.8373,-4.8459,-4.8512,-4.8463,-4.8313,-4.7981,-4.7614,-4.7657,-4.7375,-4.665,-4.6359,-4.6446,-4.633,-4.6098,-4.6098,-4.6084,-4.6011,-4.5996,-4.5648,-4.5329,-4.5169,-4.4835,-4.4603,-4.4719,-4.4632,-4.5225,-4.5948,-4.6198,-4.6277,-4.6449,-4.6328,-4.5951,-4.4221,-4.2049,-4.0033,-3.9627,-3.9173,-3.8877,-3.8756,-3.8626,-3.8754,-3.9163,-3.9596,-3.9969,-4.0255,-4.0369,-4.0094,-3.9714,-3.9196,-3.8467,-3.732,-3.6825,-3.6671,-3.6379,-3.6528,-3.688,-3.6872,-3.6569,-3.6079,-3.5642,-3.4773,-3.4584,-3.4549,-3.4473,-3.4576,-3.4662,-3.4404,-3.4048,-3.375,-3.3429,-3.3095,-3.2754,-3.257,-3.264,-3.2618,-3.2524,-3.2524,-3.2411,-3.163,-3.1314,-3.1854,-3.2078,-3.1593,-3.1063,-3.0621,-3.0297,-5.3881,-5.4051,-5.3355,-5.2967,-5.2889,-5.2809,-5.2671,-5.2364,-5.2245,-5.2183,-5.2102,-5.1831,-5.161,-5.1445,-5.1296,-5.1221,-5.1221,-5.1221,-5.1221,-5.1054,-5.0852,-5.1012,-5.0819,-5.0517,-4.9899,-5.0117,-4.9423,-4.8645,-4.8189,-4.8254,-4.8044,-4.7993,-4.7721,-4.7345,-4.709,-4.6954,-4.6911,-4.6954,-4.6417,-4.6069,-4.6084,-4.6084,-4.588,-4.588,-4.588,-4.5634,-4.5343,-4.5068,-4.4705,-4.4371,-4.4095,-4.3935,-4.3863,-4.3877,-4.4342,-4.5067,-4.5236,-4.578,-4.6192,-4.5968,-4.4578,-4.2403,-4.0454,-3.9397,-3.9307,-3.8854,-3.853,-3.8395,-3.8239,-3.8398,-3.8858,-3.9354,-3.9799,-4.0194,-4.0268,-3.9947,-3.9419,-3.8791,-3.8028,-3.6886,-3.6432,-3.6183,-3.5783,-3.5444,-3.588,-3.618,-3.5855,-3.5519,-3.5177,-3.4778,-3.4439,-3.4279,-3.4182,-3.3925,-3.3988,-3.3953,-3.3855,-3.3592,-3.3329,-3.3105,-3.2866,-3.3001,-3.3061,-3.3078,-3.3092,-3.3022,-3.2836,-3.2522,-3.2485,-3.264,-3.2351,-3.1823,-3.1253,-3.0733,-3.039,-5.3483,-5.3612,-5.2702,-5.2165,-5.2033,-5.2145,-5.2125,-5.2023,-5.1973,-5.1941,-5.2066,-5.1831,-5.1647,-5.1462,-5.1312,-5.1221,-5.1221,-5.1183,-5.1162,-5.0994,-5.0868,-5.1028,-5.0993,-5.0639,-4.9994,-5.039,-4.976,-4.8877,-4.8514,-4.8716,-4.8459,-4.7787,-4.6928,-4.6758,-4.6652,-4.6258,-4.6127,-4.6316,-4.6185,-4.588,-4.5895,-4.5895,-4.588,-4.588,-4.588,-4.5735,-4.5256,-4.4893,-4.44,-4.4008,-4.366,-4.3398,-4.3398,-4.3515,-4.3733,-4.4124,-4.4527,-4.4908,-4.5043,-4.4682,-4.3422,-4.2126,-4.075,-3.9875,-3.9266,-3.8868,-3.8745,-3.8258,-3.8083,-3.8122,-3.8645,-3.9076,-3.9412,-3.9754,-3.98,-3.952,-3.8758,-3.8073,-3.7316,-3.6478,-3.6015,-3.5524,-3.5228,-3.4904,-3.539,-3.5656,-3.5494,-3.52,-3.4871,-3.4416,-3.3943,-3.3854,-3.3834,-3.3534,-3.3245,-3.36,-3.3862,-3.3532,-3.3342,-3.3249,-3.3134,-3.3225,-3.328,-3.3256,-3.3298,-3.3352,-3.3268,-3.3008,-3.3029,-3.3148,-3.2732,-3.2296,-3.164,-3.1135,-3.0655,-5.2883,-5.2307,-5.2395,-5.2324,-5.2058,-5.168,-5.1643,-5.1851,-5.2013,-5.2086,-5.203,-5.1684,-5.1471,-5.1359,-5.1177,-5.1156,-5.1054,-5.1118,-5.1108,-5.0934,-5.0874,-5.116,-5.0937,-5.0492,-5.0116,-5.0056,-4.9647,-4.908,-4.8632,-4.8716,-4.8564,-4.8065,-4.7186,-4.665,-4.6705,-4.62,-4.5924,-4.5909,-4.5909,-4.5895,-4.588,-4.588,-4.588,-4.588,-4.575,-4.5576,-4.5184,-4.44,-4.3892,-4.3573,-4.2847,-4.2528,-4.2455,-4.2426,-4.2589,-4.2839,-4.294,-4.3255,-4.3749,-4.3971,-4.3546,-4.2744,-4.1382,-4.0575,-3.9765,-3.9355,-3.9044,-3.8543,-3.8155,-3.8187,-3.8454,-3.8729,-3.8977,-3.9055,-3.9113,-3.8894,-3.8151,-3.7505,-3.6778,-3.611,-3.5393,-3.4774,-3.4541,-3.4464,-3.4937,-3.5159,-3.5046,-3.4839,-3.4613,-3.4313,-3.3814,-3.3802,-3.3807,-3.3723,-3.3573,-3.3745,-3.3866,-3.3513,-3.3372,-3.3355,-3.3194,-3.3069,-3.3173,-3.3329,-3.3451,-3.3485,-3.3466,-3.3436,-3.3485,-3.3517,-3.3214,-3.2778,-3.2152,-3.1378,-3.0748,-5.2025,-5.2139,-5.1794,-5.1599,-5.1529,-5.1538,-5.161,-5.1815,-5.2122,-5.2175,-5.1904,-5.1721,-5.121,-5.0879,-5.1015,-5.0973,-5.0617,-5.1086,-5.107,-5.0896,-5.0874,-5.0855,-5.0721,-5.0484,-5.0279,-5.0252,-4.9846,-4.9209,-4.8573,-4.8626,-4.8118,-4.7592,-4.7095,-4.6606,-4.6287,-4.5938,-4.5895,-4.588,-4.588,-4.588,-4.588,-4.588,-4.588,-4.588,-4.5547,-4.5198,-4.4835,-4.3921,-4.3398,-4.3021,-4.2237,-4.2136,-4.2092,-4.2092,-4.2055,-4.2177,-4.2209,-4.2507,-4.2871,-4.305,-4.3301,-4.2645,-4.1895,-4.1017,-4.0507,-3.9866,-3.9348,-3.8859,-3.8476,-3.8316,-3.7981,-3.8358,-3.8575,-3.8376,-3.8309,-3.8031,-3.7513,-3.6943,-3.6318,-3.5779,-3.5138,-3.4615,-3.4272,-3.4465,-3.4895,-3.4833,-3.476,-3.4651,-3.4459,-3.4313,-3.4014,-3.4003,-3.4,-3.3939,-3.3898,-3.3811,-3.3834,-3.3659,-3.3553,-3.3614,-3.3396,-3.3106,-3.3298,-3.3656,-3.364,-3.3568,-3.367,-3.3782,-3.3889,-3.3834,-3.3502,-3.3137,-3.2494,-3.1479,-3.0417,-5.1669,-5.1815,-5.1637,-5.1378,-5.1253,-5.1441,-5.1663,-5.1904,-5.2158,-5.2122,-5.1815,-5.1704,-5.1145,-5.0577,-5.0746,-5.0795,-5.0244,-5.0827,-5.0994,-5.082,-5.0781,-5.0582,-5.0335,-5.0182,-4.9922,-4.9983,-4.9868,-4.9368,-4.8793,-4.8609,-4.8044,-4.7263,-4.6666,-4.6272,-4.5982,-4.5895,-4.5835,-4.579,-4.573,-4.5745,-4.5745,-4.5745,-4.579,-4.5779,-4.5474,-4.5024,-4.4342,-4.366,-4.3021,-4.2486,-4.2196,-4.2038,-4.2024,-4.1926,-4.1787,-4.1764,-4.1526,-4.1716,-4.1865,-4.2022,-4.22,-4.2218,-4.1604,-4.116,-4.075,-4.001,-3.9675,-3.9257,-3.8867,-3.8509,-3.8199,-3.8489,-3.8238,-3.8111,-3.7756,-3.7503,-3.7136,-3.658,-3.6242,-3.5697,-3.5551,-3.4926,-3.4341,-3.456,-3.4911,-3.4671,-3.442,-3.4384,-3.4384,-3.4298,-3.4164,-3.4154,-3.4048,-3.3893,-3.3714,-3.3536,-3.356,-3.3692,-3.3637,-3.3613,-3.3553,-3.3323,-3.3617,-3.3834,-3.3669,-3.3657,-3.3927,-3.4062,-3.4096,-3.396,-3.3652,-3.325,-3.2814,-3.1567,-3.0154,-5.1766,-5.1329,-5.1896,-5.175,-5.1323,-5.1424,-5.1737,-5.2066,-5.2102,-5.1993,-5.1778,-5.1545,-5.0802,-5.0281,-5.0746,-5.0584,-5.0212,-5.073,-5.0827,-5.0701,-5.0544,-5.019,-4.9773,-4.9477,-4.9384,-4.93,-4.9257,-4.9166,-4.8936,-4.8475,-4.7775,-4.6951,-4.6289,-4.5924,-4.5734,-4.5647,-4.5615,-4.5551,-4.5504,-4.5504,-4.5504,-4.5389,-4.5421,-4.5427,-4.5241,-4.482,-4.4356,-4.3834,-4.3327,-4.2764,-4.226,-4.21,-4.1901,-4.1663,-4.1523,-4.1298,-4.0899,-4.0831,-4.1121,-4.1353,-4.1155,-4.1461,-4.2059,-4.1333,-4.0556,-3.9981,-3.9685,-3.9311,-3.8873,-3.8847,-3.8842,-3.8563,-3.8283,-3.7927,-3.7507,-3.7141,-3.6774,-3.6431,-3.6174,-3.5987,-3.6128,-3.5755,-3.5039,-3.5006,-3.501,-3.4662,-3.4531,-3.458,-3.4531,-3.4384,-3.4264,-3.4171,-3.4017,-3.3791,-3.3625,-3.3351,-3.3327,-3.3458,-3.3458,-3.3407,-3.3414,-3.3373,-3.3424,-3.3476,-3.3598,-3.3712,-3.3871,-3.4091,-3.4288,-3.4099,-3.3872,-3.3383,-3.2884,-3.1179,-2.9893,-5.1378,-5.1216,-5.1394,-5.1345,-5.1253,-5.1424,-5.1663,-5.1904,-5.203,-5.1993,-5.1745,-5.1023,-5.0347,-4.9418,-4.9548,-4.9548,-4.971,-5.0045,-5.0564,-5.0526,-5.0213,-4.999,-4.9584,-4.9078,-4.8932,-4.8897,-4.8887,-4.8676,-4.8167,-4.7819,-4.711,-4.6189,-4.5822,-4.5471,-4.5136,-4.499,-4.5131,-4.5228,-4.5135,-4.5087,-4.4972,-4.4772,-4.4867,-4.4857,-4.4297,-4.3921,-4.366,-4.3329,-4.2766,-4.2161,-4.2596,-4.2668,-4.2195,-4.211,-4.201,-4.1738,-4.1151,-4.0701,-4.1284,-4.1021,-4.0627,-4.0553,-4.1031,-4.1113,-4.0461,-3.997,-3.9685,-3.9329,-3.8757,-3.8587,-3.8374,-3.8085,-3.7844,-3.7501,-3.7143,-3.6775,-3.6444,-3.6369,-3.6109,-3.6044,-3.6206,-3.6221,-3.5525,-3.5322,-3.5228,-3.4808,-3.4544,-3.4617,-3.4593,-3.4423,-3.4291,-3.4186,-3.3732,-3.3457,-3.3349,-3.3088,-3.3123,-3.3194,-3.3172,-3.3137,-3.309,-3.3078,-3.3066,-3.3136,-3.3312,-3.349,-3.3741,-3.391,-3.397,-3.429,-3.4133,-3.3585,-3.2752,-3.1094,-2.988,-5.0978,-5.1205,-5.1221,-5.1221,-5.1221,-5.1424,-5.1589,-5.1721,-5.1904,-5.1904,-5.1712,-5.1153,-5.0314,-4.9661,-4.9823,-4.9726,-4.9123,-4.977,-5.0133,-4.9689,-4.9759,-4.9283,-4.8897,-4.8616,-4.8275,-4.8227,-4.8096,-4.7889,-4.7259,-4.6458,-4.5726,-4.5504,-4.5329,-4.4804,-4.4383,-4.4164,-4.4188,-4.424,-4.4307,-4.4402,-4.4302,-4.406,-4.4083,-4.4088,-4.3285,-4.2984,-4.2837,-4.2581,-4.2208,-4.1806,-4.2496,-4.2623,-4.2238,-4.2224,-4.2292,-4.1989,-4.1269,-4.1141,-4.1428,-4.0881,-4.0327,-3.9986,-4.0016,-3.9825,-3.9781,-3.9415,-3.9449,-3.932,-3.8657,-3.8113,-3.7792,-3.7493,-3.7266,-3.7035,-3.6739,-3.6407,-3.632,-3.6267,-3.6128,-3.6064,-3.6136,-3.6235,-3.6078,-3.5811,-3.5387,-3.4858,-3.4438,-3.4306,-3.4294,-3.4234,-3.4186,-3.4055,-3.3481,-3.298,-3.2871,-3.2771,-3.2616,-3.2604,-3.2771,-3.2739,-3.2741,-3.2897,-3.3053,-3.3077,-3.3053,-3.3291,-3.3529,-3.3482,-3.3541,-3.3898,-3.4048,-3.3354,-3.2524,-3.1239,-3.0249,-5.0438,-5.107,-5.1102,-5.0973,-5.1026,-5.1074,-5.1201,-5.132,-5.1373,-5.1627,-5.1639,-5.1475,-5.0684,-4.9872,-5.0115,-4.9839,-4.9418,-4.956,-4.9669,-4.8788,-4.9068,-4.8791,-4.8297,-4.7919,-4.7684,-4.7212,-4.7031,-4.7145,-4.6187,-4.5605,-4.5215,-4.4821,-4.4356,-4.3907,-4.3516,-4.3269,-4.3107,-4.2789,-4.2856,-4.2968,-4.3378,-4.331,-4.3144,-4.3679,-4.3267,-4.2825,-4.2582,-4.2324,-4.2081,-4.1838,-4.1953,-4.2193,-4.2093,-4.2006,-4.2143,-4.185,-4.1088,-4.1339,-4.1265,-4.07,-4.0191,-3.9811,-3.9487,-3.9122,-3.895,-3.8972,-3.9083,-3.8912,-3.8316,-3.7897,-3.7587,-3.7161,-3.681,-3.6653,-3.6407,-3.6161,-3.6049,-3.5983,-3.6042,-3.6038,-3.623,-3.6281,-3.598,-3.5689,-3.5314,-3.481,-3.4366,-3.4138,-3.3958,-3.3946,-3.3754,-3.3682,-3.3239,-3.2654,-3.2364,-3.2238,-3.1961,-3.2018,-3.2262,-3.2346,-3.2328,-3.2685,-3.3104,-3.2879,-3.2678,-3.3059,-3.331,-3.336,-3.347,-3.3754,-3.3701,-3.3089,-3.2151,-3.1176,-3.0607,-4.971,-5.0341,-5.0209,-4.9902,-4.9544,-4.9454,-4.9633,-4.9821,-4.9713,-5.0416,-5.1238,-5.0769,-5.0038,-4.9515,-4.9661,-4.9434,-4.9208,-4.922,-4.9463,-4.9034,-4.8828,-4.8232,-4.7828,-4.7486,-4.7166,-4.7021,-4.6852,-4.6473,-4.5728,-4.5253,-4.477,-4.4226,-4.3719,-4.3286,-4.2654,-4.2394,-4.2078,-4.1592,-4.1563,-4.1986,-4.2606,-4.2352,-4.2128,-4.2261,-4.2023,-4.1825,-4.1739,-4.1967,-4.1639,-4.1369,-4.2117,-4.2127,-4.1802,-4.1613,-4.1551,-4.1388,-4.0769,-4.0986,-4.116,-4.054,-3.9846,-3.9817,-3.9497,-3.8783,-3.8474,-3.8612,-3.8569,-3.8361,-3.8045,-3.769,-3.7293,-3.683,-3.6429,-3.6297,-3.6136,-3.5927,-3.5742,-3.5751,-3.5833,-3.6038,-3.629,-3.6122,-3.5809,-3.5519,-3.5168,-3.4749,-3.4282,-3.3946,-3.361,-3.3442,-3.3008,-3.2887,-3.2851,-3.2385,-3.2102,-3.191,-3.1765,-3.1753,-3.203,-3.203,-3.2006,-3.2427,-3.2815,-3.2418,-3.2286,-3.2815,-3.3251,-3.3457,-3.3636,-3.362,-3.3459,-3.2857,-3.2251,-3.1356,-3.0901,-4.8873,-4.9544,-4.9503,-4.9256,-4.8949,-4.8901,-4.8994,-4.9121,-4.9066,-4.9503,-5.0262,-4.9844,-4.9386,-4.9107,-4.9301,-4.8929,-4.8767,-4.888,-4.8589,-4.8346,-4.8252,-4.7606,-4.7223,-4.6982,-4.6489,-4.6321,-4.5962,-4.5541,-4.5259,-4.4448,-4.3827,-4.3414,-4.3027,-4.2496,-4.1796,-4.1554,-4.1326,-4.0801,-4.0716,-4.1137,-4.1812,-4.1504,-4.1462,-4.1465,-4.1311,-4.1114,-4.1142,-4.1397,-4.1227,-4.1212,-4.1732,-4.209,-4.1805,-4.1546,-4.1396,-4.1173,-4.0776,-4.0436,-4.0784,-4.0391,-3.9411,-3.9507,-3.9306,-3.8493,-3.8161,-3.824,-3.8149,-3.7888,-3.7629,-3.7279,-3.6865,-3.6408,-3.6107,-3.5916,-3.5856,-3.5685,-3.5478,-3.533,-3.5341,-3.5364,-3.5509,-3.5461,-3.5244,-3.5171,-3.4882,-3.4714,-3.4246,-3.3778,-3.3477,-3.3188,-3.2635,-3.2322,-3.2454,-3.2238,-3.191,-3.1789,-3.1741,-3.1765,-3.1913,-3.2295,-3.2584,-3.2536,-3.2524,-3.2491,-3.2599,-3.2807,-3.3194,-3.3422,-3.3242,-3.3054,-3.2952,-3.273,-3.2101,-3.1668,-3.1495,-4.7974,-4.8614,-4.8743,-4.8675,-4.8534,-4.861,-4.8654,-4.869,-4.8686,-4.8654,-4.8738,-4.8722,-4.8751,-4.9091,-4.9564,-4.8884,-4.8512,-4.8609,-4.8042,-4.7613,-4.7419,-4.6993,-4.6657,-4.6365,-4.6023,-4.5537,-4.5047,-4.505,-4.5036,-4.3986,-4.3042,-4.2549,-4.2021,-4.1451,-4.1128,-4.0972,-4.0859,-4.0744,-4.0702,-4.0702,-4.0744,-4.0716,-4.1039,-4.1123,-4.1025,-4.0844,-4.0845,-4.0845,-4.0816,-4.0985,-4.1266,-4.1457,-4.1446,-4.1132,-4.0931,-4.0635,-4.0124,-4.0086,-4.0312,-3.974,-3.9296,-3.9064,-3.8705,-3.837,-3.7992,-3.7795,-3.7703,-3.7459,-3.7214,-3.6888,-3.6477,-3.6218,-3.5932,-3.5705,-3.5609,-3.5561,-3.5272,-3.5066,-3.4981,-3.4895,-3.4907,-3.4895,-3.4835,-3.4811,-3.4715,-3.4583,-3.4246,-3.3753,-3.3344,-3.3116,-3.2743,-3.2551,-3.2587,-3.2307,-3.1934,-3.1886,-3.1946,-3.2214,-3.2433,-3.2839,-3.3102,-3.2981,-3.2981,-3.3104,-3.3202,-3.3311,-3.3231,-3.3375,-3.3061,-3.2857,-3.2544,-3.2476,-3.2301,-3.1961,-3.2191,-4.6818,-4.6853,-4.7465,-4.7457,-4.7097,-4.7068,-4.7141,-4.7281,-4.7346,-4.7297,-4.741,-4.7394,-4.7589,-4.8201,-4.888,-4.8621,-4.8007,-4.8168,-4.8062,-4.7664,-4.7133,-4.6596,-4.6299,-4.621,-4.5954,-4.5382,-4.4695,-4.4269,-4.4208,-4.3294,-4.2444,-4.1946,-4.1708,-4.1325,-4.1043,-4.0873,-4.0702,-4.0645,-4.0659,-4.0674,-4.0659,-4.0674,-4.073,-4.0786,-4.0772,-4.0744,-4.073,-4.073,-4.073,-4.0787,-4.0828,-4.0865,-4.0674,-4.041,-4.0097,-3.9821,-3.9325,-3.9358,-3.9295,-3.8951,-3.8662,-3.8886,-3.8516,-3.8083,-3.7795,-3.7644,-3.7459,-3.7214,-3.6922,-3.6722,-3.6417,-3.6193,-3.5968,-3.5777,-3.5681,-3.5524,-3.5332,-3.5187,-3.5102,-3.5005,-3.4859,-3.4859,-3.4799,-3.4787,-3.4775,-3.4607,-3.4258,-3.3861,-3.3717,-3.3308,-3.2909,-3.2815,-3.2767,-3.2659,-3.2454,-3.2286,-3.2346,-3.2637,-3.2915,-3.3262,-3.3428,-3.3343,-3.3391,-3.3621,-3.3718,-3.385,-3.3708,-3.3492,-3.3449,-3.3241,-3.2574,-3.2229,-3.2218,-3.2411,-3.2676]},{"header":{"parameterUnit":"m.s-1","parameterCategory":1,"la1":31.0,"la2":29.5877,"lo1":-88.7671,"lo2":-86.6584,"dy":0.0162,"dx":0.0185,"nx":115,"ny":88,"refTime":"2023-07-22T18:00:00:Z","depth":0,"parameterNumber":3,"parameterNumberName":"V-component_of_WINDS"},"data":[0.0,0.0,0.0,0.0,0.0,0.0,0.0,0.0,0.0,0.0,0.0,0.0,0.0,0.0,0.0,0.0,0.0,0.0,0.0,0.0,0.0,0.0,0.0,0.0,0.0,0.0,0.0,0.0,0.0,0.0,0.0,0.0,0.0,0.0,0.0,0.0,0.0,0.0,0.0,0.0,0.0,0.0,0.0,0.0,0.0,0.0,0.0,0.0,0.0,0.0,0.0,0.0,0.0,0.0,0.0,0.0,0.0,0.0,0.0,0.0,0.0,0.0,0.0,0.0,0.0,0.0,0.0,0.0,0.0,0.0,0.0,0.0,0.0,0.0,0.0,0.0,0.0,0.0,0.0,0.0,0.0,0.0,0.0,0.0,0.0,0.0,0.0,0.0,0.0,0.0,0.0,0.0,0.0,0.0,0.0,0.0,0.0,0.0,0.0,0.0,0.0,0.0,0.0,0.0,0.0,0.0,0.0,0.0,0.0,0.0,0.0,0.0,0.0,0.0,0.0,0.0,0.0,0.0,0.0,0.0,0.0,0.0,0.0,0.0,0.0,0.0,0.0,0.0,0.0,0.0,0.0,0.0,0.0,0.0,0.0,0.0,0.0,0.0,0.0,0.0,0.0,0.0,0.0,0.0,0.0,0.0,0.0,0.0,0.0,0.0,0.0,0.0,0.0,0.0,0.0,0.0,0.0,0.0,0.0,0.0,0.0,0.0,0.0,0.0,0.0,0.0,0.0,0.0,0.0,0.0,0.0,0.0,0.0,0.0,0.0,0.0,0.0,0.0,0.0,0.0,0.0,0.0,0.0,0.0,0.0,0.0,0.0,0.0,0.0,0.0,0.0,0.0,0.0,0.0,0.0,0.0,0.0,0.0,0.0,0.0,0.0,0.0,0.0,0.0,0.0,0.0,0.0,0.0,0.0,0.0,0.0,0.0,0.0,0.0,0.0,0.0,0.0,0.0,0.0,0.0,0.0,0.0,0.0,0.0,0.0,0.0,0.0,0.0,0.0,0.0,0.0,0.0,0.0,0.0,0.0,0.0,0.0,0.0,0.0,0.0,0.0,0.0,0.0,0.0,0.0,0.0,0.0,0.0,0.0,0.0,0.0,0.0,0.0,0.0,0.0,0.0,0.0,0.0,0.0,0.0,0.0,0.0,0.0,0.0,0.0,0.0,0.0,0.0,0.0,0.0,0.0,0.0,0.0,0.0,0.0,0.0,0.0,0.0,0.0,0.0,0.0,0.0,0.0,0.0,0.0,0.0,0.0,0.0,0.0,0.0,0.0,0.0,0.0,0.0,0.0,0.0,0.0,0.0,0.0,0.0,0.0,0.0,0.0,0.0,0.0,0.0,0.0,0.0,0.0,0.0,0.0,0.0,0.0,0.0,0.0,0.0,0.0,0.0,0.0,0.0,0.0,0.0,0.0,0.0,0.0,0.0,0.0,0.0,0.0,0.0,0.0,0.0,0.0,0.0,0.0,0.0,0.0,0.0,0.0,0.0,0.0,0.0,0.0,0.0,0.0,0.0,0.0,0.0,0.0,0.0,0.0,0.0,0.0,0.0,0.0,0.0,0.0,0.0,0.0,0.0,0.0,0.0,0.0,0.0,0.0,0.0,0.0,0.0,0.0,0.0,0.0,0.0,0.0,0.0,0.0,0.0,0.0,0.0,0.0,0.0,0.0,0.0,0.0,0.0,0.0,0.0,0.0,0.0,0.0,0.0,0.0,0.0,0.0,0.0,0.0,0.0,0.0,0.0,0.0,0.0,0.0,0.0,0.0,0.0,0.0,0.0,0.0,0.0,0.0,0.0,0.0,0.0,0.0,0.0,0.0,0.0,0.0,0.0,0.0,0.0,0.0,0.0,0.0,0.0,0.0,0.0,0.0,0.0,0.0,0.0,0.0,0.0,0.0,0.0,0.0,0.0,0.0,0.0,0.0,0.0,0.0,0.0,0.0,0.0,0.0,0.0,0.0,0.0,0.0,0.0,0.0,0.0,0.0,0.0,0.0,0.0,0.0,0.0,0.0,0.0,0.0,0.0,0.0,0.0,0.0,0.0,0.0,0.0,0.0,0.0,0.0,0.0,0.0,0.0,0.0,0.0,0.0,0.0,0.0,0.0,0.0,0.0,0.0,0.0,0.0,0.0,0.0,0.0,0.0,0.0,0.0,0.0,0.0,0.0,0.0,0.0,0.0,0.0,0.0,0.0,0.0,0.0,0.0,0.0,0.0,0.0,0.0,0.0,0.0,0.0,0.0,0.0,0.0,0.0,0.0,0.0,0.0,0.0,0.0,0.0,0.0,0.0,0.0,0.0,0.0,0.0,0.0,0.0,0.0,0.0,0.0,0.0,0.0,0.0,0.0,0.0,0.0,0.0,0.0,0.0,0.0,0.0,0.0,0.0,0.0,0.0,0.0,0.0,0.0,0.0,0.0,0.0,0.0,0.0,0.0,0.0,0.0,0.0,0.0,0.0,0.0,0.0,0.0,0.0,0.0,0.0,0.0,0.0,0.0,0.0,0.0,0.0,0.0,0.0,0.0,0.0,0.0,0.0,0.0,0.0,0.0,0.0,0.0,0.0,0.0,0.0,0.0,0.0,0.0,0.0,0.0,0.0,0.0,0.0,0.0,0.0,0.0,0.0,0.0,0.0,0.0,0.0,0.0,0.0,0.0,0.0,0.0,0.0,0.0,0.0,0.0,0.0,0.0,0.0,0.0,0.0,0.0,0.0,0.0,0.0,0.0,0.0,0.0,0.0,0.0,0.0,0.0,0.0,0.0,0.0,0.0,0.0,0.0,0.0,0.0,0.0,0.0,0.0,0.0,0.0,0.0,0.0,0.0,0.0,0.0,0.0,0.0,0.0,0.0,0.0,0.0,0.0,0.0,0.0,0.0,0.0,0.0,0.0,0.0,0.0,0.0,0.0,0.0,0.0,0.0,0.0,0.0,0.0,0.0,0.0,0.0,0.0,0.0,0.0,0.0,0.0,0.0,0.0,0.0,0.0,0.0,0.0,0.0,0.0,0.0,0.0,0.0,0.0,0.0,0.0,0.0,0.0,0.0,0.0,0.0,0.0,0.0,0.0,0.0,0.0,0.0,0.0,0.0,0.0,0.0,0.0,0.0,0.0,0.0,0.0,0.0,0.0,0.0,0.0,0.0,0.0,0.0,0.0,0.0,0.0,0.0,0.0,0.0,0.0,0.0,0.0,0.0,0.0,0.0,0.0,0.0,0.0,0.0,0.0,0.0,0.0,0.0,0.0,0.0,0.0,0.0,0.0,0.0,0.0,0.0,0.0,0.0,0.0,0.0,0.0,0.0,0.0,0.0,0.0,0.0,0.0,0.0,0.0,0.0,0.0,0.0,0.0,0.0,0.0,0.0,0.0,0.0,0.0,0.0,0.0,0.0,0.0,0.0,0.0,0.0,0.0,0.0,0.0,0.0,0.0,0.0,0.0,0.0,0.0,0.0,0.0,0.0,0.0,0.0,0.0,0.0,0.0,0.0,0.0,0.0,0.0,0.0,0.0,0.0,0.0,0.0,0.0,0.0,0.0,0.0,0.0,0.0,0.0,0.0,0.0,0.0,0.0,0.0,0.0,0.0,0.0,0.0,0.0,0.0,0.0,0.0,0.0,0.0,0.0,0.0,0.0,0.0,0.0,0.0,0.0,0.0,0.0,0.0,0.0,0.0,0.0,0.0,0.0,0.0,0.0,0.0,0.0,0.0,0.0,0.0,0.0,0.0,0.0,0.0,0.0,0.0,0.0,0.0,0.0,0.0,0.0,0.0,0.0,0.0,0.0,0.0,0.0,0.0,0.0,0.0,0.0,0.0,0.0,0.0,0.0,0.0,0.0,0.0,0.0,0.0,0.0,0.0,0.0,0.0,0.0,0.0,0.0,0.0,0.0,0.0,0.0,0.0,0.0,0.0,0.0,0.0,0.0,0.0,0.0,0.0,0.0,0.0,0.0,0.0,0.0,0.0,0.0,0.0,0.0,0.0,0.0,0.0,0.0,0.0,0.0,0.0,0.0,0.0,0.0,0.0,0.0,0.0,0.0,0.0,0.0,0.0,0.0,0.0,0.0,0.0,0.0,0.0,0.0,0.0,0.0,0.0,0.0,0.0,0.0,0.0,0.0,0.0,0.0,0.0,0.0,0.0,0.0,0.0,0.0,0.0,0.0,0.0,0.0,0.0,0.0,0.0,0.0,0.0,0.0,0.0,0.0,0.0,0.0,0.0,0.0,0.0,0.0,0.0,0.0,0.0,0.0,-1.4205,0.0,0.0,0.0,0.0,0.0,0.0,0.0,0.0,0.0,0.0,0.0,0.0,0.0,0.0,0.0,0.0,0.0,0.0,0.0,0.0,0.0,0.0,0.0,0.0,0.0,0.0,0.0,0.0,0.0,0.0,0.0,0.0,0.0,0.0,0.0,0.0,0.0,0.0,0.0,0.0,0.0,0.0,0.0,0.0,0.0,0.0,0.0,0.0,0.0,0.0,0.0,0.0,0.0,0.0,0.0,0.0,0.0,0.0,0.0,0.0,0.0,0.0,0.0,0.0,0.0,0.0,0.0,0.0,0.0,0.0,0.0,0.0,0.0,0.0,0.0,0.0,0.0,0.0,0.0,0.0,0.0,0.0,0.0,0.0,0.0,0.0,0.0,0.0,0.0,0.0,0.0,0.0,0.0,0.0,0.0,0.0,0.0,0.0,0.0,0.0,0.0,0.0,0.0,0.0,0.0,0.0,0.0,0.0,0.0,0.0,-1.6789,-1.4191,-1.3646,-1.3558,-1.3925,0.0,0.0,0.0,0.0,0.0,0.0,0.0,0.0,0.0,0.0,0.0,0.0,0.0,0.0,0.0,0.0,0.0,0.0,0.0,0.0,0.0,0.0,0.0,0.0,0.0,0.0,0.0,0.0,0.0,0.0,0.0,0.0,0.0,0.0,0.0,0.0,0.0,0.0,0.0,0.0,0.0,0.0,0.0,0.0,0.0,0.0,0.0,0.0,0.0,0.0,0.0,0.0,0.0,0.0,0.0,0.0,0.0,0.0,0.0,0.0,0.0,0.0,0.0,0.0,0.0,0.0,0.0,0.0,0.0,0.0,0.0,0.0,0.0,0.0,0.0,0.0,0.0,0.0,0.0,0.0,0.0,0.0,0.0,0.0,0.0,0.0,0.0,0.0,0.0,0.0,0.0,0.0,0.0,0.0,0.0,0.0,0.0,0.0,0.0,0.0,0.0,0.0,0.0,0.0,0.0,0.0,0.0,0.0,0.0,0.0,0.0,0.0,-1.2276,-1.2382,-1.3282,0.0,0.0,0.0,0.0,0.0,0.0,0.0,0.0,0.0,0.0,0.0,0.0,0.0,0.0,0.0,0.0,0.0,0.0,0.0,0.0,0.0,0.0,0.0,0.0,0.0,0.0,0.0,0.0,0.0,0.0,0.0,0.0,0.0,0.0,0.0,0.0,0.0,0.0,0.0,0.0,0.0,0.0,0.0,0.0,0.0,0.0,0.0,0.0,0.0,0.0,0.0,0.0,0.0,0.0,0.0,0.0,0.0,0.0,0.0,0.0,0.0,0.0,0.0,0.0,0.0,0.0,0.0,0.0,0.0,0.0,0.0,0.0,0.0,0.0,0.0,0.0,0.0,0.0,0.0,0.0,0.0,0.0,0.0,0.0,0.0,0.0,0.0,0.0,0.0,0.0,0.0,0.0,0.0,0.0,0.0,0.0,0.0,0.0,0.0,0.0,0.0,0.0,0.0,0.0,0.0,0.0,0.0,0.0,0.0,0.0,-1.3035,-1.0943,-1.036,0.0,-1.1752,0.0,0.0,0.0,0.0,0.0,0.0,0.0,0.0,0.0,0.0,0.0,0.0,0.0,0.0,0.0,0.0,0.0,0.0,0.0,0.0,0.0,0.0,0.0,0.0,0.0,0.0,0.0,0.0,0.0,0.0,0.0,0.0,0.0,0.0,0.0,0.0,0.0,0.0,0.0,0.0,0.0,0.0,0.0,0.0,0.0,0.0,0.0,0.0,0.0,0.0,0.0,0.0,0.0,0.0,0.0,0.0,0.0,0.0,0.0,0.0,0.0,0.0,0.0,0.0,0.0,0.0,0.0,0.0,0.0,0.0,0.0,0.0,0.0,0.0,0.0,0.0,0.0,0.0,0.0,0.0,0.0,0.0,0.0,0.0,0.0,0.0,0.0,0.0,0.0,0.0,0.0,0.0,0.0,0.0,0.0,0.0,0.0,0.0,0.0,0.0,0.0,0.0,0.0,0.0,0.0,0.0,0.0,0.0,0.0,0.0,-1.0895,-0.9516,-0.9839,-1.0454,0.0,0.0,0.0,0.0,0.0,0.0,0.0,0.0,0.0,0.0,0.0,0.0,0.0,0.0,0.0,0.0,0.0,0.0,0.0,0.0,0.0,0.0,0.0,0.0,0.0,0.0,0.0,0.0,0.0,0.0,0.0,0.0,0.0,0.0,0.0,0.0,0.0,0.0,0.0,0.0,0.0,0.0,0.0,0.0,0.0,0.0,0.0,0.0,0.0,0.0,0.0,0.0,0.0,0.0,0.0,0.0,0.0,0.0,0.0,0.0,0.0,0.0,0.0,0.0,0.0,0.0,0.0,0.0,0.0,0.0,0.0,0.0,0.0,0.0,0.0,0.0,0.0,0.0,0.0,0.0,0.0,0.0,0.0,0.0,0.0,0.0,0.0,0.0,0.0,0.0,0.0,0.0,0.0,0.0,0.0,0.0,0.0,0.0,0.0,0.0,0.0,0.0,0.0,0.0,0.0,0.0,0.0,0.0,0.0,0.0,-1.0779,-0.8463,-0.7914,-0.8853,-0.9727,-1.0325,0.0,0.0,0.0,0.0,0.0,0.0,0.0,0.0,0.0,0.0,0.0,0.0,0.0,0.0,0.0,0.0,0.0,0.0,0.0,0.0,0.0,0.0,0.0,0.0,0.0,0.0,0.0,0.0,0.0,0.0,0.0,0.0,0.0,0.0,0.0,0.0,0.0,0.0,0.0,0.0,0.0,0.0,0.0,0.0,0.0,0.0,0.0,0.0,0.0,0.0,0.0,0.0,0.0,0.0,0.0,0.0,0.0,0.0,0.0,0.0,0.0,0.0,0.0,0.0,0.0,0.0,0.0,0.0,0.0,0.0,0.0,0.0,0.0,0.0,0.0,0.0,0.0,0.0,0.0,0.0,0.0,0.0,0.0,0.0,0.0,0.0,0.0,0.0,0.0,0.0,0.0,0.0,0.0,0.0,0.0,0.0,0.0,0.0,0.0,0.0,0.0,0.0,0.0,0.0,0.0,0.0,0.0,0.0,-0.9681,-0.6913,-0.5576,-0.5714,-0.6867,-0.7732,0.0,0.0,0.0,0.0,0.0,0.0,0.0,0.0,0.0,0.0,0.0,0.0,0.0,0.0,0.0,0.0,0.0,0.0,0.0,0.0,0.0,0.0,0.0,0.0,0.0,0.0,0.0,0.0,0.0,0.0,0.0,0.0,0.0,0.0,0.0,0.0,0.0,0.0,0.0,0.0,0.0,0.0,0.0,0.0,0.0,0.0,0.0,0.0,0.0,0.0,0.0,0.0,0.0,0.0,0.0,0.0,0.0,0.0,0.0,0.0,0.0,0.0,0.0,0.0,0.0,0.0,0.0,0.0,0.0,0.0,0.0,0.0,0.0,0.0,0.0,0.0,0.0,0.0,0.0,0.0,0.0,0.0,0.0,0.0,0.0,0.0,0.0,0.0,0.0,0.0,0.0,0.0,0.0,0.0,0.0,0.0,0.0,0.0,0.0,0.0,0.0,0.0,0.0,0.0,0.0,0.0,0.0,0.0,0.0,-0.6696,-0.531,-0.5087,-0.5904,-0.6856,-0.7702,0.0,0.0,0.0,0.0,0.0,0.0,0.0,0.0,0.0,0.0,0.0,0.0,0.0,0.0,0.0,0.0,0.0,0.0,0.0,0.0,0.0,0.0,0.0,0.0,0.0,0.0,0.0,0.0,0.0,0.0,0.0,0.0,0.0,0.0,0.0,0.0,0.0,0.0,0.0,0.0,0.0,0.0,0.0,0.0,0.0,0.0,0.0,0.0,0.0,0.0,0.0,0.0,0.0,0.0,0.0,0.0,0.0,0.0,0.0,0.0,0.0,0.0,0.0,0.0,0.0,0.0,0.0,0.0,0.0,0.0,0.0,0.0,0.0,0.0,0.0,0.0,0.0,0.0,0.0,0.0,0.0,0.0,0.0,0.0,0.0,0.0,0.0,0.0,0.0,0.0,0.0,0.0,0.0,0.0,0.0,0.0,0.0,0.0,0.0,0.0,0.0,0.0,0.0,0.0,0.0,0.0,0.0,0.0,0.0,-0.4035,0.0,-0.4157,-0.5443,-0.6573,-0.7541,0.0,0.0,0.0,0.0,0.0,0.0,0.0,0.0,0.0,0.0,0.0,0.0,0.0,0.0,0.0,0.0,0.0,0.0,0.0,0.0,0.0,0.0,0.0,0.0,0.0,0.0,0.0,0.0,0.0,0.0,0.0,0.0,0.0,0.0,0.0,0.0,0.0,0.0,0.0,0.0,0.0,0.0,0.0,0.0,0.0,0.0,0.0,0.0,0.0,0.0,0.0,0.0,0.0,0.0,0.0,0.0,0.0,0.0,0.0,0.0,0.0,0.0,0.0,0.0,0.0,0.0,0.0,0.0,0.0,0.0,0.0,0.0,0.0,0.0,0.0,0.0,0.0,0.0,0.0,0.0,0.0,0.0,0.0,0.0,0.0,0.0,0.0,0.0,0.0,0.0,0.0,0.0,0.0,0.0,0.0,0.0,0.0,0.0,0.0,0.0,0.0,0.0,0.0,0.0,0.0,0.0,0.0,0.0,-0.6985,-0.1723,-0.1849,-0.2798,-0.4123,-0.5832,-0.7111,0.0,0.0,0.0,0.0,0.0,0.0,0.0,0.0,0.0,0.0,0.0,0.0,0.0,0.0,0.0,0.0,0.0,0.0,0.0,0.0,0.0,0.0,0.0,0.0,0.0,0.0,0.0,0.0,0.0,0.0,0.0,0.0,0.0,0.0,0.0,0.0,0.0,0.0,0.0,0.0,0.0,0.0,0.0,0.0,0.0,0.0,0.0,0.0,0.0,0.0,0.0,0.0,0.0,0.0,0.0,0.0,0.0,0.0,0.0,0.0,0.0,0.0,0.0,0.0,0.0,0.0,0.0,0.0,0.0,0.0,0.0,0.0,0.0,0.0,0.0,0.0,0.0,0.0,0.0,0.0,0.0,0.0,0.0,0.0,0.0,0.0,0.0,0.0,0.0,0.0,0.0,0.0,0.0,0.0,0.0,0.0,0.0,0.0,0.0,0.0,0.0,0.0,0.0,0.0,0.0,0.0,0.0,0.0,0.0,-0.1563,-0.2894,-0.4042,-0.4939,-0.627,-0.7225,0.0,0.0,0.0,0.0,0.0,0.0,0.0,0.0,0.0,0.0,0.0,0.0,0.0,0.0,0.0,0.0,0.0,0.0,0.0,0.0,0.0,0.0,0.0,0.0,0.0,0.0,0.0,0.0,0.0,0.0,0.0,0.0,0.0,0.0,0.0,0.0,0.0,0.0,0.0,0.0,0.0,0.0,0.0,0.0,0.0,0.0,0.0,0.0,0.0,0.0,0.0,0.0,0.0,0.0,0.0,0.0,0.0,0.0,0.0,0.0,0.0,0.0,0.0,0.0,0.0,0.0,0.0,0.0,0.0,0.0,0.0,0.0,0.0,0.0,0.0,0.0,0.0,0.0,0.0,0.0,0.0,0.0,0.0,0.0,0.0,0.0,0.0,0.0,0.0,0.0,0.0,0.0,0.0,0.0,0.0,0.0,0.0,0.0,0.0,0.0,0.0,0.0,0.0,0.0,0.0,0.0,0.0,0.0,0.0,-0.2694,-0.3334,-0.4127,-0.4997,-0.6576,-0.7611,-0.811,0.0,0.0,0.0,0.0,0.0,0.0,0.0,0.0,0.0,0.0,0.0,0.0,0.0,0.0,0.0,0.0,0.0,0.0,0.0,0.0,0.0,0.0,0.0,0.0,0.0,0.0,0.0,0.0,0.0,0.0,0.0,0.0,0.0,0.0,0.0,0.0,0.0,0.0,0.0,0.0,0.0,0.0,0.0,0.0,0.0,0.0,0.0,0.0,0.0,0.0,0.0,0.0,0.0,0.0,0.0,0.0,0.0,0.0,0.0,0.0,0.0,0.0,0.0,0.0,0.0,0.0,0.0,0.0,0.0,0.0,0.0,0.0,0.0,0.0,0.0,0.0,0.0,0.0,0.0,0.0,0.0,0.0,0.0,0.0,0.0,0.0,0.0,0.0,0.0,0.0,0.0,0.0,0.0,0.0,0.0,0.0,0.0,0.0,0.0,0.0,0.0,0.0,0.0,0.0,0.0,0.0,0.0,0.0,-0.4861,-0.373,-0.3681,-0.482,-0.6876,-0.8219,0.0,0.0,0.0,0.0,0.0,0.0,0.0,0.0,0.0,0.0,0.0,0.0,0.0,0.0,0.0,0.0,0.0,0.0,0.0,0.0,0.0,0.0,0.0,0.0,0.0,0.0,0.0,0.0,0.0,0.0,0.0,0.0,0.0,0.0,0.0,0.0,0.0,0.0,0.0,0.0,0.0,0.0,0.0,0.0,0.0,0.0,0.0,0.0,0.0,0.0,0.0,0.0,0.0,0.0,0.0,0.0,0.0,0.0,0.0,0.0,0.0,0.0,0.0,0.0,0.0,0.0,0.0,0.0,0.0,0.0,0.0,0.0,0.0,0.0,0.0,0.0,0.0,0.0,0.0,0.0,0.0,0.0,0.0,0.0,0.0,0.0,0.0,0.0,0.0,0.0,0.0,0.0,0.0,0.0,0.0,0.0,0.0,0.0,0.0,0.0,0.0,0.0,0.0,0.0,0.0,0.0,0.0,0.0,0.0,-0.8015,-0.866,-0.8391,-0.7001,-0.8065,-0.9004,0.0,0.0,0.0,0.0,0.0,0.0,0.0,0.0,0.0,0.0,0.0,0.0,0.0,0.0,0.0,0.0,0.0,0.0,0.0,0.0,0.0,0.0,0.0,0.0,0.0,0.0,0.0,0.0,0.0,0.0,0.0,0.0,0.0,0.0,0.0,0.0,0.0,0.0,0.0,0.0,0.0,0.0,0.0,0.0,0.0,0.0,0.0,0.0,0.0,0.0,0.0,0.0,0.0,0.0,0.0,0.0,0.0,0.0,0.0,0.0,0.0,0.0,0.0,0.0,0.0,0.0,0.0,0.0,0.0,0.0,0.0,0.0,0.0,0.0,0.0,0.0,0.0,0.0,0.0,0.0,0.0,0.0,0.0,0.0,0.0,0.0,0.0,0.0,0.0,0.0,0.0,0.0,0.0,0.0,0.0,0.0,0.0,0.0,0.0,0.0,0.0,0.0,0.0,0.0,0.0,0.0,0.0,0.0,-1.2693,-1.1921,-1.3239,-1.3332,-1.2192,-1.146,-1.1183,0.0,0.0,0.0,0.0,0.0,0.0,0.0,0.0,0.0,0.0,0.0,0.0,0.0,0.0,0.0,0.0,0.0,0.0,0.0,0.0,0.0,0.0,0.0,0.0,0.0,0.0,0.0,0.0,0.0,0.0,0.0,0.0,0.0,0.0,0.0,0.0,0.0,0.0,0.0,0.0,0.0,0.0,0.0,0.0,0.0,0.0,0.0,0.0,0.0,0.0,0.0,0.0,0.0,0.0,0.0,0.0,0.0,0.0,0.0,0.0,0.0,0.0,0.0,0.0,0.0,0.0,0.0,0.0,0.0,0.0,0.0,0.0,0.0,0.0,0.0,0.0,0.0,0.0,0.0,0.0,0.0,0.0,0.0,0.0,0.0,0.0,0.0,0.0,0.0,0.0,0.0,0.0,0.0,0.0,0.0,0.0,0.0,0.0,0.0,0.0,0.0,0.0,0.0,0.0,0.0,0.0,0.0,0.0,-1.6898,-1.6418,-1.7477,-1.8286,-1.8793,-1.5945,-1.4242,0.0,0.0,0.0,0.0,0.0,0.0,0.0,0.0,0.0,0.0,0.0,0.0,0.0,0.0,0.0,0.0,0.0,0.0,0.0,0.0,0.0,0.0,0.0,0.0,0.0,0.0,0.0,0.0,0.0,0.0,0.0,0.0,0.0,0.0,0.0,0.0,0.0,0.0,0.0,0.0,0.0,0.0,0.0,0.0,0.0,0.0,0.0,0.0,0.0,0.0,0.0,0.0,0.0,0.0,0.0,0.0,0.0,0.0,0.0,0.0,0.0,0.0,0.0,0.0,0.0,0.0,0.0,0.0,0.0,0.0,0.0,0.0,0.0,0.0,0.0,0.0,0.0,0.0,0.0,0.0,0.0,0.0,0.0,0.0,0.0,0.0,0.0,0.0,0.0,0.0,0.0,0.0,0.0,0.0,0.0,0.0,0.0,0.0,0.0,0.0,0.0,0.0,0.0,0.0,0.0,0.0,0.0,0.0,-2.0726,-2.1112,-2.1672,-2.2262,-2.2913,-1.9037,-1.6836,0.0,0.0,0.0,0.0,0.0,0.0,0.0,0.0,0.0,0.0,0.0,0.0,0.0,0.0,0.0,0.0,0.0,0.0,0.0,0.0,0.0,0.0,0.0,0.0,0.0,0.0,0.0,0.0,0.0,0.0,0.0,0.0,0.0,0.0,0.0,0.0,0.0,0.0,0.0,0.0,0.0,0.0,0.0,0.0,0.0,0.0,0.0,0.0,-2.3883,0.0,0.0,0.0,0.0,0.0,0.0,0.0,0.0,0.0,0.0,0.0,0.0,0.0,0.0,0.0,0.0,0.0,0.0,0.0,0.0,0.0,0.0,0.0,0.0,0.0,0.0,0.0,0.0,0.0,0.0,0.0,0.0,0.0,0.0,0.0,0.0,0.0,0.0,0.0,0.0,0.0,0.0,0.0,0.0,0.0,0.0,0.0,0.0,0.0,0.0,0.0,0.0,0.0,0.0,0.0,0.0,0.0,0.0,0.0,-2.3466,-2.3899,-2.4537,-2.5037,-2.5317,-2.2915,-2.1142,0.0,0.0,0.0,0.0,0.0,0.0,0.0,0.0,0.0,0.0,0.0,0.0,0.0,0.0,0.0,0.0,0.0,0.0,0.0,0.0,0.0,0.0,0.0,0.0,0.0,0.0,0.0,0.0,0.0,0.0,0.0,0.0,0.0,0.0,0.0,0.0,0.0,0.0,0.0,0.0,0.0,0.0,0.0,0.0,0.0,0.0,0.0,0.0,0.0,0.0,0.0,0.0,0.0,0.0,0.0,0.0,0.0,0.0,0.0,0.0,0.0,0.0,0.0,0.0,0.0,0.0,0.0,0.0,0.0,0.0,0.0,0.0,0.0,0.0,0.0,0.0,0.0,0.0,0.0,0.0,0.0,0.0,0.0,0.0,0.0,0.0,0.0,0.0,0.0,0.0,0.0,0.0,0.0,0.0,0.0,0.0,0.0,0.0,0.0,0.0,0.0,0.0,0.0,0.0,0.0,0.0,0.0,-2.499,-2.5241,-2.5516,-2.6326,-2.684,-2.6997,-2.6572,-2.5546,-2.389,0.0,0.0,0.0,0.0,0.0,0.0,0.0,0.0,0.0,0.0,0.0,0.0,0.0,0.0,0.0,0.0,0.0,0.0,0.0,0.0,0.0,0.0,0.0,0.0,0.0,0.0,0.0,0.0,0.0,0.0,0.0,0.0,0.0,0.0,0.0,0.0,0.0,0.0,-3.1369,-3.0888,0.0,0.0,0.0,0.0,0.0,0.0,0.0,0.0,-2.4989,0.0,0.0,0.0,0.0,0.0,0.0,0.0,0.0,0.0,0.0,0.0,0.0,0.0,0.0,0.0,0.0,0.0,0.0,0.0,0.0,0.0,0.0,0.0,0.0,0.0,0.0,0.0,0.0,0.0,0.0,0.0,0.0,0.0,0.0,0.0,0.0,0.0,0.0,0.0,0.0,0.0,0.0,0.0,0.0,0.0,0.0,0.0,0.0,0.0,0.0,0.0,0.0,0.0,0.0,0.0,0.0,-2.6363,-2.5511,-2.5528,-2.6343,-2.6532,-2.7087,-2.8019,-2.7911,-2.7749,-2.7492,0.0,0.0,0.0,0.0,0.0,0.0,0.0,0.0,0.0,0.0,0.0,0.0,0.0,0.0,0.0,0.0,0.0,0.0,0.0,0.0,0.0,0.0,0.0,0.0,0.0,0.0,0.0,0.0,0.0,0.0,0.0,0.0,0.0,0.0,0.0,0.0,0.0,0.0,0.0,-3.2281,-3.2152,0.0,0.0,0.0,0.0,0.0,0.0,0.0,0.0,-2.6107,0.0,0.0,0.0,0.0,0.0,0.0,0.0,0.0,0.0,0.0,0.0,0.0,0.0,0.0,0.0,0.0,0.0,0.0,0.0,0.0,0.0,0.0,0.0,0.0,0.0,0.0,0.0,0.0,0.0,0.0,0.0,0.0,0.0,0.0,0.0,0.0,0.0,0.0,0.0,0.0,0.0,0.0,0.0,0.0,0.0,0.0,0.0,0.0,0.0,0.0,0.0,0.0,0.0,0.0,0.0,-2.7645,-2.7391,-2.738,-2.7594,-2.7809,-2.8068,-2.8508,-2.844,-2.8401,0.0,0.0,0.0,0.0,0.0,0.0,0.0,0.0,0.0,0.0,0.0,0.0,0.0,0.0,0.0,0.0,0.0,0.0,0.0,0.0,0.0,0.0,0.0,0.0,0.0,0.0,0.0,0.0,0.0,0.0,0.0,0.0,0.0,0.0,0.0,0.0,0.0,0.0,0.0,0.0,-3.3345,-3.333,-3.3067,0.0,0.0,0.0,0.0,0.0,0.0,-2.7385,-2.6729,0.0,0.0,0.0,0.0,0.0,0.0,0.0,0.0,0.0,0.0,0.0,0.0,0.0,0.0,0.0,0.0,0.0,0.0,0.0,0.0,0.0,0.0,0.0,0.0,0.0,0.0,0.0,0.0,0.0,0.0,0.0,0.0,0.0,0.0,0.0,0.0,0.0,0.0,0.0,0.0,0.0,0.0,0.0,0.0,0.0,0.0,0.0,0.0,0.0,0.0,0.0,0.0,0.0,0.0,0.0,-2.8801,-2.9066,-2.9078,-2.8695,-2.9029,-2.9185,-2.9178,-2.9105,-2.9016,0.0,0.0,0.0,0.0,0.0,0.0,0.0,0.0,0.0,0.0,0.0,0.0,0.0,0.0,0.0,0.0,0.0,0.0,0.0,0.0,0.0,0.0,0.0,0.0,0.0,0.0,0.0,0.0,0.0,0.0,0.0,0.0,0.0,0.0,0.0,0.0,0.0,0.0,0.0,0.0,0.0,-3.456,-3.3684,-3.3345,0.0,0.0,0.0,0.0,-2.9023,-2.8548,0.0,0.0,0.0,0.0,0.0,0.0,0.0,0.0,0.0,0.0,0.0,0.0,0.0,0.0,0.0,0.0,0.0,0.0,0.0,0.0,0.0,0.0,0.0,0.0,0.0,0.0,0.0,0.0,0.0,0.0,0.0,0.0,0.0,0.0,0.0,0.0,0.0,0.0,0.0,0.0,0.0,0.0,0.0,0.0,0.0,0.0,0.0,0.0,0.0,0.0,0.0,0.0,0.0,0.0,0.0,0.0,-2.9695,-2.9307,-2.9154,-2.9197,-2.9485,-2.9872,-3.0482,-3.0747,-3.0859,0.0,0.0,0.0,0.0,0.0,0.0,0.0,0.0,0.0,0.0,0.0,0.0,0.0,0.0,0.0,0.0,0.0,0.0,0.0,0.0,0.0,0.0,0.0,0.0,0.0,0.0,0.0,0.0,0.0,0.0,0.0,0.0,0.0,0.0,0.0,0.0,0.0,0.0,0.0,0.0,0.0,-3.6532,-3.4626,-3.5141,-3.5082,0.0,0.0,-3.1863,-3.1541,-3.2032,0.0,0.0,0.0,0.0,0.0,0.0,0.0,0.0,0.0,0.0,0.0,0.0,0.0,0.0,0.0,0.0,0.0,0.0,0.0,0.0,0.0,0.0,0.0,0.0,0.0,0.0,0.0,0.0,0.0,0.0,0.0,0.0,0.0,0.0,0.0,0.0,0.0,0.0,0.0,0.0,0.0,0.0,0.0,0.0,0.0,0.0,0.0,0.0,0.0,0.0,0.0,0.0,0.0,0.0,0.0,-3.1402,-3.0599,-3.0644,-3.0733,-3.0799,-3.0888,-3.1173,-3.1647,-3.1402,-3.1324,0.0,0.0,0.0,0.0,0.0,0.0,0.0,0.0,0.0,0.0,0.0,0.0,0.0,0.0,0.0,0.0,0.0,0.0,0.0,0.0,0.0,0.0,0.0,0.0,0.0,0.0,0.0,0.0,0.0,0.0,0.0,0.0,0.0,0.0,0.0,0.0,0.0,0.0,0.0,0.0,0.0,0.0,-3.5756,-3.638,0.0,0.0,0.0,-3.3955,-3.3165,0.0,0.0,0.0,0.0,0.0,0.0,0.0,0.0,0.0,0.0,0.0,0.0,0.0,0.0,0.0,0.0,0.0,0.0,0.0,0.0,0.0,0.0,0.0,0.0,0.0,0.0,0.0,0.0,0.0,0.0,0.0,0.0,0.0,0.0,0.0,0.0,0.0,0.0,0.0,0.0,0.0,0.0,0.0,0.0,0.0,0.0,0.0,0.0,0.0,0.0,0.0,0.0,0.0,0.0,0.0,0.0,0.0,-3.129,-3.1809,-3.2147,-3.2165,-3.2378,-3.2606,-3.2851,-3.2499,0.0,0.0,0.0,0.0,0.0,0.0,0.0,0.0,0.0,0.0,0.0,0.0,0.0,0.0,0.0,0.0,0.0,0.0,0.0,0.0,0.0,0.0,0.0,0.0,0.0,0.0,0.0,-3.2831,0.0,0.0,0.0,0.0,0.0,0.0,0.0,0.0,0.0,0.0,0.0,0.0,0.0,0.0,-3.6443,-3.6607,-3.7305,-3.7463,0.0,0.0,-3.5794,-3.4856,-3.4451,-3.403,0.0,0.0,0.0,0.0,0.0,0.0,0.0,0.0,0.0,0.0,0.0,0.0,0.0,0.0,0.0,0.0,0.0,0.0,0.0,0.0,0.0,0.0,0.0,0.0,0.0,0.0,0.0,0.0,0.0,0.0,0.0,0.0,0.0,0.0,0.0,0.0,0.0,0.0,0.0,0.0,0.0,0.0,0.0,0.0,0.0,0.0,0.0,0.0,0.0,0.0,0.0,0.0,0.0,0.0,0.0,-3.1437,-3.2212,-3.2695,-3.27,-3.3634,-3.4161,-3.4168,-3.4697,-3.4847,0.0,0.0,0.0,0.0,0.0,0.0,0.0,0.0,0.0,0.0,0.0,0.0,0.0,0.0,0.0,0.0,0.0,0.0,0.0,0.0,0.0,0.0,0.0,0.0,0.0,0.0,0.0,0.0,0.0,0.0,0.0,0.0,0.0,0.0,0.0,0.0,0.0,0.0,0.0,0.0,0.0,-3.8061,-3.6856,-3.7869,-3.8567,0.0,0.0,-3.734,-3.7012,-3.8276,-3.8371,-3.5742,0.0,0.0,0.0,0.0,0.0,0.0,0.0,0.0,0.0,0.0,0.0,0.0,0.0,0.0,0.0,0.0,0.0,0.0,0.0,0.0,0.0,0.0,0.0,0.0,0.0,0.0,0.0,0.0,0.0,0.0,0.0,0.0,0.0,0.0,0.0,0.0,0.0,0.0,0.0,0.0,0.0,0.0,0.0,0.0,0.0,0.0,0.0,0.0,0.0,0.0,0.0,0.0,0.0,-3.224,-3.2138,-3.309,-3.3916,-3.4593,-3.527,-3.5808,-3.6199,-3.5772,-3.5457,0.0,0.0,0.0,0.0,0.0,0.0,0.0,0.0,0.0,0.0,0.0,0.0,0.0,0.0,0.0,0.0,0.0,0.0,0.0,0.0,0.0,0.0,0.0,0.0,0.0,0.0,0.0,0.0,-3.1675,-3.141,-3.1238,0.0,0.0,0.0,0.0,0.0,0.0,0.0,0.0,0.0,0.0,-3.8754,-4.0,-4.0551,0.0,0.0,-4.0492,-4.0168,-3.9802,-3.9563,-3.9001,-3.7667,-3.6685,0.0,0.0,0.0,0.0,0.0,0.0,0.0,0.0,0.0,0.0,0.0,0.0,0.0,0.0,0.0,0.0,0.0,0.0,0.0,0.0,0.0,0.0,0.0,0.0,0.0,0.0,0.0,0.0,0.0,0.0,0.0,0.0,0.0,0.0,0.0,0.0,0.0,0.0,0.0,0.0,0.0,0.0,0.0,0.0,0.0,0.0,0.0,0.0,0.0,0.0,0.0,0.0,-3.2671,-3.2868,-3.4071,-3.5142,-3.6109,-3.673,-3.7327,-3.7775,-3.6915,-3.6457,0.0,0.0,0.0,0.0,0.0,0.0,0.0,0.0,0.0,0.0,0.0,0.0,0.0,0.0,0.0,0.0,0.0,0.0,0.0,0.0,0.0,0.0,0.0,0.0,0.0,0.0,0.0,0.0,-3.2047,-3.1436,-3.1048,0.0,0.0,0.0,0.0,0.0,0.0,0.0,0.0,0.0,0.0,-4.0389,-4.2345,-4.245,-4.2468,-4.2551,-4.2299,-4.2022,-4.1806,-4.116,-4.025,-3.9129,0.0,0.0,0.0,0.0,0.0,0.0,0.0,0.0,0.0,0.0,0.0,0.0,0.0,0.0,0.0,0.0,0.0,0.0,0.0,0.0,0.0,0.0,0.0,0.0,0.0,0.0,0.0,0.0,0.0,0.0,-2.7924,0.0,0.0,0.0,0.0,0.0,0.0,0.0,0.0,0.0,0.0,0.0,0.0,0.0,0.0,0.0,0.0,0.0,0.0,0.0,0.0,0.0,0.0,-3.358,-3.3603,-3.5146,-3.6247,-3.6903,-3.7841,-3.8499,-3.8798,-3.8323,-3.8173,-3.8393,0.0,0.0,0.0,0.0,0.0,0.0,0.0,0.0,0.0,0.0,0.0,0.0,0.0,0.0,0.0,0.0,0.0,0.0,0.0,0.0,0.0,0.0,0.0,0.0,0.0,0.0,-3.5776,-3.3585,-3.169,0.0,0.0,0.0,0.0,0.0,0.0,0.0,0.0,0.0,0.0,-4.2212,-4.3377,-4.3165,-4.3216,-4.3338,-4.3299,-4.2743,-4.2497,-4.2874,-4.3458,-4.2917,0.0,0.0,0.0,0.0,0.0,0.0,0.0,0.0,0.0,0.0,0.0,0.0,0.0,0.0,0.0,0.0,0.0,0.0,0.0,0.0,0.0,0.0,0.0,0.0,0.0,0.0,0.0,-2.6432,-2.6552,0.0,0.0,0.0,0.0,0.0,0.0,0.0,0.0,0.0,0.0,0.0,-3.0198,-3.0768,0.0,0.0,0.0,0.0,0.0,0.0,0.0,0.0,0.0,0.0,0.0,0.0,-3.4091,-3.5036,-3.6266,-3.7497,-3.8809,-3.9688,-4.0294,-4.0661,-4.0177,-3.9655,-3.9168,0.0,0.0,0.0,0.0,0.0,0.0,0.0,0.0,0.0,0.0,0.0,0.0,0.0,0.0,0.0,0.0,0.0,0.0,0.0,0.0,0.0,0.0,0.0,0.0,0.0,-3.606,0.0,0.0,0.0,0.0,0.0,0.0,0.0,0.0,0.0,0.0,0.0,-4.0377,-4.2669,-4.396,-4.4941,-4.5702,-4.5749,-4.5566,0.0,0.0,0.0,0.0,0.0,0.0,0.0,0.0,0.0,0.0,0.0,0.0,0.0,0.0,-4.1306,-3.9648,-4.0122,-4.0791,-4.0749,0.0,0.0,0.0,0.0,0.0,0.0,0.0,0.0,0.0,0.0,0.0,0.0,0.0,0.0,-2.7889,0.0,-2.835,0.0,0.0,0.0,0.0,0.0,0.0,0.0,0.0,-3.0245,-3.1194,-3.2503,-3.3042,-3.3835,0.0,-3.5399,-3.4706,0.0,0.0,0.0,0.0,0.0,0.0,0.0,0.0,-3.5415,-3.6256,-3.7682,-3.903,-4.0321,-4.1097,-4.1617,-4.1976,-4.1638,-4.1003,-4.0039,-3.9914,-3.946,0.0,0.0,0.0,0.0,0.0,0.0,0.0,0.0,0.0,0.0,0.0,0.0,0.0,0.0,0.0,0.0,0.0,0.0,0.0,0.0,0.0,0.0,0.0,-3.6403,0.0,0.0,0.0,0.0,0.0,0.0,0.0,0.0,0.0,-4.0045,-4.085,-4.2344,-4.5028,-4.5941,-4.6691,-4.7567,0.0,0.0,0.0,0.0,0.0,0.0,0.0,-4.4954,-4.383,-4.4127,-4.4299,-4.3764,-4.3719,-4.3333,-4.2065,0.0,0.0,-4.1456,-4.1903,-4.25,-4.2439,-4.3019,-4.3526,-4.3597,-4.4107,-4.4531,0.0,0.0,0.0,0.0,0.0,0.0,0.0,0.0,-2.9727,-2.9737,0.0,-3.0001,0.0,0.0,0.0,0.0,0.0,-3.089,0.0,0.0,-3.3822,-3.4635,-3.4964,-3.5269,-3.5308,-3.5247,-3.6511,-3.6749,-3.6049,-3.5307,0.0,0.0,0.0,0.0,0.0,0.0,-3.7443,-3.7239,-3.9401,-4.0848,-4.1465,-4.2034,-4.2526,-4.2799,-4.2854,-4.2372,-4.1246,-4.157,-4.1157,-3.9898,-4.1021,0.0,0.0,0.0,0.0,0.0,0.0,0.0,0.0,0.0,0.0,0.0,0.0,0.0,0.0,0.0,0.0,0.0,0.0,0.0,0.0,-3.8172,0.0,0.0,0.0,0.0,0.0,0.0,0.0,0.0,0.0,0.0,-4.1036,-4.3386,-4.5816,-4.7359,0.0,0.0,0.0,0.0,-4.8084,-4.7446,-4.6935,-4.6574,-4.6269,-4.6792,-4.6468,-4.4313,0.0,0.0,-4.47,-4.3661,-4.3029,-4.2515,-4.285,-4.2774,-4.2179,-4.2648,-4.3056,-4.2777,-4.2873,-4.2934,-4.3031,-4.3366,-4.3277,-3.78,0.0,0.0,0.0,0.0,-3.2861,-3.2406,-3.249,-3.2306,-3.2333,-3.2503,-3.2402,0.0,0.0,0.0,0.0,0.0,0.0,-3.3314,-3.4748,-3.5098,-3.597,-3.7301,-3.7451,-3.786,-3.8548,-3.8866,-3.9058,-3.9124,-3.8352,-3.7702,-3.7232,0.0,0.0,0.0,0.0,-3.8626,-3.9899,-4.092,-4.2071,-4.343,-4.3444,-4.388,-4.4774,-4.5549,-4.5442,-4.4388,-4.3952,-4.331,-4.2343,-4.231,0.0,0.0,0.0,0.0,0.0,0.0,0.0,0.0,0.0,0.0,0.0,0.0,0.0,0.0,0.0,0.0,0.0,0.0,0.0,-3.8775,-3.8545,-3.8423,0.0,0.0,0.0,0.0,0.0,0.0,0.0,0.0,0.0,-4.5526,-4.5787,-4.6378,0.0,0.0,-4.9529,-4.9497,-4.909,-4.8686,-4.8343,-4.776,0.0,0.0,-4.6354,-4.6656,-4.6137,-4.7265,-4.7886,-4.69,-4.6577,-4.609,-4.5183,-4.4743,-4.4243,-4.3363,-4.3299,-4.3541,-4.3723,-4.4149,-4.4648,-4.5068,-4.4947,-4.455,-3.9747,-3.8668,-3.681,-3.6034,-3.6097,-3.5401,-3.5105,-3.5039,-3.4808,-3.4786,-3.4913,-3.4379,-3.4017,-3.3801,-3.3308,0.0,0.0,0.0,-3.5052,-3.6311,-3.6652,-3.7405,-3.8541,-3.8766,-3.9212,-3.9895,-4.052,-4.0799,-4.0833,-4.0935,-4.0417,-3.9325,0.0,0.0,-3.9405,-3.9759,-4.0507,-4.1617,-4.2575,-4.3643,-4.4824,-4.4929,-4.5401,-4.6191,-4.6725,-4.6818,-4.6431,-4.5416,-4.4538,-4.3956,-4.3422,-4.2777,0.0,0.0,0.0,0.0,0.0,0.0,0.0,0.0,0.0,0.0,0.0,-4.1153,-4.1443,0.0,0.0,0.0,-4.0502,-3.9829,-3.9136,-3.9252,0.0,0.0,0.0,0.0,0.0,0.0,0.0,-4.5065,-4.6397,-4.7531,-4.8275,-4.8161,-4.8149,-4.8552,-4.9667,-5.0319,-4.9956,0.0,-4.9274,-4.8867,-4.8216,-4.7437,-4.6428,-4.6611,-4.7078,-4.7649,-4.8016,-4.8396,-4.8602,-4.8338,-4.7621,-4.6423,-4.581,-4.5173,-4.3841,-4.3817,-4.3948,-4.3976,-4.4542,-4.5151,-4.5499,-4.5297,-4.4909,-4.1275,-4.1091,-3.9272,-3.8244,-3.7838,-3.8341,-3.8101,-3.7343,-3.7011,-3.6917,-3.6866,-3.5995,-3.5317,-3.4908,-3.4487,0.0,-3.5307,-3.6191,-3.6936,-3.7709,-3.8464,-3.8948,-3.9177,-3.9666,-3.9932,-4.0069,-4.1725,-4.2175,-4.1789,-4.306,-4.3097,-4.1877,-4.0855,-4.033,-4.0382,-4.1775,-4.2588,-4.2647,-4.4119,-4.5177,-4.5722,-4.6355,-4.6863,-4.7162,-4.6846,-4.6997,-4.7509,-4.615,-4.5245,-4.5027,-4.4427,-4.3526,-4.233,0.0,0.0,0.0,0.0,0.0,0.0,0.0,0.0,0.0,0.0,0.0,0.0,0.0,0.0,0.0,-4.104,0.0,-3.978,-4.0261,0.0,0.0,0.0,-4.2412,-4.4236,-4.511,-4.6232,-4.8015,0.0,0.0,-4.965,-5.0257,-5.0537,-5.0351,-5.084,-5.088,-5.0034,-4.9853,-4.9631,-4.8977,-4.8347,-4.7752,-4.7261,-4.7278,-4.7601,-4.8414,-4.8277,-4.831,-4.9069,-4.8822,-4.776,-4.6479,-4.6144,-4.5647,-4.4057,-4.4228,-4.4458,-4.3852,-4.4419,-4.4974,-4.4945,-4.4887,-4.4529,-4.1037,-4.0639,-3.9981,-3.9601,-3.9474,-3.9156,-3.8936,-3.8665,-3.8239,-3.7998,-3.7912,-3.6751,-3.6123,-3.6051,-3.6747,-3.7272,-3.7622,-3.8467,-3.9241,-3.9906,-4.0305,-4.0909,-4.1636,-4.1948,-4.242,-4.2969,-4.3529,-4.3856,-4.3914,-4.408,-4.3924,-4.3434,-4.2847,-4.2309,-4.187,-4.2091,-4.3007,-4.4591,-4.4345,-4.4784,-4.5834,-4.7064,-4.7541,-4.7232,-4.794,-4.8103,-4.7588,-4.6868,-4.6328,-4.6125,-4.5357,-4.4734,-4.4468,-4.4081,0.0,0.0,0.0,0.0,0.0,0.0,0.0,0.0,0.0,-4.323,-4.2484,0.0,-4.3391,0.0,-4.1933,-4.1528,-4.168,-4.1694,0.0,0.0,-4.3263,-4.4241,-4.4733,-4.6604,-4.7901,-4.8158,-4.9038,-4.9907,-5.0587,-5.0754,-5.0764,-5.0614,-5.0579,-5.0393,-5.0014,-4.9215,-4.8772,-4.8842,-4.7959,-4.7193,-4.7337,-4.7596,-4.7825,-4.7816,-4.7847,-4.7719,-4.7441,-4.7332,-4.7139,-4.6715,-4.6059,-4.5452,-4.5098,-4.4918,-4.4814,-4.4656,-4.5129,-4.5635,-4.5714,-4.5432,-4.5077,-4.1112,-4.0814,-4.005,-3.9849,-4.0116,-4.0027,-3.9951,-3.9899,-3.9488,-3.9241,-3.9058,-3.7627,-3.6983,-3.6998,-3.7568,-3.8052,-3.847,-3.9451,-4.0213,-4.0743,-4.1438,-4.2123,-4.2709,-4.3019,-4.3372,-4.3757,-4.4232,-4.4282,-4.3959,-4.4184,-4.4086,-4.3681,-4.3444,-4.3189,-4.2977,-4.283,-4.3672,-4.5584,-4.5498,-4.5987,-4.7071,-4.7685,-4.7907,-4.7715,-4.8035,-4.808,-4.7588,-4.6727,-4.6265,-4.6344,-4.5525,-4.5061,-4.5046,-4.4254,-4.3925,0.0,0.0,0.0,0.0,0.0,0.0,0.0,0.0,0.0,0.0,0.0,-4.4167,-4.3904,-4.3271,-4.2849,-4.28,-4.2688,-4.2758,-4.3112,-4.4044,-4.4898,-4.5559,-4.7435,-4.8686,-4.8939,-4.9689,-5.0411,-5.0939,-5.1044,-5.0857,-5.0347,-5.0387,-5.0244,-4.9639,-4.8874,-4.8483,-4.8484,-4.7698,-4.7207,-4.7553,-4.7922,-4.8166,-4.8284,-4.849,-4.8554,-4.8533,-4.8695,-4.8706,-4.8363,-4.787,-4.7362,-4.6982,-4.6755,-4.6624,-4.6698,-4.7044,-4.7129,-4.6596,-4.6279,-4.6126,-4.1421,-4.1128,-3.9847,-3.9581,-3.9982,-4.0376,-4.063,-4.068,-4.0411,-4.0174,-3.985,-3.8502,-3.7879,-3.7892,-3.7929,-3.8153,-3.8674,-3.9948,-4.0669,-4.0958,-4.2254,-4.3008,-4.328,-4.3732,-4.3935,-4.3921,-4.4691,-4.4475,-4.3452,-4.4157,-4.4137,-4.3544,-4.3364,-4.3468,-4.3756,-4.3702,-4.4378,-4.5784,-4.6712,-4.7512,-4.8286,-4.7982,-4.7898,-4.7933,-4.7574,-4.7291,-4.7175,-4.6122,-4.5655,-4.5962,-4.5297,-4.4911,-4.4933,-4.4033,-4.3679,0.0,-4.3642,0.0,0.0,0.0,0.0,0.0,0.0,0.0,0.0,-4.4639,-4.4831,-4.4914,-4.4557,-4.4119,-4.3608,-4.3464,-4.3532,-4.3806,-4.426,-4.5039,-4.6403,-4.7772,-4.8913,-4.9662,-5.0168,-5.0578,-5.0803,-5.1057,-5.0846,-5.01,-5.034,-5.0257,-4.9306,-4.8786,-4.8406,-4.7985,-4.7668,-4.7624,-4.8034,-4.8328,-4.8641,-4.915,-4.9354,-4.9836,-5.03,-5.0601,-5.0675,-5.0107,-4.9742,-4.9556,-4.8982,-4.8764,-4.8727,-4.8627,-4.8916,-4.8793,-4.7702,-4.7494,-4.7503,-4.2004,-4.0902,-4.0215,-3.9625,-3.9028,-3.8918,-3.9221,-3.9841,-3.975,-3.9462,-3.9028,-3.8991,-3.8931,-3.8944,-3.9449,-3.969,-3.9867,-4.1314,-4.2004,-4.1955,-4.3608,-4.4645,-4.5084,-4.5507,-4.6021,-4.6541,-4.6746,-4.6403,-4.5669,-4.547,-4.5199,-4.49,-4.3828,-4.3599,-4.4148,0.0,0.0,0.0,-4.593,-4.6584,-4.6732,-4.6825,-4.6606,-4.6159,-4.6353,0.0,-4.5216,-4.5387,-4.5383,-4.5173,-4.4974,0.0,0.0,0.0,0.0,0.0,0.0,0.0,0.0,0.0,0.0,0.0,-4.6757,-4.6693,-4.5381,-4.5322,-4.5295,-4.5163,-4.4783,-4.4649,-4.4889,-4.4404,-4.4203,-4.4526,-4.5287,-4.5931,-4.6104,-4.7758,-4.8958,-4.8793,-4.9328,-4.9898,-5.0196,-5.0557,-5.0722,-5.054,-5.0626,-5.0309,-4.9387,-4.8767,-4.8289,-4.8061,-4.7998,-4.8229,-4.8656,-4.8934,-4.9088,-4.9268,-4.9403,-4.9473,-4.941,-4.958,-4.9789,-4.9717,-4.9424,-4.9296,-4.9242,-4.8977,-4.8966,-4.8812,-4.9186,-4.9303,-4.8993,-4.9173,-4.9417,-4.1926,0.0,-4.0286,-3.9389,0.0,-3.8431,-3.8455,-3.8453,-3.9218,-3.9625,-3.9645,-3.9789,-3.9854,-3.9854,-4.016,-4.0389,-4.058,-4.1842,-4.2595,-4.2976,-4.446,-4.5467,-4.6137,-4.6417,-4.6622,-4.6758,-4.6471,-4.6142,-4.5783,-4.5207,-4.4918,-4.4796,-4.4152,-4.3947,-4.4317,-4.4523,-4.5016,-4.5768,-4.6351,-4.6763,-4.692,-4.6733,-4.6304,-4.5758,0.0,0.0,0.0,0.0,0.0,0.0,0.0,0.0,0.0,0.0,0.0,-4.488,-4.4941,-4.511,-4.5332,-4.5915,-4.6479,-4.7061,-4.775,-4.7739,-4.6781,-4.6171,-4.5747,-4.555,-4.5179,-4.4908,-4.4794,-4.4779,-4.4831,-4.4991,-4.5405,-4.5726,-4.6029,-4.7214,-4.8179,-4.8264,-4.8671,-4.9236,-5.007,-5.0039,-5.0208,-5.0605,-5.0706,-5.0444,-4.9743,-4.8772,-4.8133,-4.8175,-4.8343,-4.862,-4.9015,-4.93,-4.9503,-4.9653,-4.9876,-5.0015,-4.9994,-5.0282,-5.0573,-5.0736,-5.0667,-5.0722,-5.0987,-5.0845,-5.0739,-5.09,-5.1109,-5.1299,-5.128,-5.0752,-5.0308,-4.1902,-4.0975,-4.031,-3.9267,-3.8017,-3.8328,-3.8032,-3.7476,0.0,0.0,0.0,-4.0504,-4.0567,-4.0656,-4.0669,-4.0744,-4.0984,-4.2115,-4.3046,-4.38,-4.5128,-4.6116,-4.6801,-4.7022,-4.6855,-4.6429,-4.5918,-4.5589,-4.5454,-4.493,-4.4661,-4.4661,-4.4556,-4.4541,-4.4691,-4.5241,-4.609,-4.7114,-4.7054,-4.7185,-4.7507,-4.7145,-4.6647,-4.6083,-4.599,-4.5765,-4.5337,-4.5268,-4.5268,-4.5268,-4.5192,-4.5094,-4.4918,-4.4858,-4.4785,-4.4655,-4.5062,-4.5506,-4.5868,-4.6321,-4.7091,-4.8346,-4.8679,-4.8621,-4.8082,-4.6897,-4.6126,-4.5973,-4.5441,-4.4901,-4.4479,-4.4889,-4.5253,-4.5273,-4.5318,-4.5492,-4.5882,-4.6614,-4.7326,-4.7644,-4.803,-4.8622,-4.9554,-4.9649,-4.9702,-5.0334,-5.0725,-5.0684,-5.0054,-4.8886,-4.814,-4.8265,-4.844,-4.8748,-4.9128,-4.9454,-4.9781,-5.0128,-5.0409,-5.0727,-5.1167,-5.1557,-5.1851,-5.1977,-5.2236,-5.2329,-5.2696,-5.2542,-5.2714,-5.2991,-5.3128,-5.3246,-5.3212,-5.2169,-5.1346,-4.3017,-4.1538,-4.0923,-3.9826,-3.8465,-3.8086,-3.812,-3.8473,-3.8774,-3.9505,-4.0504,-4.0504,-4.0757,-4.1211,-4.1174,-4.106,-4.1034,-4.2444,-4.3575,0.0,-4.5928,-4.7014,-4.7718,-4.7763,-4.7554,-4.7189,-4.707,-4.6726,-4.6217,-4.6082,-4.601,-4.5963,-4.5454,-4.5439,-4.5992,-4.6266,-4.6879,-4.7797,-4.7308,-4.7087,-4.7318,-4.7793,-4.762,-4.6811,-4.7114,-4.7199,-4.6989,-4.6726,-4.6609,-4.6633,-4.6296,-4.6073,-4.6033,-4.5207,-4.471,-4.464,-4.4272,-4.408,-4.4345,-4.5602,-4.7296,-4.941,-5.0037,-4.9773,-4.8499,-4.7048,-4.6202,-4.6111,-4.5126,-4.4586,-4.4834,-4.4945,-4.5156,-4.5505,-4.5712,-4.5824,-4.594,-4.6448,-4.6865,-4.6889,-4.7481,-4.7939,-4.8283,-4.9265,-4.9906,-4.9868,-5.0703,-5.134,-5.0305,-4.9107,-4.8351,-4.8313,-4.8473,-4.8694,-4.9001,-4.9489,-4.9908,-5.0207,-5.0457,-5.0749,-5.1285,-5.1598,-5.1944,-5.2414,-5.2378,-5.2397,-5.2626,-5.2624,-5.2664,-5.2838,-5.2993,-5.3213,-5.3349,-5.3278,-5.3408,-4.2823,-4.1629,-4.0904,-3.9754,-3.8275,-3.7269,-3.7398,-3.8236,-3.8761,-3.9422,-4.0095,-4.0516,-4.0952,-4.1388,-4.1801,-4.2034,-4.2072,-4.3212,-4.4179,-4.5079,-4.6819,-4.7809,-4.822,-4.8536,-4.8372,-4.7818,-4.71,-4.7023,-4.7424,-4.6723,-4.6529,-4.6956,-4.6214,-4.605,-4.6461,-4.6933,-4.7462,-4.816,-4.7871,-4.7742,-4.7877,-4.8142,-4.7973,-4.7325,-4.7425,-4.7402,-4.7302,-4.6856,-4.6628,-4.6746,-4.6228,-4.5905,-4.589,-4.5695,-4.5425,-4.5064,-4.5202,-4.5298,-4.542,-4.6844,-4.8146,-4.9278,-4.9876,-4.9875,-4.8992,-4.738,-4.6423,-4.6354,-4.5041,-4.4298,-4.474,-4.4993,-4.5286,-4.5713,-4.5855,-4.597,-4.603,-4.6158,-4.6501,-4.702,-4.7228,-4.7699,-4.8639,-4.9359,-4.9919,-5.0045,-5.0782,-5.0845,-5.0242,-4.9287,-4.8608,-4.849,-4.8647,-4.8827,-4.9036,-4.9512,-5.0081,-5.055,-5.0612,-5.0842,-5.1338,-5.1672,-5.202,-5.2378,-5.2485,-5.2529,-5.24,-5.2335,-5.2303,-5.2151,-5.257,-5.2888,-5.3203,-5.3849,-5.4414,-4.2584,-4.148,-4.0763,-3.9666,-3.8229,-3.7129,-3.7292,-3.8545,-3.9232,-3.9837,-4.038,-4.1069,-4.1487,-4.1737,-4.2346,-4.2619,-4.2709,-4.3557,-4.4424,-4.5365,-4.7143,-4.823,-4.8576,-4.9114,-4.9044,-4.8461,-4.7459,-4.7605,-4.8502,-4.7589,-4.7375,-4.7845,-4.7117,-4.6786,-4.6924,-4.748,-4.7964,-4.8286,-4.8328,-4.8373,-4.8391,-4.8519,-4.8372,-4.802,-4.8011,-4.7911,-4.7809,-4.7241,-4.6944,-4.701,-4.6483,-4.6139,-4.6154,-4.6251,-4.6152,-4.5687,-4.6052,-4.6448,-4.6724,-4.7748,-4.8568,-4.8893,-4.9421,-4.9637,-4.9222,-4.7778,-4.6812,-4.6607,-4.5283,-4.4463,-4.4771,-4.5237,-4.5595,-4.5813,-4.5987,-4.606,-4.609,-4.597,-4.6269,-4.7193,-4.7091,-4.7547,-4.8831,-4.9304,-4.9699,-5.0506,-5.0463,-5.0185,-5.0087,-4.9432,-4.8828,-4.8717,-4.87,-4.8769,-4.905,-4.9265,-4.9691,-5.0346,-5.0217,-5.0359,-5.0837,-5.1337,-5.178,-5.2013,-5.2196,-5.2071,-5.1796,-5.1648,-5.148,-5.1259,-5.1708,-5.2384,-5.2821,-5.3415,-5.4408,-4.2995,-4.1436,-4.0761,-3.9948,-3.89,-3.8335,-3.8955,-4.0411,-4.0549,-4.1184,-4.2134,-4.262,-4.2646,-4.2514,-4.2617,-4.2313,-4.178,-4.2811,-4.3926,-4.4934,-4.6431,-4.7734,-4.8686,-4.9254,-4.938,-4.9179,-4.9015,-4.897,-4.9239,-4.9253,-4.9113,-4.886,-4.8165,-4.7816,-4.7858,-4.8088,-4.826,-4.8286,-4.8495,-4.8573,-4.861,-4.9181,-4.9407,-4.9184,-4.9671,-4.9821,-4.9204,-4.8998,-4.8615,-4.8394,-4.7947,-4.7752,-4.7664,-4.6984,-4.6542,-4.6436,-4.5803,-4.5842,-4.6815,-4.7056,-4.7639,-4.8779,-4.9153,-4.9316,-4.9203,-4.8186,-4.743,-4.7079,-4.5988,-4.5229,-4.5278,-4.5761,-4.5981,-4.5756,-4.6153,-4.6373,-4.6015,-4.5925,-4.6194,-4.6887,-4.6975,-4.7207,-4.8189,-4.8855,-4.968,-5.0607,-5.0255,-5.0045,-5.0231,-4.9501,-4.8836,-4.8779,-4.8446,-4.8351,-4.8776,-4.8504,-4.8882,-4.9183,-4.9063,-4.9378,-4.9939,-5.0322,-5.0765,-5.1208,-5.1179,-5.0856,-5.0594,-5.0472,-5.0305,-5.0142,-5.0642,-5.156,-5.2059,-5.2444,-5.3145,-4.246,-4.117,-4.0109,-3.8846,-3.7575,-3.7429,-3.8211,-3.9476,-4.0176,-4.1263,-4.2562,-4.3422,-4.3721,-4.3614,-4.3777,-4.3693,-4.358,-4.4151,-4.4793,-4.5594,-4.7057,-4.8086,-4.8622,-4.9407,-4.9657,-4.9425,-4.9328,-4.9569,-4.9975,-4.9898,-4.9349,-4.845,-4.8128,-4.8049,-4.8175,-4.826,-4.8385,-4.8495,-4.8469,-4.8412,-4.8449,-4.8546,-4.8682,-4.8675,-4.8474,-4.8396,-4.8395,-4.8035,-4.793,-4.8157,-4.7837,-4.7611,-4.7596,-4.6836,-4.6419,-4.6389,-4.5815,-4.5864,-4.6679,-4.6869,-4.7293,-4.8099,-4.862,-4.8785,-4.8578,-4.8317,-4.8106,-4.7751,-4.6475,-4.5646,-4.5995,-4.6,-4.5941,-4.6108,-4.6226,-4.615,-4.609,-4.5956,-4.6225,-4.7106,-4.7193,-4.7452,-4.8191,-4.8642,-4.9186,-4.9805,-4.9639,-4.959,-4.9671,-4.939,-4.9268,-4.9213,-4.8842,-4.8713,-4.9011,-4.931,-4.9301,-4.9244,-4.9196,-4.9315,-4.9118,-4.9162,-4.9491,-5.0107,-4.9807,-4.9433,-4.9034,-4.9031,-4.8931,-4.8939,-4.9841,-5.0943,-5.1643,-5.2148,-5.2835,-4.219,-4.1099,-3.9662,-3.8218,-3.6948,-3.6893,-3.7621,-3.8782,-3.9919,-4.1205,-4.2692,-4.3808,-4.4269,-4.4263,-4.4321,-4.4416,-4.4429,-4.4738,-4.5143,-4.5766,-4.6992,-4.7816,-4.8344,-4.9149,-4.9567,-4.9563,-4.944,-4.9778,-5.0487,-5.0124,-4.9395,-4.8602,-4.8231,-4.8133,-4.8218,-4.826,-4.8328,-4.8412,-4.8286,-4.8175,-4.8084,-4.7753,-4.7721,-4.8088,-4.7605,-4.7332,-4.7465,-4.7038,-4.7072,-4.7578,-4.7216,-4.7028,-4.7178,-4.6802,-4.6533,-4.6446,-4.6032,-4.6094,-4.6741,-4.6807,-4.7003,-4.7505,-4.8007,-4.8133,-4.8007,-4.826,-4.8412,-4.832,-4.7082,-4.6481,-4.6875,-4.6574,-4.6484,-4.6741,-4.6417,-4.618,-4.609,-4.5956,-4.6328,-4.7294,-4.7337,-4.7596,-4.8317,-4.8653,-4.8906,-4.8998,-4.9101,-4.9068,-4.9042,-4.9266,-4.9437,-4.9582,-4.9276,-4.922,-4.9367,-4.927,-4.9499,-4.9181,-4.8849,-4.8488,-4.8288,-4.8051,-4.8164,-4.8685,-4.8423,-4.8207,-4.7907,-4.7784,-4.7883,-4.7896,-4.8777,-5.0175,-5.0627,-5.1428,-5.1581,-4.2587,-4.1256,-3.9556,-3.8562,-3.8161,-3.7623,-3.8099,-3.926,-4.0135,-4.1365,-4.2744,-4.3666,-4.4174,-4.4116,-4.3721,-4.3237,-4.2954,-4.3714,-4.4375,-4.4942,-4.5779,-4.6717,-4.7722,-4.833,-4.8966,-4.9509,-4.9545,-4.9874,-5.0502,-4.9929,-4.9731,-4.9801,-4.8773,-4.8191,-4.8091,-4.816,-4.8218,-4.8049,-4.8007,-4.788,-4.7548,-4.6806,-4.693,-4.7737,-4.7809,-4.7492,-4.7169,-4.6619,-4.6463,-4.6668,-4.6324,-4.6336,-4.6827,-4.7104,-4.7075,-4.6797,-4.6478,-4.6546,-4.704,-4.6666,-4.6621,-4.7174,-4.7424,-4.7467,-4.7624,-4.7922,-4.826,-4.8521,-4.7804,-4.7528,-4.7924,-4.7486,-4.7325,-4.7146,-4.693,-4.6491,-4.597,-4.597,-4.6314,-4.7077,-4.7381,-4.7639,-4.8233,-4.8697,-4.8679,-4.8626,-4.8879,-4.9186,-4.8996,-4.8996,-4.9225,-4.9477,-4.959,-4.9654,-4.9702,-4.9494,-4.8669,-4.8301,-4.819,-4.7384,-4.687,-4.6652,-4.7082,-4.73,-4.7066,-4.6909,-4.6824,-4.6917,-4.7063,-4.7411,-4.8207,-4.9187,-4.9921,-4.9693,-4.9992,-4.15,-4.0226,-3.9616,-3.8505,-3.7285,-3.7667,-3.8049,-3.8465,-3.9141,-4.0411,-4.1876,-4.2421,-4.2893,-4.3438,-4.3436,-4.3508,-4.3649,-4.4025,-4.4529,-4.5236,-4.5608,-4.6284,-4.7171,-4.7708,-4.833,-4.8887,-4.9388,-4.9881,-5.0228,-4.9689,-4.9342,-4.9273,-4.8789,-4.8319,-4.804,-4.7922,-4.7794,-4.7724,-4.7624,-4.7409,-4.7149,-4.6548,-4.6461,-4.6725,-4.6156,-4.5932,-4.6148,-4.5941,-4.609,-4.6565,-4.6048,-4.6032,-4.6623,-4.6815,-4.6607,-4.6135,-4.6042,-4.6291,-4.6724,-4.6337,-4.6291,-4.6813,-4.7251,-4.7467,-4.7495,-4.7864,-4.8244,-4.8247,-4.7675,-4.7435,-4.7502,-4.6932,-4.6356,-4.6461,-4.6033,-4.5771,-4.5958,-4.615,-4.6594,-4.7222,-4.7639,-4.7964,-4.7925,-4.8134,-4.8307,-4.8167,-4.8431,-4.8642,-4.881,-4.9006,-4.925,-4.9396,-4.9637,-4.9797,-4.9876,-4.9811,-4.939,-4.8686,-4.82,-4.7807,-4.7317,-4.646,-4.6639,-4.6667,-4.6282,-4.6043,-4.6097,-4.6573,-4.6657,-4.71,-4.793,-4.9177,-4.9431,-4.9906,-5.0007,-4.0846,-3.983,-3.9374,-3.8378,-3.7149,-3.7514,-3.7558,-3.7473,-3.8503,-3.9744,-4.0894,-4.1423,-4.1891,-4.2413,-4.2793,-4.3093,-4.3451,-4.396,-4.4748,-4.5448,-4.5448,-4.5822,-4.6455,-4.695,-4.729,-4.7654,-4.8239,-4.8846,-4.9221,-4.8947,-4.8849,-4.9,-4.861,-4.8294,-4.8024,-4.7785,-4.7712,-4.7701,-4.7494,-4.7258,-4.6963,-4.6461,-4.6165,-4.6018,-4.5303,-4.5098,-4.5552,-4.5391,-4.5581,-4.602,-4.5493,-4.5359,-4.5916,-4.5975,-4.5843,-4.5579,-4.5621,-4.5887,-4.6256,-4.6079,-4.6064,-4.6432,-4.6931,-4.7251,-4.7381,-4.788,-4.8202,-4.8206,-4.769,-4.7318,-4.7221,-4.6355,-4.565,-4.5831,-4.5311,-4.5157,-4.5726,-4.6079,-4.6578,-4.7278,-4.7837,-4.7949,-4.7709,-4.7709,-4.7852,-4.798,-4.8133,-4.8286,-4.8702,-4.8965,-4.9275,-4.9396,-4.9597,-4.9797,-4.9916,-4.9954,-4.9628,-4.9,-4.8537,-4.8129,-4.7597,-4.6695,-4.6106,-4.6012,-4.5799,-4.5531,-4.5635,-4.6158,-4.6598,-4.7001,-4.8426,-4.9911,-5.0251,-5.0624,-5.0585,-4.0571,-4.0007,-3.886,-3.8144,-3.7656,-3.7262,-3.6782,-3.685,-3.8406,-3.9403,-4.0071,-4.1009,-4.139,-4.1471,-4.1915,-4.1984,-4.211,-4.3376,-4.4409,-4.5072,-4.518,-4.5341,-4.5702,-4.602,-4.6025,-4.5936,-4.6194,-4.6778,-4.7495,-4.7702,-4.8126,-4.8685,-4.8084,-4.7789,-4.8009,-4.776,-4.7819,-4.7869,-4.7621,-4.7372,-4.7146,-4.6529,-4.6103,-4.5893,-4.5613,-4.5405,-4.5446,-4.4973,-4.5003,-4.5378,-4.466,-4.4267,-4.4829,-4.493,-4.4991,-4.5303,-4.5317,-4.5493,-4.5869,-4.5838,-4.5797,-4.6225,-4.6506,-4.6946,-4.7409,-4.7794,-4.8118,-4.8278,-4.7855,-4.7522,-4.739,-4.66,-4.5858,-4.5432,-4.5293,-4.5348,-4.5649,-4.5709,-4.6175,-4.7345,-4.7837,-4.788,-4.7639,-4.751,-4.7596,-4.788,-4.8049,-4.8301,-4.8816,-4.9037,-4.9169,-4.9437,-4.9677,-4.9797,-4.9931,-5.0042,-4.9622,-4.9173,-4.8773,-4.8379,-4.7774,-4.7026,-4.6499,-4.6253,-4.5786,-4.5503,-4.5678,-4.6262,-4.718,-4.7858,-4.9398,-5.0523,-5.0853,-5.11,-5.1042,-4.0072,-3.9379,-3.9023,-3.823,-3.739,-3.7369,-3.7151,-3.6839,-3.7927,-3.8871,-3.9744,-4.0153,-4.0629,-4.1103,-4.1332,-4.1492,-4.1663,-4.2287,-4.3184,-4.4422,-4.4735,-4.4951,-4.5287,-4.5595,-4.5711,-4.5652,-4.5852,-4.6109,-4.6363,-4.6597,-4.6752,-4.6694,-4.6548,-4.6619,-4.6925,-4.6726,-4.6882,-4.7463,-4.7424,-4.7243,-4.7026,-4.6451,-4.6074,-4.5999,-4.5519,-4.5124,-4.5046,-4.4952,-4.5029,-4.5201,-4.4726,-4.453,-4.4836,-4.5259,-4.5595,-4.5637,-4.511,-4.5065,-4.5467,-4.5115,-4.5162,-4.5854,-4.6373,-4.6727,-4.7106,-4.7538,-4.7794,-4.7861,-4.7342,-4.7015,-4.7186,-4.6697,-4.63,-4.6418,-4.6104,-4.6087,-4.6554,-4.6834,-4.7227,-4.7691,-4.7794,-4.7624,-4.7482,-4.7439,-4.7639,-4.7922,-4.8133,-4.8427,-4.8857,-4.9103,-4.9291,-4.9557,-4.9677,-4.9797,-4.9916,-5.001,-4.9805,-4.9466,-4.9126,-4.872,-4.8122,-4.7531,-4.7013,-4.6429,-4.5951,-4.5825,-4.5961,-4.6709,-4.7793,-4.866,-4.9916,-5.0674,-5.1217,-5.1459,-5.1598,-4.0029,-3.9272,-3.913,-3.8389,-3.7452,-3.7514,-3.7281,-3.7082,-3.7987,-3.8882,-3.9521,-3.9873,-4.0176,-4.0583,-4.0687,-4.0815,-4.093,-4.1148,-4.1935,-4.306,-4.3547,-4.3945,-4.4302,-4.4554,-4.4665,-4.4716,-4.4671,-4.4857,-4.5276,-4.5407,-4.5621,-4.5881,-4.5475,-4.5611,-4.6133,-4.5836,-4.6058,-4.6843,-4.6917,-4.6917,-4.6906,-4.6528,-4.6149,-4.5799,-4.5415,-4.4963,-4.4593,-4.4537,-4.4694,-4.484,-4.4629,-4.4422,-4.4368,-4.4539,-4.4899,-4.5059,-4.4579,-4.4299,-4.5015,-4.4536,-4.4588,-4.5616,-4.6225,-4.6668,-4.7106,-4.7538,-4.7767,-4.7676,-4.7416,-4.7243,-4.7448,-4.7282,-4.7165,-4.7361,-4.6645,-4.6515,-4.7014,-4.7546,-4.7779,-4.7837,-4.7724,-4.7553,-4.751,-4.751,-4.7752,-4.8049,-4.8202,-4.8537,-4.8924,-4.9194,-4.9396,-4.9597,-4.9797,-4.9876,-4.9876,-4.9916,-4.9971,-4.9749,-4.9447,-4.9094,-4.8639,-4.8112,-4.7538,-4.6907,-4.6354,-4.6476,-4.6687,-4.7995,-4.9118,-4.9856,-5.0562,-5.1591,-5.2385,-5.2471,-5.2438,-4.029,-3.9563,-3.9082,-3.8469,-3.7729,-3.7461,-3.7225,-3.7242,-3.8455,-3.919,-3.9356,-3.9826,-3.9954,-3.9908,-4.006,-4.006,-3.9908,-4.0351,-4.0745,-4.1182,-4.1684,-4.2363,-4.3108,-4.3329,-4.3506,-4.3421,-4.315,-4.3297,-4.4005,-4.4206,-4.4808,-4.5508,-4.4729,-4.4812,-4.5335,-4.5093,-4.526,-4.6093,-4.6153,-4.6329,-4.6763,-4.6517,-4.6031,-4.5304,-4.5088,-4.4699,-4.4104,-4.3851,-4.404,-4.4559,-4.4382,-4.3975,-4.3434,-4.3057,-4.3657,-4.4352,-4.3473,-4.3811,-4.4372,-4.4188,-4.4407,-4.5645,-4.6061,-4.6565,-4.7322,-4.7681,-4.781,-4.7837,-4.7819,-4.7861,-4.7931,-4.7981,-4.808,-4.8076,-4.7121,-4.6652,-4.6872,-4.773,-4.7904,-4.7709,-4.7581,-4.7596,-4.7538,-4.7624,-4.788,-4.8133,-4.8328,-4.8661,-4.9031,-4.9316,-4.9517,-4.9646,-4.9781,-4.9781,-4.9789,-4.9607,-4.9655,-4.9852,-4.9677,-4.9437,-4.901,-4.8497,-4.7921,-4.7284,-4.7169,-4.7253,-4.7802,-4.9002,-5.0069,-5.0812,-5.1727,-5.2892,-5.3298,-5.3247,-5.2804,-3.9724,-3.8742,-3.8862,-3.8236,-3.7259,-3.7047,-3.7154,-3.7374,-3.8238,-3.8775,-3.899,-3.9344,-3.9485,-3.9426,-3.9485,-3.9473,-3.9473,-3.9591,-3.9708,-3.9884,-4.0397,-4.1513,-4.2712,-4.3131,-4.3223,-4.3146,-4.3287,-4.3241,-4.273,-4.3322,-4.3441,-4.2943,-4.3216,-4.3279,-4.3681,-4.3819,-4.4262,-4.5025,-4.5126,-4.5257,-4.5489,-4.5188,-4.483,-4.4795,-4.4345,-4.3978,-4.3723,-4.3662,-4.3757,-4.4162,-4.413,-4.4102,-4.4047,-4.4111,-4.4273,-4.4376,-4.4007,-4.3905,-4.4411,-4.4019,-4.4342,-4.56,-4.5867,-4.6343,-4.7294,-4.7439,-4.7482,-4.751,-4.7596,-4.7724,-4.7752,-4.7922,-4.8049,-4.8061,-4.7692,-4.7555,-4.7741,-4.7801,-4.7709,-4.7581,-4.7467,-4.7467,-4.7639,-4.781,-4.8022,-4.826,-4.8453,-4.8646,-4.9072,-4.9275,-4.9396,-4.9497,-4.9576,-4.9631,-4.9568,-4.9354,-4.9402,-4.9821,-4.9797,-4.9717,-4.9224,-4.8652,-4.8115,-4.7509,-4.8089,-4.8349,-4.8945,-4.985,-5.076,-5.1745,-5.2556,-5.35,-5.3633,-5.3596,-5.2912,-4.0142,-3.9226,-3.9291,-3.8587,-3.7468,-3.7362,-3.7335,-3.7495,-3.8118,-3.8488,-3.8656,-3.8823,-3.8905,-3.8964,-3.8905,-3.9001,-3.9049,-3.9108,-3.9178,-3.9426,-4.0001,-4.1079,-4.2275,-4.2781,-4.2884,-4.3068,-4.3322,-4.3119,-4.2691,-4.2894,-4.2774,-4.2573,-4.2138,-4.2227,-4.2681,-4.2396,-4.274,-4.3448,-4.3894,-4.434,-4.4695,-4.4898,-4.481,-4.4688,-4.4116,-4.3737,-4.3272,-4.3245,-4.3471,-4.377,-4.3926,-4.4068,-4.4223,-4.435,-4.4518,-4.4569,-4.3913,-4.3814,-4.4343,-4.3941,-4.4032,-4.4967,-4.5454,-4.602,-4.6562,-4.697,-4.7309,-4.7352,-4.7439,-4.7482,-4.751,-4.7681,-4.788,-4.7949,-4.8007,-4.8007,-4.7992,-4.7737,-4.7596,-4.7467,-4.7396,-4.7424,-4.7724,-4.788,-4.8133,-4.8328,-4.8537,-4.8785,-4.9087,-4.9153,-4.9181,-4.9228,-4.9135,-4.9048,-4.9174,-4.9024,-4.9542,-4.9931,-5.037,-5.0198,-4.9922,-4.9379,-4.9087,-4.8874,-4.92,-4.9581,-5.0226,-5.0944,-5.1877,-5.2775,-5.3448,-5.3747,-5.3878,-5.3483,-5.2843,-4.0968,-4.0419,-4.0027,-3.9214,-3.8098,-3.7885,-3.7566,-3.7506,-3.801,-3.8309,-3.8309,-3.838,-3.85,-3.838,-3.85,-3.8537,-3.8752,-3.8752,-3.899,-3.9297,-3.9826,-4.0629,-4.1789,-4.2174,-4.2476,-4.2787,-4.2961,-4.3004,-4.2902,-4.2764,-4.2844,-4.2738,-4.1972,-4.1707,-4.1891,-4.1402,-4.1336,-4.2084,-4.2824,-4.3543,-4.4187,-4.4819,-4.4897,-4.4548,-4.4275,-4.3687,-4.3062,-4.2925,-4.3176,-4.3505,-4.3784,-4.3879,-4.394,-4.3926,-4.4068,-4.4167,-4.3757,-4.3673,-4.4181,-4.3993,-4.3867,-4.451,-4.5218,-4.5681,-4.5829,-4.6411,-4.6822,-4.707,-4.7176,-4.7191,-4.7352,-4.7467,-4.7639,-4.7794,-4.7681,-4.7581,-4.7505,-4.749,-4.7435,-4.7322,-4.7279,-4.742,-4.7837,-4.8049,-4.8133,-4.8453,-4.8563,-4.8744,-4.8872,-4.8814,-4.8827,-4.8816,-4.8646,-4.8419,-4.8561,-4.8726,-4.9496,-5.0204,-5.0897,-5.1065,-5.1091,-5.0752,-5.0542,-5.0513,-5.0814,-5.1073,-5.1431,-5.2233,-5.2994,-5.328,-5.3626,-5.3937,-5.4078,-5.321,-5.2502,-4.0789,-3.9971,-3.9893,-3.9148,-3.8028,-3.761,-3.7325,-3.7104,-3.7709,-3.7878,-3.7818,-3.813,-3.838,-3.838,-3.832,-3.844,-3.8488,-3.8537,-3.8775,-3.9238,-3.9108,-3.9861,-4.0964,-4.1651,-4.2118,-4.2413,-4.2806,-4.2974,-4.2967,-4.2934,-4.2733,-4.2435,-4.2375,-4.19,-4.1331,-4.1271,-4.1389,-4.1776,-4.2086,-4.2709,-4.3466,-4.3965,-4.4201,-4.404,-4.3983,-4.3696,-4.3335,-4.3246,-4.3215,-4.3155,-4.3335,-4.3581,-4.3526,-4.3628,-4.3757,-4.3837,-4.3876,-4.3975,-4.4308,-4.427,-4.4372,-4.4658,-4.4731,-4.4817,-4.5521,-4.5374,-4.5794,-4.6273,-4.6511,-4.6779,-4.7221,-4.7337,-4.7424,-4.7467,-4.7379,-4.7156,-4.6738,-4.6619,-4.6888,-4.704,-4.6905,-4.6896,-4.7846,-4.7992,-4.816,-4.848,-4.8646,-4.8702,-4.8671,-4.8552,-4.8354,-4.8289,-4.805,-4.7871,-4.8443,-4.8812,-4.9645,-5.0397,-5.107,-5.1842,-5.1865,-5.2048,-5.1853,-5.2047,-5.2411,-5.2604,-5.2606,-5.301,-5.3682,-5.3726,-5.3648,-5.357,-5.3387,-5.2716,-5.2182,-4.0059,-3.9489,-3.9355,-3.8737,-3.7945,-3.7566,-3.7325,-3.7214,-3.7506,-3.7566,-3.7495,-3.7818,-3.7938,-3.7938,-3.7938,-3.7998,-3.819,-3.8369,-3.8548,-3.8775,-3.8716,-3.9049,-3.9861,-4.0906,-4.1606,-4.2061,-4.2694,-4.2974,-4.2986,-4.2961,-4.2879,-4.259,-4.2473,-4.2099,-4.1483,-4.1172,-4.109,-4.1414,-4.184,-4.2359,-4.2932,-4.373,-4.3888,-4.39,-4.3925,-4.3842,-4.3437,-4.3688,-4.3566,-4.3457,-4.3538,-4.3547,-4.3362,-4.3485,-4.3662,-4.3818,-4.3879,-4.4115,-4.4317,-4.4397,-4.4349,-4.4372,-4.4473,-4.4506,-4.4806,-4.4763,-4.5375,-4.5882,-4.6233,-4.6574,-4.7206,-4.7309,-4.7309,-4.7249,-4.704,-4.683,-4.6785,-4.6785,-4.6726,-4.6905,-4.683,-4.7222,-4.7689,-4.7949,-4.8172,-4.8475,-4.8558,-4.8615,-4.8476,-4.8296,-4.7796,-4.7608,-4.7339,-4.7465,-4.8232,-4.8969,-4.985,-5.0544,-5.1194,-5.2023,-5.2524,-5.2855,-5.3129,-5.3315,-5.3482,-5.3449,-5.353,-5.3946,-5.3907,-5.3543,-5.3264,-5.3049,-5.2585,-5.1919,-5.1537,-3.9299,-3.9086,-3.8759,-3.831,-3.7851,-3.7566,-3.7374,-3.7314,-3.7374,-3.7385,-3.7325,-3.7374,-3.7495,-3.7424,-3.7325,-3.7435,-3.7564,-3.7792,-3.7881,-3.7989,-3.8297,-3.8591,-3.9228,-4.0327,-4.1366,-4.2049,-4.2681,-4.2974,-4.2986,-4.2986,-4.2949,-4.2873,-4.2547,-4.2263,-4.1974,-4.1436,-4.1145,-4.1435,-4.2107,-4.2628,-4.306,-4.4041,-4.437,-4.4201,-4.4216,-4.4111,-4.3806,-4.3944,-4.406,-4.3832,-4.4067,-4.3955,-4.367,-4.3465,-4.3662,-4.3865,-4.3879,-4.4068,-4.4317,-4.4397,-4.42,-4.3712,-4.4227,-4.4376,-4.4043,-4.4253,-4.4807,-4.549,-4.5911,-4.6557,-4.7191,-4.7309,-4.7309,-4.7234,-4.6785,-4.6741,-4.701,-4.7219,-4.7025,-4.6756,-4.6756,-4.7089,-4.7643,-4.8007,-4.824,-4.8388,-4.847,-4.8389,-4.8219,-4.7896,-4.733,-4.7194,-4.7019,-4.7761,-4.8615,-4.9221,-5.0087,-5.0669,-5.1301,-5.2095,-5.294,-5.3483,-5.3814,-5.4203,-5.4348,-5.4269,-5.4173,-5.4286,-5.4009,-5.3376,-5.2783,-5.244,-5.1857,-5.1158,-5.0798,-3.9299,-3.9075,-3.8759,-3.8299,-3.7851,-3.7555,-3.7264,-3.7043,-3.7325,-3.7264,-3.7011,-3.7253,-3.733,-3.7243,-3.6937,-3.6669,-3.6568,-3.6674,-3.6769,-3.7222,-3.7772,-3.8345,-3.8971,-4.0337,-4.1362,-4.1891,-4.2476,-4.2911,-4.2974,-4.2986,-4.2986,-4.2949,-4.2861,-4.2678,-4.2381,-4.2178,-4.195,-4.204,-4.2626,-4.3084,-4.3556,-4.4146,-4.4657,-4.4474,-4.454,-4.4399,-4.4204,-4.4203,-4.4213,-4.4141,-4.4162,-4.4246,-4.4131,-4.3655,-4.3561,-4.3697,-4.3772,-4.3976,-4.4331,-4.4364,-4.4369,-4.4186,-4.4128,-4.4001,-4.3733,-4.3427,-4.382,-4.47,-4.5643,-4.6508,-4.7191,-4.7193,-4.7266,-4.7249,-4.7115,-4.6905,-4.677,-4.6905,-4.7219,-4.7025,-4.6903,-4.6911,-4.7568,-4.7973,-4.8015,-4.8116,-4.8178,-4.7845,-4.7407,-4.7044,-4.6621,-4.6645,-4.6832,-4.7964,-4.9141,-4.9718,-5.0347,-5.0794,-5.1413,-5.2076,-5.294,-5.3881,-5.4399,-5.4491,-5.4741,-5.4834,-5.4772,-5.4683,-5.3946,-5.3183,-5.2492,-5.1836,-5.096,-5.0185,-4.9787,-3.8309,-3.821,-3.8017,-3.7835,-3.7659,-3.7495,-3.7325,-3.7203,-3.7314,-3.7183,-3.697,-3.6965,-3.6872,-3.6653,-3.6446,-3.6162,-3.6056,-3.6023,-3.6308,-3.6835,-3.7465,-3.8048,-3.8579,-4.0144,-4.0898,-4.1418,-4.2103,-4.2791,-4.2961,-4.2986,-4.2974,-4.2986,-4.2986,-4.2947,-4.2692,-4.2325,-4.2521,-4.2688,-4.2771,-4.2969,-4.348,-4.4003,-4.4356,-4.4589,-4.4655,-4.4632,-4.4582,-4.4704,-4.4415,-4.3985,-4.3926,-4.3932,-4.3812,-4.3697,-4.3592,-4.3905,-4.3953,-4.4055,-4.4307,-4.4317,-4.4209,-4.4336,-4.4088,-4.3716,-4.3432,-4.3057,-4.3069,-4.3776,-4.4877,-4.5811,-4.6338,-4.6708,-4.7019,-4.7206,-4.707,-4.6832,-4.6787,-4.6845,-4.6995,-4.7219,-4.7173,-4.7269,-4.7743,-4.7954,-4.7878,-4.7875,-4.7932,-4.7444,-4.6815,-4.67,-4.6585,-4.6912,-4.7316,-4.8278,-4.9378,-4.9955,-5.0496,-5.0902,-5.1429,-5.2092,-5.2749,-5.355,-5.4108,-5.4379,-5.4724,-5.5018,-5.5035,-5.4821,-5.3881,-5.2963,-5.2164,-5.1281,-5.0105,-4.9269,-4.9004,-3.7325,-3.7374,-3.7374,-3.7374,-3.7374,-3.7374,-3.7309,-3.7194,-3.7101,-3.6839,-3.6529,-3.6463,-3.6278,-3.6031,-3.5867,-3.5758,-3.5761,-3.5684,-3.5878,-3.6381,-3.7157,-3.763,-3.8298,-3.9465,-4.0546,-4.0893,-4.1823,-4.2489,-4.2886,-4.2986,-4.303,-4.3073,-4.3085,-4.3197,-4.3259,-4.2901,-4.2928,-4.2743,-4.2838,-4.2762,-4.318,-4.3533,-4.3885,-4.4317,-4.4382,-4.4263,-4.424,-4.4387,-4.419,-4.3715,-4.3592,-4.3599,-4.3328,-4.3409,-4.3796,-4.4291,-4.4368,-4.4484,-4.4496,-4.4319,-4.4299,-4.4503,-4.4261,-4.3634,-4.3181,-4.2949,-4.2931,-4.3127,-4.3834,-4.4763,-4.5286,-4.5932,-4.646,-4.6722,-4.6657,-4.6595,-4.6922,-4.701,-4.6845,-4.7025,-4.7189,-4.7508,-4.7876,-4.8042,-4.7996,-4.7804,-4.7885,-4.7596,-4.7088,-4.7284,-4.7316,-4.7606,-4.8059,-4.8765,-4.956,-5.0065,-5.0573,-5.094,-5.1392,-5.1964,-5.252,-5.3094,-5.3583,-5.4074,-5.4506,-5.4755,-5.4882,-5.4765,-5.3828,-5.2848,-5.1845,-5.0843,-4.9873,-4.9121,-4.8704,-3.7154,-3.7374,-3.7374,-3.7374,-3.7352,-3.7402,-3.7003,-3.6356,-3.6345,-3.6075,-3.5633,-3.568,-3.5754,-3.5754,-3.5452,-3.5091,-3.4862,-3.4851,-3.5124,-3.5701,-3.6691,-3.7428,-3.8077,-3.9669,-4.0361,-4.0684,-4.1609,-4.2446,-4.2723,-4.2836,-4.3066,-4.3182,-4.3148,-4.3466,-4.3537,-4.3406,-4.3506,-4.3044,-4.3672,-4.3989,-4.365,-4.3284,-4.3219,-4.3284,-4.3337,-4.3376,-4.3441,-4.3546,-4.335,-4.3504,-4.3463,-4.3605,-4.377,-4.3822,-4.3948,-4.429,-4.4656,-4.5092,-4.5064,-4.4623,-4.4414,-4.4431,-4.3906,-4.3468,-4.3034,-4.2586,-4.238,-4.2496,-4.3126,-4.3787,-4.4412,-4.5155,-4.5636,-4.6164,-4.6517,-4.6794,-4.7148,-4.7174,-4.6995,-4.6854,-4.7046,-4.7483,-4.787,-4.8023,-4.8114,-4.7948,-4.775,-4.7506,-4.7262,-4.7341,-4.7754,-4.7964,-4.8223,-4.8914,-4.9274,-4.9894,-5.0355,-5.0838,-5.1213,-5.172,-5.2359,-5.2835,-5.3213,-5.3699,-5.4124,-5.4348,-5.4365,-5.4083,-5.3532,-5.2643,-5.1488,-5.0636,-4.9837,-4.9169,-4.842,-3.7445,-3.7856,-3.7555,-3.7341,-3.729,-3.7111,-3.6481,-3.5747,-3.5731,-3.5403,-3.49,-3.4847,-3.4891,-3.4951,-3.4782,-3.4742,-3.4489,-3.4468,-3.4775,-3.5329,-3.6409,-3.7288,-3.8059,-3.9254,-4.0065,-4.0523,-4.0981,-4.1376,-4.1944,-4.2363,-4.2561,-4.2464,-4.248,-4.2633,-4.3216,-4.3327,-4.3123,-4.2983,-4.3127,-4.3127,-4.2905,-4.2696,-4.2683,-4.2971,-4.2984,-4.2971,-4.2958,-4.3023,-4.2879,-4.2876,-4.2758,-4.281,-4.295,-4.3092,-4.3442,-4.4265,-4.4627,-4.499,-4.5183,-4.4511,-4.4422,-4.4207,-4.3566,-4.2803,-4.2545,-4.2076,-4.1696,-4.1796,-4.2352,-4.304,-4.3848,-4.4719,-4.5449,-4.6049,-4.6461,-4.6709,-4.7003,-4.7221,-4.7173,-4.7029,-4.6882,-4.7209,-4.7555,-4.7873,-4.7983,-4.8009,-4.7945,-4.7843,-4.7349,-4.6861,-4.7451,-4.8098,-4.8415,-4.8825,-4.9047,-4.9371,-4.9871,-5.0306,-5.0582,-5.1205,-5.2117,-5.2626,-5.2872,-5.3111,-5.3433,-5.3617,-5.3749,-5.3473,-5.3014,-5.2078,-5.1093,-5.0159,-4.9277,-4.8629,-4.8115,-3.7571,-3.8037,-3.75,-3.7171,-3.703,-3.6684,-3.5934,-3.4987,-3.513,-3.4746,-3.4231,-3.4182,-3.4229,-3.4162,-3.441,-3.45,-3.4468,-3.4468,-3.472,-3.5333,-3.6106,-3.6813,-3.7465,-3.8506,-3.9404,-4.0061,-4.0388,-4.0711,-4.1084,-4.1541,-4.1812,-4.1864,-4.2394,-4.2453,-4.2629,-4.2826,-4.2866,-4.2984,-4.2383,-4.2173,-4.2186,-4.2069,-4.2213,-4.2435,-4.2553,-4.2605,-4.2579,-4.233,-4.2017,-4.1845,-4.1518,-4.1463,-4.1526,-4.1626,-4.224,-4.3003,-4.3537,-4.4302,-4.4724,-4.4669,-4.4277,-4.3895,-4.3115,-4.2149,-4.1701,-4.1198,-4.1071,-4.1341,-4.1866,-4.2624,-4.3416,-4.4153,-4.4967,-4.5698,-4.6373,-4.6549,-4.6723,-4.6778,-4.6601,-4.6135,-4.61,-4.661,-4.6987,-4.7523,-4.7814,-4.7989,-4.8069,-4.8078,-4.7575,-4.6878,-4.7202,-4.7953,-4.8197,-4.8459,-4.8558,-4.8876,-4.9363,-4.972,-4.9994,-5.0618,-5.1529,-5.1974,-5.2204,-5.2444,-5.28,-5.2921,-5.3094,-5.2791,-5.243,-5.1464,-5.049,-4.9507,-4.866,-4.8067,-4.7836,-3.7074,-3.7593,-3.6967,-3.6686,-3.6658,-3.6264,-3.5378,-3.4359,-3.4406,-3.4,-3.35,-3.3823,-3.4105,-3.4142,-3.4367,-3.4468,-3.4468,-3.4468,-3.4522,-3.4812,-3.5268,-3.5915,-3.6697,-3.7543,-3.8335,-3.905,-3.9689,-4.0117,-4.0397,-4.1041,-4.1571,-4.2078,-4.2314,-4.2838,-4.2918,-4.2684,-4.2723,-4.2657,-4.2004,-4.1742,-4.1821,-4.1716,-4.1507,-4.1507,-4.1494,-4.1428,-4.1415,-4.1102,-4.0814,-4.0671,-4.037,-4.0161,-4.0265,-4.0275,-4.09,-4.1644,-4.224,-4.3248,-4.4175,-4.4641,-4.4666,-4.4029,-4.2883,-4.1546,-4.1124,-4.1099,-4.1057,-4.1198,-4.1694,-4.2107,-4.2739,-4.3401,-4.4487,-4.5201,-4.583,-4.6123,-4.6193,-4.6198,-4.5945,-4.5273,-4.5374,-4.5999,-4.6355,-4.6859,-4.7525,-4.7729,-4.7765,-4.777,-4.7731,-4.7208,-4.7275,-4.7662,-4.7886,-4.8029,-4.8038,-4.8344,-4.8738,-4.8992,-4.9212,-5.0,-5.0922,-5.1248,-5.1482,-5.2073,-5.243,-5.243,-5.2248,-5.1742,-5.1226,-5.0731,-4.9871,-4.8649,-4.8178,-4.7835,-4.7787,-3.66,-3.6975,-3.6158,-3.5895,-3.6011,-3.5536,-3.4615,-3.3762,-3.3766,-3.3646,-3.3193,-3.3579,-3.3918,-3.4132,-3.4356,-3.4468,-3.4468,-3.4468,-3.4468,-3.468,-3.5113,-3.5636,-3.6416,-3.7296,-3.8375,-3.8892,-3.9489,-3.9922,-4.0167,-4.094,-4.1306,-4.1812,-4.2034,-4.2164,-4.2215,-4.2278,-4.2239,-4.2278,-4.1794,-4.1481,-4.1494,-4.1494,-4.1311,-4.1311,-4.1311,-4.1089,-4.0827,-4.0579,-4.0252,-3.9952,-3.9703,-3.956,-3.9494,-3.9507,-3.9926,-4.0667,-4.1179,-4.2319,-4.3453,-4.3718,-4.3332,-4.2588,-4.1709,-4.1155,-4.0971,-4.1213,-4.1409,-4.1535,-4.1731,-4.2088,-4.2779,-4.3516,-4.4298,-4.4836,-4.5215,-4.5551,-4.5648,-4.562,-4.5421,-4.4846,-4.509,-4.559,-4.5904,-4.6191,-4.6865,-4.7472,-4.7473,-4.7457,-4.7323,-4.7107,-4.6969,-4.6965,-4.7156,-4.7125,-4.7104,-4.749,-4.8015,-4.8198,-4.8381,-4.9195,-5.0011,-5.0576,-5.091,-5.155,-5.1819,-5.1586,-5.1172,-5.0561,-5.0143,-4.9902,-4.8877,-4.7515,-4.7331,-4.7438,-4.7589,-3.6074,-3.6162,-3.5381,-3.5269,-3.5428,-3.4842,-3.4094,-3.3462,-3.343,-3.3409,-3.325,-3.3579,-3.3861,-3.4142,-3.4367,-3.4468,-3.4468,-3.4524,-3.459,-3.4802,-3.5124,-3.5647,-3.6373,-3.713,-3.793,-3.8666,-3.9316,-3.9668,-4.0081,-4.1241,-4.1663,-4.1632,-4.1427,-4.1825,-4.1913,-4.1651,-4.1533,-4.1703,-4.1585,-4.1311,-4.1324,-4.1324,-4.1311,-4.1311,-4.1311,-4.118,-4.0749,-4.0422,-3.9978,-3.9625,-3.9311,-3.9076,-3.9076,-3.9181,-3.9464,-3.9992,-4.0623,-4.1421,-4.228,-4.2774,-4.267,-4.2588,-4.1831,-4.1563,-4.1468,-4.1681,-4.1823,-4.166,-4.1926,-4.2339,-4.2919,-4.3398,-4.3963,-4.4443,-4.469,-4.4964,-4.498,-4.4974,-4.4768,-4.4448,-4.4874,-4.5164,-4.5395,-4.5694,-4.633,-4.6889,-4.6889,-4.6818,-4.6698,-4.6404,-4.5976,-4.6066,-4.625,-4.6155,-4.6074,-4.6781,-4.7363,-4.7118,-4.7396,-4.8152,-4.8893,-4.9491,-4.9924,-5.0245,-5.0428,-5.0509,-5.0026,-4.9284,-4.9199,-4.926,-4.7961,-4.6555,-4.6579,-4.6707,-4.7093,-3.567,-3.5198,-3.4926,-3.4962,-3.5113,-3.445,-3.3939,-3.3512,-3.3296,-3.3182,-3.3306,-3.3805,-3.3987,-3.4155,-3.4357,-3.4424,-3.4436,-3.448,-3.4635,-3.4924,-3.5047,-3.5491,-3.6082,-3.6769,-3.7508,-3.7977,-3.8701,-3.9479,-4.0,-4.0968,-4.1569,-4.1967,-4.1931,-4.2004,-4.2146,-4.1598,-4.135,-4.1337,-4.1337,-4.1324,-4.1311,-4.1311,-4.1311,-4.1311,-4.1193,-4.1036,-4.0684,-3.9978,-3.952,-3.9233,-3.8579,-3.8292,-3.8227,-3.82,-3.8516,-3.9169,-3.9261,-4.016,-4.1516,-4.2555,-4.3073,-4.3213,-4.2387,-4.2109,-4.2179,-4.2296,-4.2238,-4.2062,-4.2098,-4.2411,-4.2802,-4.3107,-4.367,-4.4046,-4.4307,-4.4448,-4.4472,-4.4303,-4.4123,-4.4295,-4.4495,-4.4709,-4.4914,-4.5219,-4.5841,-4.6236,-4.6297,-4.6233,-4.6037,-4.5847,-4.5489,-4.5473,-4.5688,-4.5678,-4.5788,-4.6339,-4.6613,-4.6339,-4.6464,-4.7196,-4.7738,-4.8228,-4.8607,-4.8949,-4.9244,-4.9528,-4.8808,-4.7974,-4.7821,-4.7536,-4.6889,-4.5953,-4.5917,-4.5977,-4.6236,-3.5091,-3.5168,-3.4771,-3.464,-3.4675,-3.4274,-3.3918,-3.3568,-3.3126,-3.3079,-3.3466,-3.3749,-3.3815,-3.3996,-3.4248,-3.4382,-3.4141,-3.4458,-3.4691,-3.498,-3.5047,-3.528,-3.5846,-3.6679,-3.7289,-3.7782,-3.8508,-3.9318,-4.0041,-4.0802,-4.137,-4.1737,-4.2034,-4.1964,-4.1677,-4.1363,-4.1324,-4.1311,-4.1311,-4.1311,-4.1311,-4.1311,-4.1311,-4.1311,-4.101,-4.0697,-4.037,-3.9547,-3.9076,-3.8736,-3.8031,-3.7939,-3.79,-3.79,-3.8116,-3.8648,-3.8932,-3.9987,-4.122,-4.2213,-4.2738,-4.2925,-4.3006,-4.266,-4.2499,-4.3127,-4.2941,-4.2593,-4.2545,-4.2742,-4.2648,-4.3071,-4.3506,-4.3759,-4.3973,-4.4137,-4.4117,-4.3832,-4.3668,-4.4085,-4.4374,-4.4807,-4.507,-4.512,-4.5578,-4.5601,-4.5608,-4.5568,-4.5419,-4.5432,-4.5241,-4.5225,-4.5325,-4.5346,-4.5499,-4.5588,-4.562,-4.5384,-4.5657,-4.6266,-4.6712,-4.7061,-4.7665,-4.8178,-4.8379,-4.8501,-4.7643,-4.6819,-4.6113,-4.562,-4.5379,-4.509,-4.493,-4.4957,-4.5095,-3.4851,-3.4949,-3.4829,-3.4655,-3.4489,-3.4209,-3.3872,-3.3466,-3.3069,-3.3126,-3.3568,-3.3738,-3.3772,-3.3955,-3.4229,-3.4261,-3.389,-3.4283,-3.4802,-3.5091,-3.5146,-3.55,-3.6153,-3.6795,-3.7278,-3.775,-3.8352,-3.9182,-3.9865,-4.0517,-4.1215,-4.1815,-4.1927,-4.1664,-4.1402,-4.1324,-4.1361,-4.1411,-4.1448,-4.1461,-4.1461,-4.1461,-4.1411,-4.1219,-4.0945,-4.054,-3.9926,-3.9311,-3.8736,-3.8338,-3.8077,-3.8018,-3.8005,-3.8083,-3.8207,-3.8521,-3.9149,-4.011,-4.1051,-4.1475,-4.2017,-4.2496,-4.2988,-4.3279,-4.313,-4.3473,-4.3488,-4.3314,-4.3166,-4.3146,-4.3082,-4.3504,-4.3698,-4.3938,-4.4012,-4.4203,-4.4257,-4.3983,-4.4161,-4.4478,-4.4894,-4.5209,-4.5263,-4.5244,-4.5394,-4.5184,-4.4958,-4.4911,-4.4911,-4.5002,-4.503,-4.4915,-4.4775,-4.4672,-4.4538,-4.4403,-4.4434,-4.4408,-4.4841,-4.5322,-4.5657,-4.597,-4.6697,-4.7215,-4.7093,-4.6861,-4.6376,-4.5718,-4.535,-4.4964,-4.4658,-4.4325,-4.3944,-4.4154,-4.4495,-3.4917,-3.4622,-3.5004,-3.4906,-3.4455,-3.4199,-3.3759,-3.325,-3.3193,-3.3363,-3.3625,-3.3875,-3.3865,-3.3835,-3.4229,-3.4119,-3.3868,-3.4218,-3.477,-3.5091,-3.5146,-3.5717,-3.6329,-3.6862,-3.7214,-3.7744,-3.8311,-3.8934,-3.9627,-4.0495,-4.1348,-4.1813,-4.1587,-4.135,-4.1269,-4.1191,-4.1343,-4.1558,-4.1696,-4.1696,-4.1696,-4.1591,-4.1439,-4.1172,-4.0824,-4.0445,-3.9939,-3.9555,-3.9097,-3.8759,-3.8471,-3.8241,-3.8227,-3.8429,-3.8552,-3.8849,-3.941,-4.0124,-4.0942,-4.1263,-4.1515,-4.2283,-4.3364,-4.3842,-4.3873,-4.3632,-4.369,-4.366,-4.3554,-4.3812,-4.4,-4.4167,-4.4332,-4.4406,-4.4404,-4.4558,-4.471,-4.4789,-4.5072,-4.5445,-4.5931,-4.6074,-4.5664,-4.5518,-4.5317,-4.4969,-4.4799,-4.4761,-4.4799,-4.4911,-4.4856,-4.4533,-4.4332,-4.3938,-4.3722,-4.3562,-4.3531,-4.3603,-4.38,-4.4232,-4.4544,-4.4794,-4.517,-4.5447,-4.5405,-4.5248,-4.5153,-4.5036,-4.4887,-4.4539,-4.4443,-4.42,-4.4038,-4.4118,-4.4318,-3.4655,-3.4545,-3.4666,-3.4633,-3.4489,-3.4199,-3.3872,-3.3466,-3.3306,-3.3363,-3.3604,-3.3531,-3.3561,-3.3333,-3.342,-3.342,-3.353,-3.3835,-3.4428,-3.4725,-3.4834,-3.5493,-3.6025,-3.6482,-3.6873,-3.7435,-3.8023,-3.8546,-3.9179,-4.0214,-4.1042,-4.1406,-4.1259,-4.1123,-4.0999,-4.0956,-4.1265,-4.1535,-4.1722,-4.1861,-4.1754,-4.1568,-4.1293,-4.1014,-4.0325,-3.9895,-3.9398,-3.9357,-3.8931,-3.8464,-3.9289,-3.9528,-3.909,-3.9182,-3.9261,-3.9436,-3.9739,-4.0172,-4.1194,-4.129,-4.1432,-4.1994,-4.2862,-4.3135,-4.3294,-4.3429,-4.369,-4.3775,-4.371,-4.3807,-4.4047,-4.4297,-4.4605,-4.4792,-4.4759,-4.481,-4.5005,-4.5315,-4.5598,-4.5824,-4.6342,-4.6256,-4.5882,-4.5619,-4.5395,-4.4955,-4.4715,-4.4608,-4.4577,-4.4659,-4.4589,-4.4251,-4.3762,-4.3308,-4.3071,-4.2927,-4.2875,-4.287,-4.3035,-4.3185,-4.3417,-4.3598,-4.3681,-4.3873,-4.4107,-4.4242,-4.4272,-4.4192,-4.4171,-4.4688,-4.4685,-4.4366,-4.4161,-4.4202,-4.4091,-3.4304,-3.4457,-3.4468,-3.4468,-3.4468,-3.4199,-3.3985,-3.3749,-3.3466,-3.3466,-3.3582,-3.3617,-3.354,-3.3497,-3.3606,-3.3541,-3.3212,-3.3649,-3.4054,-3.415,-3.4358,-3.5072,-3.5607,-3.6056,-3.6543,-3.7089,-3.7577,-3.8092,-3.8871,-3.9855,-4.0722,-4.0882,-4.0814,-4.0608,-4.0491,-4.0557,-4.0847,-4.1165,-4.1408,-4.1678,-4.1584,-4.1357,-4.1018,-4.0754,-3.9925,-3.9387,-3.8911,-3.9104,-3.8846,-3.8476,-3.9541,-3.9921,-3.956,-3.9547,-3.9959,-4.0108,-4.0291,-4.0783,-4.1519,-4.1511,-4.1669,-4.1862,-4.2076,-4.215,-4.2566,-4.2826,-4.343,-4.3862,-4.3694,-4.3652,-4.3956,-4.4288,-4.4708,-4.5127,-4.5067,-4.5059,-4.5355,-4.5697,-4.5931,-4.6056,-4.6148,-4.617,-4.5971,-4.5733,-4.5395,-4.4817,-4.4377,-4.4108,-4.4093,-4.4115,-4.4053,-4.3883,-4.3241,-4.269,-4.2453,-4.2135,-4.1934,-4.1919,-4.2135,-4.2283,-4.2381,-4.2679,-4.2978,-4.3009,-4.2978,-4.319,-4.3499,-4.3437,-4.3515,-4.4177,-4.4775,-4.4565,-4.4256,-4.41,-4.391,-3.4021,-3.4447,-3.4469,-3.4382,-3.4337,-3.4126,-3.397,-3.3968,-3.3602,-3.3607,-3.3695,-3.3909,-3.3866,-3.3639,-3.3803,-3.3617,-3.3333,-3.3507,-3.366,-3.3531,-3.3881,-3.4482,-3.517,-3.5783,-3.5933,-3.6391,-3.691,-3.7585,-3.8755,-3.9469,-3.9915,-4.0269,-4.0026,-3.9882,-3.9963,-4.0173,-4.0375,-4.0428,-4.0669,-4.0864,-4.1254,-4.11,-4.0763,-4.0821,-4.0347,-3.9761,-3.9276,-3.9124,-3.907,-3.8929,-3.9207,-3.9865,-3.9771,-3.9863,-4.0343,-4.059,-4.0642,-4.1249,-4.1626,-4.1689,-4.1801,-4.1678,-4.1339,-4.1497,-4.1952,-4.2252,-4.2839,-4.3598,-4.35,-4.3788,-4.4106,-4.4287,-4.4655,-4.5061,-4.5261,-4.5257,-4.5421,-4.5747,-4.5925,-4.6126,-4.6372,-4.6333,-4.5948,-4.568,-4.5403,-4.4756,-4.4185,-4.3793,-4.3562,-4.3547,-4.33,-4.3208,-4.2736,-4.2078,-4.161,-4.1263,-4.0909,-4.0889,-4.1294,-4.1401,-4.1564,-4.1929,-4.2371,-4.2273,-4.2109,-4.2505,-4.273,-4.2988,-4.352,-4.4188,-4.4621,-4.4616,-4.4455,-4.4216,-4.4018,-3.353,-3.3956,-3.4186,-3.3977,-3.3496,-3.3593,-3.3399,-3.2976,-3.3139,-3.3528,-3.3914,-3.3843,-3.3672,-3.3399,-3.3497,-3.3344,-3.3191,-3.3278,-3.3442,-3.3308,-3.3402,-3.3851,-3.4352,-3.4659,-3.506,-3.5837,-3.6441,-3.7049,-3.8116,-3.865,-3.909,-3.9734,-3.9625,-3.9578,-3.9515,-3.9793,-3.9844,-3.9816,-3.9875,-4.028,-4.0875,-4.0632,-4.0329,-4.0105,-3.9618,-3.9259,-3.9007,-3.9306,-3.917,-3.9087,-4.0143,-4.0416,-4.0105,-4.0273,-4.0477,-4.0672,-4.0769,-4.1435,-4.1976,-4.198,-4.1806,-4.205,-4.1895,-4.1681,-4.1621,-4.1679,-4.2091,-4.2886,-4.3478,-4.3838,-4.415,-4.4283,-4.4488,-4.4923,-4.5327,-4.5369,-4.544,-4.5656,-4.5865,-4.6126,-4.6449,-4.6234,-4.5834,-4.5565,-4.5318,-4.4778,-4.4077,-4.3547,-4.3116,-4.29,-4.2248,-4.2094,-4.2048,-4.1544,-4.0997,-4.0751,-4.0566,-4.0551,-4.0905,-4.0905,-4.0874,-4.1412,-4.2001,-4.1494,-4.1324,-4.2001,-4.2751,-4.3308,-4.3836,-4.4413,-4.4705,-4.4811,-4.4696,-4.4471,-4.4337,-3.3198,-3.3496,-3.3626,-3.3537,-3.3329,-3.3296,-3.3124,-3.2899,-3.3017,-3.3312,-3.3584,-3.3541,-3.3311,-3.3201,-3.3332,-3.3081,-3.2971,-3.3048,-3.2851,-3.2687,-3.293,-3.3179,-3.3451,-3.3823,-3.44,-3.5144,-3.6152,-3.6961,-3.7642,-3.8299,-3.886,-3.9262,-3.934,-3.9197,-3.9146,-3.9347,-3.9388,-3.9315,-3.9319,-3.9726,-4.0377,-3.9992,-3.9952,-3.9694,-3.946,-3.9016,-3.8957,-3.9285,-3.9209,-3.928,-4.0037,-4.0735,-4.0636,-4.065,-4.0858,-4.1083,-4.1313,-4.1509,-4.2233,-4.2285,-4.1895,-4.2181,-4.1967,-4.155,-4.1829,-4.1915,-4.1999,-4.2731,-4.2908,-4.3264,-4.3643,-4.3873,-4.4095,-4.4452,-4.4576,-4.4662,-4.4802,-4.5018,-4.5133,-4.5264,-4.5449,-4.5387,-4.511,-4.5118,-4.4848,-4.4632,-4.3932,-4.3331,-4.2848,-4.2479,-4.1771,-4.137,-4.154,-4.1263,-4.0751,-4.0597,-4.0536,-4.0566,-4.0847,-4.1243,-4.1612,-4.155,-4.1535,-4.1586,-4.1724,-4.2181,-4.287,-4.3458,-4.4013,-4.4569,-4.4838,-4.5049,-4.49,-4.4705,-4.4564,-3.2818,-3.3023,-3.311,-3.3142,-3.3279,-3.3098,-3.2895,-3.2842,-3.2917,-3.2895,-3.2874,-3.2863,-3.296,-3.319,-3.3431,-3.2973,-3.2721,-3.2787,-3.2405,-3.2342,-3.259,-3.2829,-3.3203,-3.3609,-3.3978,-3.4627,-3.5672,-3.6481,-3.7207,-3.7817,-3.8332,-3.8734,-3.8674,-3.8485,-3.8774,-3.8966,-3.9114,-3.9261,-3.9305,-3.9305,-3.9346,-3.9319,-3.9631,-3.9712,-3.9617,-3.9185,-3.91,-3.91,-3.9158,-3.932,-3.9676,-4.021,-4.064,-4.0597,-4.1021,-4.126,-4.1459,-4.1874,-4.2388,-4.2337,-4.2324,-4.2352,-4.178,-4.1691,-4.2009,-4.216,-4.2242,-4.2433,-4.2622,-4.2905,-4.328,-4.3548,-4.3784,-4.3994,-4.4072,-4.4111,-4.4343,-4.4481,-4.4573,-4.4664,-4.4679,-4.4664,-4.4687,-4.4656,-4.4533,-4.4264,-4.3833,-4.3202,-4.2679,-4.2386,-4.1909,-4.1663,-4.1709,-4.1258,-4.0782,-4.072,-4.0797,-4.1232,-4.1606,-4.2032,-4.2273,-4.2119,-4.2119,-4.2371,-4.2592,-4.2828,-4.3113,-4.3593,-4.4174,-4.4811,-4.5207,-4.5425,-4.4973,-4.4808,-4.4716,-3.2328,-3.2654,-3.3005,-3.2845,-3.2369,-3.2274,-3.2097,-3.1891,-3.1935,-3.1902,-3.1979,-3.1968,-3.2099,-3.2588,-3.3048,-3.2873,-3.2457,-3.2566,-3.2724,-3.2682,-3.2318,-3.2476,-3.2797,-3.319,-3.3311,-3.412,-3.5077,-3.5769,-3.6768,-3.7304,-3.78,-3.8352,-3.8639,-3.8621,-3.8863,-3.9042,-3.922,-3.9251,-3.9264,-3.9278,-3.9264,-3.9278,-3.9332,-3.9386,-3.9373,-3.9261,-3.9247,-3.9247,-3.9247,-3.9301,-3.9427,-3.9809,-4.0145,-4.041,-4.0803,-4.1235,-4.144,-4.1839,-4.2138,-4.2137,-4.2192,-4.2437,-4.2033,-4.1926,-4.216,-4.2269,-4.2433,-4.2622,-4.285,-4.2996,-4.3305,-4.3518,-4.3729,-4.3886,-4.3964,-4.4065,-4.422,-4.4335,-4.4427,-4.4504,-4.4618,-4.4618,-4.4641,-4.4625,-4.461,-4.4295,-4.3947,-4.334,-4.3156,-4.2633,-4.2027,-4.2001,-4.194,-4.1801,-4.154,-4.1324,-4.1401,-4.1868,-4.232,-4.2669,-4.2786,-4.2581,-4.2642,-4.3033,-4.3254,-4.3424,-4.3731,-4.4044,-4.4591,-4.5232,-4.5667,-4.5815,-4.5273,-4.4918,-4.4871]}]]